<?xml version='1.0' encoding='UTF-8'?>
<gpx version="1.1" creator="https://www.komoot.de" xmlns="http://www.topografix.com/GPX/1/1" xmlns:xsi="http://www.w3.org/2001/XMLSchema-instance" xsi:schemaLocation="http://www.topografix.com/GPX/1/1 http://www.topografix.com/GPX/1/1/gpx.xsd">
  <metadata>
    <name>FLATLANDES 2026 - 100K - FINAL</name>
    <author>
      <link href="https://www.komoot.de">
        <text>komoot</text>
        <type>text/html</type>
      </link>
    </author>
  </metadata>
  <trk>
    <name>FLATLANDES 2026 - 100K - FINAL</name>
    <trkseg>
      <trkpt lat="43.706561" lon="-1.335014">
        <ele>26.886265</ele>
        <time>2026-03-24T09:13:43.867Z</time>
      </trkpt>
      <trkpt lat="43.706577" lon="-1.334927">
        <ele>26.886265</ele>
        <time>2026-03-24T09:13:45.179Z</time>
      </trkpt>
      <trkpt lat="43.706942" lon="-1.332991">
        <ele>27.084460</ele>
        <time>2026-03-24T09:14:14.233Z</time>
      </trkpt>
      <trkpt lat="43.707673" lon="-1.329115">
        <ele>27.945390</ele>
        <time>2026-03-24T09:15:11.949Z</time>
      </trkpt>
      <trkpt lat="43.707927" lon="-1.327769">
        <ele>28.321875</ele>
        <time>2026-03-24T09:15:31.294Z</time>
      </trkpt>
      <trkpt lat="43.708286" lon="-1.325865">
        <ele>29.022825</ele>
        <time>2026-03-24T09:16:00.726Z</time>
      </trkpt>
      <trkpt lat="43.709055" lon="-1.321787">
        <ele>31.011335</ele>
        <time>2026-03-24T09:17:04.689Z</time>
      </trkpt>
      <trkpt lat="43.710176" lon="-1.315568">
        <ele>32.655542</ele>
        <time>2026-03-24T09:18:36.595Z</time>
      </trkpt>
      <trkpt lat="43.710036" lon="-1.314510">
        <ele>33.009132</ele>
        <time>2026-03-24T09:18:52.701Z</time>
      </trkpt>
      <trkpt lat="43.709814" lon="-1.312698">
        <ele>33.854826</ele>
        <time>2026-03-24T09:19:20.508Z</time>
      </trkpt>
      <trkpt lat="43.709808" lon="-1.312652">
        <ele>33.876335</ele>
        <time>2026-03-24T09:19:21.213Z</time>
      </trkpt>
      <trkpt lat="43.709799" lon="-1.312580">
        <ele>33.909958</ele>
        <time>2026-03-24T09:19:22.312Z</time>
      </trkpt>
      <trkpt lat="43.709744" lon="-1.312132">
        <ele>34.119061</ele>
        <time>2026-03-24T09:19:29.165Z</time>
      </trkpt>
      <trkpt lat="43.709384" lon="-1.309190">
        <ele>35.447397</ele>
        <time>2026-03-24T09:20:13.973Z</time>
      </trkpt>
      <trkpt lat="43.708657" lon="-1.303270">
        <ele>37.684137</ele>
        <time>2026-03-24T09:21:42.598Z</time>
      </trkpt>
      <trkpt lat="43.708408" lon="-1.301238">
        <ele>38.484476</ele>
        <time>2026-03-24T09:22:12.999Z</time>
      </trkpt>
      <trkpt lat="43.708321" lon="-1.300529">
        <ele>38.787621</ele>
        <time>2026-03-24T09:22:23.618Z</time>
      </trkpt>
      <trkpt lat="43.708115" lon="-1.298844">
        <ele>39.731865</ele>
        <time>2026-03-24T09:22:49.595Z</time>
      </trkpt>
      <trkpt lat="43.707867" lon="-1.296817">
        <ele>40.914699</ele>
        <time>2026-03-24T09:23:22.166Z</time>
      </trkpt>
      <trkpt lat="43.707222" lon="-1.291554">
        <ele>42.269809</ele>
        <time>2026-03-24T09:24:38.874Z</time>
      </trkpt>
      <trkpt lat="43.707053" lon="-1.290175">
        <ele>42.513245</ele>
        <time>2026-03-24T09:24:58.644Z</time>
      </trkpt>
      <trkpt lat="43.706671" lon="-1.287051">
        <ele>43.308782</ele>
        <time>2026-03-24T09:25:43.762Z</time>
      </trkpt>
      <trkpt lat="43.706458" lon="-1.285315">
        <ele>44.240915</ele>
        <time>2026-03-24T09:26:10.934Z</time>
      </trkpt>
      <trkpt lat="43.706379" lon="-1.284665">
        <ele>44.668156</ele>
        <time>2026-03-24T09:26:21.649Z</time>
      </trkpt>
      <trkpt lat="43.706086" lon="-1.282338">
        <ele>46.200982</ele>
        <time>2026-03-24T09:26:59.040Z</time>
      </trkpt>
      <trkpt lat="43.705927" lon="-1.281081">
        <ele>46.409382</ele>
        <time>2026-03-24T09:27:16.804Z</time>
      </trkpt>
      <trkpt lat="43.705916" lon="-1.280991">
        <ele>46.424289</ele>
        <time>2026-03-24T09:27:18.044Z</time>
      </trkpt>
      <trkpt lat="43.705637" lon="-1.278783">
        <ele>46.507351</ele>
        <time>2026-03-24T09:27:48.766Z</time>
      </trkpt>
      <trkpt lat="43.705229" lon="-1.275542">
        <ele>46.547730</ele>
        <time>2026-03-24T09:28:33.895Z</time>
      </trkpt>
      <trkpt lat="43.705212" lon="-1.275410">
        <ele>46.552598</ele>
        <time>2026-03-24T09:28:35.803Z</time>
      </trkpt>
      <trkpt lat="43.705193" lon="-1.275261">
        <ele>46.562311</ele>
        <time>2026-03-24T09:28:37.962Z</time>
      </trkpt>
      <trkpt lat="43.704743" lon="-1.271694">
        <ele>48.073897</ele>
        <time>2026-03-24T09:29:32.662Z</time>
      </trkpt>
      <trkpt lat="43.705073" lon="-1.271236">
        <ele>48.324079</ele>
        <time>2026-03-24T09:29:39.080Z</time>
      </trkpt>
      <trkpt lat="43.705473" lon="-1.270989">
        <ele>48.558517</ele>
        <time>2026-03-24T09:29:44.806Z</time>
      </trkpt>
      <trkpt lat="43.707912" lon="-1.269611">
        <ele>49.163765</ele>
        <time>2026-03-24T09:30:16.014Z</time>
      </trkpt>
      <trkpt lat="43.709052" lon="-1.268967">
        <ele>49.984964</ele>
        <time>2026-03-24T09:30:34.957Z</time>
      </trkpt>
      <trkpt lat="43.709127" lon="-1.268794">
        <ele>50.067597</ele>
        <time>2026-03-24T09:30:37.226Z</time>
      </trkpt>
      <trkpt lat="43.711562" lon="-1.263172">
        <ele>52.659392</ele>
        <time>2026-03-24T09:31:39.684Z</time>
      </trkpt>
      <trkpt lat="43.712296" lon="-1.262066">
        <ele>53.073004</ele>
        <time>2026-03-24T09:31:54.400Z</time>
      </trkpt>
      <trkpt lat="43.714986" lon="-1.258010">
        <ele>54.067575</ele>
        <time>2026-03-24T09:32:44.589Z</time>
      </trkpt>
      <trkpt lat="43.716814" lon="-1.255254">
        <ele>53.522254</ele>
        <time>2026-03-24T09:33:15.503Z</time>
      </trkpt>
      <trkpt lat="43.718747" lon="-1.251917">
        <ele>52.993613</ele>
        <time>2026-03-24T09:34:23.049Z</time>
      </trkpt>
      <trkpt lat="43.720492" lon="-1.248853">
        <ele>53.726493</ele>
        <time>2026-03-24T09:35:28.547Z</time>
      </trkpt>
      <trkpt lat="43.721644" lon="-1.246952">
        <ele>53.793178</ele>
        <time>2026-03-24T09:36:08.495Z</time>
      </trkpt>
      <trkpt lat="43.722563" lon="-1.245292">
        <ele>53.243872</ele>
        <time>2026-03-24T09:36:41.583Z</time>
      </trkpt>
      <trkpt lat="43.723890" lon="-1.242946">
        <ele>51.436162</ele>
        <time>2026-03-24T09:37:25.853Z</time>
      </trkpt>
      <trkpt lat="43.724109" lon="-1.242559">
        <ele>51.140149</ele>
        <time>2026-03-24T09:37:33.252Z</time>
      </trkpt>
      <trkpt lat="43.724300" lon="-1.242803">
        <ele>50.923526</ele>
        <time>2026-03-24T09:37:38.748Z</time>
      </trkpt>
      <trkpt lat="43.724469" lon="-1.243106">
        <ele>50.693026</ele>
        <time>2026-03-24T09:37:44.668Z</time>
      </trkpt>
      <trkpt lat="43.724713" lon="-1.243310">
        <ele>50.577054</ele>
        <time>2026-03-24T09:37:50.854Z</time>
      </trkpt>
      <trkpt lat="43.725070" lon="-1.243782">
        <ele>50.442962</ele>
        <time>2026-03-24T09:38:01.701Z</time>
      </trkpt>
      <trkpt lat="43.725450" lon="-1.244200">
        <ele>50.311131</ele>
        <time>2026-03-24T09:38:12.472Z</time>
      </trkpt>
      <trkpt lat="43.725609" lon="-1.244463">
        <ele>50.243835</ele>
        <time>2026-03-24T09:38:17.898Z</time>
      </trkpt>
      <trkpt lat="43.726086" lon="-1.245069">
        <ele>49.885481</ele>
        <time>2026-03-24T09:38:31.861Z</time>
      </trkpt>
      <trkpt lat="43.727015" lon="-1.246251">
        <ele>48.754935</ele>
        <time>2026-03-24T09:38:58.078Z</time>
      </trkpt>
      <trkpt lat="43.727086" lon="-1.246341">
        <ele>48.668679</ele>
        <time>2026-03-24T09:39:00.027Z</time>
      </trkpt>
      <trkpt lat="43.727390" lon="-1.246673">
        <ele>48.238734</ele>
        <time>2026-03-24T09:39:07.847Z</time>
      </trkpt>
      <trkpt lat="43.727327" lon="-1.246827">
        <ele>48.079800</ele>
        <time>2026-03-24T09:39:10.433Z</time>
      </trkpt>
      <trkpt lat="43.727479" lon="-1.246830">
        <ele>47.890871</ele>
        <time>2026-03-24T09:39:13.506Z</time>
      </trkpt>
      <trkpt lat="43.727952" lon="-1.247441">
        <ele>47.086699</ele>
        <time>2026-03-24T09:39:26.548Z</time>
      </trkpt>
      <trkpt lat="43.728665" lon="-1.248588">
        <ele>46.024915</ele>
        <time>2026-03-24T09:39:49.070Z</time>
      </trkpt>
      <trkpt lat="43.729680" lon="-1.250222">
        <ele>45.271725</ele>
        <time>2026-03-24T09:40:22.369Z</time>
      </trkpt>
      <trkpt lat="43.729712" lon="-1.250273">
        <ele>45.282242</ele>
        <time>2026-03-24T09:40:23.456Z</time>
      </trkpt>
      <trkpt lat="43.730548" lon="-1.252313">
        <ele>45.633287</ele>
        <time>2026-03-24T09:40:57.609Z</time>
      </trkpt>
      <trkpt lat="43.730642" lon="-1.252543">
        <ele>45.657995</ele>
        <time>2026-03-24T09:41:01.490Z</time>
      </trkpt>
      <trkpt lat="43.730979" lon="-1.254279">
        <ele>45.826078</ele>
        <time>2026-03-24T09:41:26.748Z</time>
      </trkpt>
      <trkpt lat="43.731190" lon="-1.254968">
        <ele>45.870733</ele>
        <time>2026-03-24T09:41:36.875Z</time>
      </trkpt>
      <trkpt lat="43.731717" lon="-1.256693">
        <ele>45.959343</ele>
        <time>2026-03-24T09:42:02.629Z</time>
      </trkpt>
      <trkpt lat="43.732396" lon="-1.258114">
        <ele>46.330991</ele>
        <time>2026-03-24T09:42:28.140Z</time>
      </trkpt>
      <trkpt lat="43.732443" lon="-1.258211">
        <ele>46.357302</ele>
        <time>2026-03-24T09:42:29.869Z</time>
      </trkpt>
      <trkpt lat="43.732916" lon="-1.259001">
        <ele>46.371821</ele>
        <time>2026-03-24T09:42:44.097Z</time>
      </trkpt>
      <trkpt lat="43.733998" lon="-1.260903">
        <ele>45.053313</ele>
        <time>2026-03-24T09:43:14.993Z</time>
      </trkpt>
      <trkpt lat="43.734654" lon="-1.262115">
        <ele>43.922001</ele>
        <time>2026-03-24T09:43:26.393Z</time>
      </trkpt>
      <trkpt lat="43.735311" lon="-1.263048">
        <ele>43.233063</ele>
        <time>2026-03-24T09:43:36.272Z</time>
      </trkpt>
      <trkpt lat="43.735835" lon="-1.263273">
        <ele>43.059595</ele>
        <time>2026-03-24T09:43:42.424Z</time>
      </trkpt>
      <trkpt lat="43.737007" lon="-1.263818">
        <ele>42.657999</ele>
        <time>2026-03-24T09:43:57.874Z</time>
      </trkpt>
      <trkpt lat="43.737349" lon="-1.263935">
        <ele>42.536778</ele>
        <time>2026-03-24T09:44:02.185Z</time>
      </trkpt>
      <trkpt lat="43.737660" lon="-1.264074">
        <ele>42.424324</ele>
        <time>2026-03-24T09:44:05.983Z</time>
      </trkpt>
      <trkpt lat="43.738410" lon="-1.265138">
        <ele>41.832825</ele>
        <time>2026-03-24T09:44:17.338Z</time>
      </trkpt>
      <trkpt lat="43.738874" lon="-1.266072">
        <ele>41.011661</ele>
        <time>2026-03-24T09:44:25.768Z</time>
      </trkpt>
      <trkpt lat="43.739086" lon="-1.266430">
        <ele>40.676321</ele>
        <time>2026-03-24T09:44:29.324Z</time>
      </trkpt>
      <trkpt lat="43.739152" lon="-1.266541">
        <ele>40.572177</ele>
        <time>2026-03-24T09:44:30.432Z</time>
      </trkpt>
      <trkpt lat="43.739860" lon="-1.267578">
        <ele>40.120458</ele>
        <time>2026-03-24T09:44:41.849Z</time>
      </trkpt>
      <trkpt lat="43.740179" lon="-1.268191">
        <ele>39.957489</ele>
        <time>2026-03-24T09:44:48.229Z</time>
      </trkpt>
      <trkpt lat="43.740204" lon="-1.268240">
        <ele>39.944549</ele>
        <time>2026-03-24T09:44:48.743Z</time>
      </trkpt>
      <trkpt lat="43.740442" lon="-1.271594">
        <ele>39.783332</ele>
        <time>2026-03-24T09:45:18.017Z</time>
      </trkpt>
      <trkpt lat="43.740522" lon="-1.272726">
        <ele>39.499668</ele>
        <time>2026-03-24T09:45:27.542Z</time>
      </trkpt>
      <trkpt lat="43.740705" lon="-1.275288">
        <ele>38.512155</ele>
        <time>2026-03-24T09:45:47.741Z</time>
      </trkpt>
      <trkpt lat="43.740677" lon="-1.275867">
        <ele>38.239970</ele>
        <time>2026-03-24T09:45:52.296Z</time>
      </trkpt>
      <trkpt lat="43.740471" lon="-1.278262">
        <ele>37.758290</ele>
        <time>2026-03-24T09:46:12.245Z</time>
      </trkpt>
      <trkpt lat="43.740465" lon="-1.278346">
        <ele>37.745120</ele>
        <time>2026-03-24T09:46:13.010Z</time>
      </trkpt>
      <trkpt lat="43.740494" lon="-1.278731">
        <ele>37.691994</ele>
        <time>2026-03-24T09:46:16.426Z</time>
      </trkpt>
      <trkpt lat="43.740959" lon="-1.280629">
        <ele>37.633561</ele>
        <time>2026-03-24T09:46:33.793Z</time>
      </trkpt>
      <trkpt lat="43.741281" lon="-1.281814">
        <ele>37.760589</ele>
        <time>2026-03-24T09:46:44.312Z</time>
      </trkpt>
      <trkpt lat="43.741464" lon="-1.282488">
        <ele>37.880461</ele>
        <time>2026-03-24T09:46:50.812Z</time>
      </trkpt>
      <trkpt lat="43.741845" lon="-1.282541">
        <ele>37.968700</ele>
        <time>2026-03-24T09:46:58.617Z</time>
      </trkpt>
      <trkpt lat="43.742279" lon="-1.282603">
        <ele>38.073718</ele>
        <time>2026-03-24T09:47:07.756Z</time>
      </trkpt>
      <trkpt lat="43.742484" lon="-1.282523">
        <ele>38.129323</ele>
        <time>2026-03-24T09:47:12.308Z</time>
      </trkpt>
      <trkpt lat="43.743325" lon="-1.281890">
        <ele>38.379237</ele>
        <time>2026-03-24T09:47:32.049Z</time>
      </trkpt>
      <trkpt lat="43.743464" lon="-1.281853">
        <ele>38.416189</ele>
        <time>2026-03-24T09:47:34.753Z</time>
      </trkpt>
      <trkpt lat="43.744111" lon="-1.282035">
        <ele>37.836019</ele>
        <time>2026-03-24T09:47:46.724Z</time>
      </trkpt>
      <trkpt lat="43.744466" lon="-1.282083">
        <ele>37.089265</ele>
        <time>2026-03-24T09:47:52.766Z</time>
      </trkpt>
      <trkpt lat="43.744807" lon="-1.282054">
        <ele>36.374012</ele>
        <time>2026-03-24T09:47:58.339Z</time>
      </trkpt>
      <trkpt lat="43.745142" lon="-1.282035">
        <ele>35.672078</ele>
        <time>2026-03-24T09:48:03.647Z</time>
      </trkpt>
      <trkpt lat="43.745883" lon="-1.282231">
        <ele>33.906937</ele>
        <time>2026-03-24T09:48:15.200Z</time>
      </trkpt>
      <trkpt lat="43.746055" lon="-1.282262">
        <ele>33.439534</ele>
        <time>2026-03-24T09:48:17.847Z</time>
      </trkpt>
      <trkpt lat="43.746382" lon="-1.282322">
        <ele>32.550655</ele>
        <time>2026-03-24T09:48:22.992Z</time>
      </trkpt>
      <trkpt lat="43.746718" lon="-1.282282">
        <ele>31.641889</ele>
        <time>2026-03-24T09:48:28.394Z</time>
      </trkpt>
      <trkpt lat="43.747126" lon="-1.282289">
        <ele>30.542361</ele>
        <time>2026-03-24T09:48:34.987Z</time>
      </trkpt>
      <trkpt lat="43.747527" lon="-1.282180">
        <ele>29.684990</ele>
        <time>2026-03-24T09:48:41.681Z</time>
      </trkpt>
      <trkpt lat="43.747646" lon="-1.282094">
        <ele>29.518591</ele>
        <time>2026-03-24T09:48:43.911Z</time>
      </trkpt>
      <trkpt lat="43.747923" lon="-1.281649">
        <ele>28.992596</ele>
        <time>2026-03-24T09:48:51.063Z</time>
      </trkpt>
      <trkpt lat="43.748030" lon="-1.281597">
        <ele>28.852028</ele>
        <time>2026-03-24T09:48:53.021Z</time>
      </trkpt>
      <trkpt lat="43.748068" lon="-1.281583">
        <ele>28.803285</ele>
        <time>2026-03-24T09:48:53.695Z</time>
      </trkpt>
      <trkpt lat="43.748225" lon="-1.281563">
        <ele>28.607854</ele>
        <time>2026-03-24T09:48:56.409Z</time>
      </trkpt>
      <trkpt lat="43.748361" lon="-1.281888">
        <ele>28.271537</ele>
        <time>2026-03-24T09:49:01.052Z</time>
      </trkpt>
      <trkpt lat="43.748497" lon="-1.282064">
        <ele>28.040767</ele>
        <time>2026-03-24T09:49:04.239Z</time>
      </trkpt>
      <trkpt lat="43.748749" lon="-1.282273">
        <ele>27.676630</ele>
        <time>2026-03-24T09:49:09.508Z</time>
      </trkpt>
      <trkpt lat="43.749214" lon="-1.282553">
        <ele>28.410538</ele>
        <time>2026-03-24T09:49:19.864Z</time>
      </trkpt>
      <trkpt lat="43.749531" lon="-1.282628">
        <ele>28.894857</ele>
        <time>2026-03-24T09:49:27.343Z</time>
      </trkpt>
      <trkpt lat="43.749855" lon="-1.282656">
        <ele>29.383746</ele>
        <time>2026-03-24T09:49:35.521Z</time>
      </trkpt>
      <trkpt lat="43.750374" lon="-1.282849">
        <ele>30.193061</ele>
        <time>2026-03-24T09:49:49.721Z</time>
      </trkpt>
      <trkpt lat="43.751048" lon="-1.283100">
        <ele>30.891935</ele>
        <time>2026-03-24T09:50:07.293Z</time>
      </trkpt>
      <trkpt lat="43.752132" lon="-1.283305">
        <ele>31.874209</ele>
        <time>2026-03-24T09:50:29.640Z</time>
      </trkpt>
      <trkpt lat="43.752685" lon="-1.283344">
        <ele>31.576308</ele>
        <time>2026-03-24T09:50:39.371Z</time>
      </trkpt>
      <trkpt lat="43.753193" lon="-1.283418">
        <ele>31.086803</ele>
        <time>2026-03-24T09:50:48.209Z</time>
      </trkpt>
      <trkpt lat="43.753215" lon="-1.283427">
        <ele>31.064820</ele>
        <time>2026-03-24T09:50:48.598Z</time>
      </trkpt>
      <trkpt lat="43.753513" lon="-1.283542">
        <ele>30.768359</ele>
        <time>2026-03-24T09:50:53.905Z</time>
      </trkpt>
      <trkpt lat="43.754014" lon="-1.283637">
        <ele>30.283767</ele>
        <time>2026-03-24T09:51:02.643Z</time>
      </trkpt>
      <trkpt lat="43.754852" lon="-1.283471">
        <ele>29.807723</ele>
        <time>2026-03-24T09:51:17.789Z</time>
      </trkpt>
      <trkpt lat="43.755369" lon="-1.283224">
        <ele>29.505818</ele>
        <time>2026-03-24T09:51:27.908Z</time>
      </trkpt>
      <trkpt lat="43.755419" lon="-1.283108">
        <ele>29.451957</ele>
        <time>2026-03-24T09:51:29.729Z</time>
      </trkpt>
      <trkpt lat="43.755944" lon="-1.282799">
        <ele>29.217810</ele>
        <time>2026-03-24T09:51:40.448Z</time>
      </trkpt>
      <trkpt lat="43.756596" lon="-1.283051">
        <ele>29.070672</ele>
        <time>2026-03-24T09:51:53.220Z</time>
      </trkpt>
      <trkpt lat="43.757316" lon="-1.283225">
        <ele>28.911807</ele>
        <time>2026-03-24T09:52:06.814Z</time>
      </trkpt>
      <trkpt lat="43.757915" lon="-1.283463">
        <ele>28.493937</ele>
        <time>2026-03-24T09:52:18.243Z</time>
      </trkpt>
      <trkpt lat="43.758163" lon="-1.283459">
        <ele>28.292156</ele>
        <time>2026-03-24T09:52:22.713Z</time>
      </trkpt>
      <trkpt lat="43.758543" lon="-1.283466">
        <ele>27.982968</ele>
        <time>2026-03-24T09:52:28.263Z</time>
      </trkpt>
      <trkpt lat="43.758946" lon="-1.283420">
        <ele>27.653983</ele>
        <time>2026-03-24T09:52:34.055Z</time>
      </trkpt>
      <trkpt lat="43.759055" lon="-1.283477">
        <ele>27.559188</ele>
        <time>2026-03-24T09:52:35.713Z</time>
      </trkpt>
      <trkpt lat="43.759536" lon="-1.284030">
        <ele>27.010428</ele>
        <time>2026-03-24T09:52:44.564Z</time>
      </trkpt>
      <trkpt lat="43.759624" lon="-1.284067">
        <ele>26.927393</ele>
        <time>2026-03-24T09:52:45.877Z</time>
      </trkpt>
      <trkpt lat="43.760286" lon="-1.284129">
        <ele>26.328333</ele>
        <time>2026-03-24T09:52:55.475Z</time>
      </trkpt>
      <trkpt lat="43.760592" lon="-1.284158">
        <ele>26.051411</ele>
        <time>2026-03-24T09:53:00.043Z</time>
      </trkpt>
      <trkpt lat="43.760685" lon="-1.283056">
        <ele>25.510894</ele>
        <time>2026-03-24T09:53:07.655Z</time>
      </trkpt>
      <trkpt lat="43.760806" lon="-1.283008">
        <ele>25.442052</ele>
        <time>2026-03-24T09:53:09.062Z</time>
      </trkpt>
      <trkpt lat="43.761094" lon="-1.282800">
        <ele>25.264394</ele>
        <time>2026-03-24T09:53:12.704Z</time>
      </trkpt>
      <trkpt lat="43.761197" lon="-1.282700">
        <ele>25.195590</ele>
        <time>2026-03-24T09:53:14.107Z</time>
      </trkpt>
      <trkpt lat="43.761363" lon="-1.282467">
        <ele>25.066307</ele>
        <time>2026-03-24T09:53:16.712Z</time>
      </trkpt>
      <trkpt lat="43.761463" lon="-1.282378">
        <ele>25.001289</ele>
        <time>2026-03-24T09:53:18.025Z</time>
      </trkpt>
      <trkpt lat="43.761736" lon="-1.282229">
        <ele>24.840795</ele>
        <time>2026-03-24T09:53:21.230Z</time>
      </trkpt>
      <trkpt lat="43.762389" lon="-1.281664">
        <ele>24.072771</ele>
        <time>2026-03-24T09:53:29.497Z</time>
      </trkpt>
      <trkpt lat="43.762607" lon="-1.281535">
        <ele>23.827381</ele>
        <time>2026-03-24T09:53:31.972Z</time>
      </trkpt>
      <trkpt lat="43.762883" lon="-1.281399">
        <ele>23.524148</ele>
        <time>2026-03-24T09:53:35.024Z</time>
      </trkpt>
      <trkpt lat="43.763289" lon="-1.281254">
        <ele>23.090151</ele>
        <time>2026-03-24T09:53:39.345Z</time>
      </trkpt>
      <trkpt lat="43.763624" lon="-1.281192">
        <ele>22.662039</ele>
        <time>2026-03-24T09:53:42.784Z</time>
      </trkpt>
      <trkpt lat="43.763835" lon="-1.281293">
        <ele>22.343251</ele>
        <time>2026-03-24T09:53:45.018Z</time>
      </trkpt>
      <trkpt lat="43.764843" lon="-1.282017">
        <ele>20.721782</ele>
        <time>2026-03-24T09:53:56.424Z</time>
      </trkpt>
      <trkpt lat="43.765187" lon="-1.282212">
        <ele>20.212109</ele>
        <time>2026-03-24T09:54:00.260Z</time>
      </trkpt>
      <trkpt lat="43.765436" lon="-1.282296">
        <ele>19.887399</ele>
        <time>2026-03-24T09:54:02.906Z</time>
      </trkpt>
      <trkpt lat="43.766279" lon="-1.282468">
        <ele>18.807786</ele>
        <time>2026-03-24T09:54:11.677Z</time>
      </trkpt>
      <trkpt lat="43.766437" lon="-1.282527">
        <ele>18.600449</ele>
        <time>2026-03-24T09:54:13.362Z</time>
      </trkpt>
      <trkpt lat="43.767029" lon="-1.283067">
        <ele>17.717064</ele>
        <time>2026-03-24T09:54:20.610Z</time>
      </trkpt>
      <trkpt lat="43.767130" lon="-1.283185">
        <ele>17.555871</ele>
        <time>2026-03-24T09:54:21.945Z</time>
      </trkpt>
      <trkpt lat="43.767803" lon="-1.284443">
        <ele>16.176761</ele>
        <time>2026-03-24T09:54:33.812Z</time>
      </trkpt>
      <trkpt lat="43.768311" lon="-1.285122">
        <ele>14.921683</ele>
        <time>2026-03-24T09:54:40.960Z</time>
      </trkpt>
      <trkpt lat="43.768563" lon="-1.285309">
        <ele>14.340072</ele>
        <time>2026-03-24T09:54:43.718Z</time>
      </trkpt>
      <trkpt lat="43.769572" lon="-1.285815">
        <ele>12.188005</ele>
        <time>2026-03-24T09:54:53.788Z</time>
      </trkpt>
      <trkpt lat="43.769812" lon="-1.285992">
        <ele>11.826732</ele>
        <time>2026-03-24T09:54:56.322Z</time>
      </trkpt>
      <trkpt lat="43.770126" lon="-1.286223">
        <ele>11.354326</ele>
        <time>2026-03-24T09:54:59.744Z</time>
      </trkpt>
      <trkpt lat="43.770820" lon="-1.286688">
        <ele>10.329997</ele>
        <time>2026-03-24T09:55:07.844Z</time>
      </trkpt>
      <trkpt lat="43.770918" lon="-1.286724">
        <ele>10.195287</ele>
        <time>2026-03-24T09:55:08.959Z</time>
      </trkpt>
      <trkpt lat="43.771336" lon="-1.286665">
        <ele>9.839855</ele>
        <time>2026-03-24T09:55:13.702Z</time>
      </trkpt>
      <trkpt lat="43.771651" lon="-1.286795">
        <ele>9.806493</ele>
        <time>2026-03-24T09:55:17.575Z</time>
      </trkpt>
      <trkpt lat="43.771740" lon="-1.286792">
        <ele>9.797458</ele>
        <time>2026-03-24T09:55:18.668Z</time>
      </trkpt>
      <trkpt lat="43.771867" lon="-1.286763">
        <ele>9.784393</ele>
        <time>2026-03-24T09:55:20.269Z</time>
      </trkpt>
      <trkpt lat="43.772202" lon="-1.286552">
        <ele>9.747040</ele>
        <time>2026-03-24T09:55:24.913Z</time>
      </trkpt>
      <trkpt lat="43.772345" lon="-1.286519">
        <ele>9.732326</ele>
        <time>2026-03-24T09:55:26.694Z</time>
      </trkpt>
      <trkpt lat="43.772657" lon="-1.286510">
        <ele>9.700652</ele>
        <time>2026-03-24T09:55:30.506Z</time>
      </trkpt>
      <trkpt lat="43.772900" lon="-1.286533">
        <ele>9.675931</ele>
        <time>2026-03-24T09:55:35.214Z</time>
      </trkpt>
      <trkpt lat="43.773781" lon="-1.286814">
        <ele>8.893689</ele>
        <time>2026-03-24T09:55:51.453Z</time>
      </trkpt>
      <trkpt lat="43.773968" lon="-1.286808">
        <ele>8.728890</ele>
        <time>2026-03-24T09:55:54.651Z</time>
      </trkpt>
      <trkpt lat="43.774050" lon="-1.286782">
        <ele>8.654775</ele>
        <time>2026-03-24T09:55:56.071Z</time>
      </trkpt>
      <trkpt lat="43.774050" lon="-1.286782">
        <ele>8.654775</ele>
        <time>2026-03-24T09:55:56.079Z</time>
      </trkpt>
      <trkpt lat="43.774050" lon="-1.286782">
        <ele>8.654775</ele>
        <time>2026-03-24T09:55:56.079Z</time>
      </trkpt>
      <trkpt lat="43.774650" lon="-1.286708">
        <ele>8.124059</ele>
        <time>2026-03-24T09:56:08.961Z</time>
      </trkpt>
      <trkpt lat="43.775210" lon="-1.286633">
        <ele>7.863425</ele>
        <time>2026-03-24T09:56:20.992Z</time>
      </trkpt>
      <trkpt lat="43.775682" lon="-1.286992">
        <ele>7.630878</ele>
        <time>2026-03-24T09:56:32.507Z</time>
      </trkpt>
      <trkpt lat="43.775877" lon="-1.286779">
        <ele>7.523629</ele>
        <time>2026-03-24T09:56:37.314Z</time>
      </trkpt>
      <trkpt lat="43.776203" lon="-1.286264">
        <ele>7.317049</ele>
        <time>2026-03-24T09:56:47.102Z</time>
      </trkpt>
      <trkpt lat="43.776274" lon="-1.286185">
        <ele>7.383701</ele>
        <time>2026-03-24T09:56:48.948Z</time>
      </trkpt>
      <trkpt lat="43.776941" lon="-1.285759">
        <ele>7.921236</ele>
        <time>2026-03-24T09:57:04.189Z</time>
      </trkpt>
      <trkpt lat="43.777863" lon="-1.285254">
        <ele>8.641208</ele>
        <time>2026-03-24T09:57:25.712Z</time>
      </trkpt>
      <trkpt lat="43.778609" lon="-1.285032">
        <ele>9.023811</ele>
        <time>2026-03-24T09:57:41.899Z</time>
      </trkpt>
      <trkpt lat="43.778702" lon="-1.285018">
        <ele>9.070719</ele>
        <time>2026-03-24T09:57:43.817Z</time>
      </trkpt>
      <trkpt lat="43.778778" lon="-1.284982">
        <ele>9.110994</ele>
        <time>2026-03-24T09:57:45.460Z</time>
      </trkpt>
      <trkpt lat="43.778934" lon="-1.285000">
        <ele>9.189488</ele>
        <time>2026-03-24T09:57:48.603Z</time>
      </trkpt>
      <trkpt lat="43.779319" lon="-1.285219">
        <ele>9.398186</ele>
        <time>2026-03-24T09:57:56.843Z</time>
      </trkpt>
      <trkpt lat="43.779367" lon="-1.285256">
        <ele>9.425731</ele>
        <time>2026-03-24T09:57:57.911Z</time>
      </trkpt>
      <trkpt lat="43.779466" lon="-1.285333">
        <ele>9.482664</ele>
        <time>2026-03-24T09:58:00.119Z</time>
      </trkpt>
      <trkpt lat="43.779699" lon="-1.285577">
        <ele>9.456728</ele>
        <time>2026-03-24T09:58:05.697Z</time>
      </trkpt>
      <trkpt lat="43.780252" lon="-1.286239">
        <ele>9.180279</ele>
        <time>2026-03-24T09:58:19.331Z</time>
      </trkpt>
      <trkpt lat="43.780788" lon="-1.286940">
        <ele>8.901462</ele>
        <time>2026-03-24T09:58:32.648Z</time>
      </trkpt>
      <trkpt lat="43.780965" lon="-1.287269">
        <ele>8.777610</ele>
        <time>2026-03-24T09:58:37.936Z</time>
      </trkpt>
      <trkpt lat="43.781798" lon="-1.288060">
        <ele>8.321841</ele>
        <time>2026-03-24T09:58:56.144Z</time>
      </trkpt>
      <trkpt lat="43.781912" lon="-1.288182">
        <ele>8.256829</ele>
        <time>2026-03-24T09:58:58.824Z</time>
      </trkpt>
      <trkpt lat="43.781975" lon="-1.288323">
        <ele>8.202805</ele>
        <time>2026-03-24T09:59:01.054Z</time>
      </trkpt>
      <trkpt lat="43.782014" lon="-1.288414">
        <ele>8.168326</ele>
        <time>2026-03-24T09:59:02.488Z</time>
      </trkpt>
      <trkpt lat="43.782148" lon="-1.288723">
        <ele>8.050886</ele>
        <time>2026-03-24T09:59:07.409Z</time>
      </trkpt>
      <trkpt lat="43.782281" lon="-1.288895">
        <ele>8.044104</ele>
        <time>2026-03-24T09:59:10.872Z</time>
      </trkpt>
      <trkpt lat="43.782847" lon="-1.289443">
        <ele>8.067201</ele>
        <time>2026-03-24T09:59:24.190Z</time>
      </trkpt>
      <trkpt lat="43.782868" lon="-1.289477">
        <ele>8.068281</ele>
        <time>2026-03-24T09:59:24.812Z</time>
      </trkpt>
      <trkpt lat="43.782914" lon="-1.289549">
        <ele>8.070603</ele>
        <time>2026-03-24T09:59:26.161Z</time>
      </trkpt>
      <trkpt lat="43.782966" lon="-1.289729">
        <ele>8.075284</ele>
        <time>2026-03-24T09:59:28.867Z</time>
      </trkpt>
      <trkpt lat="43.782998" lon="-1.289944">
        <ele>8.080585</ele>
        <time>2026-03-24T09:59:31.910Z</time>
      </trkpt>
      <trkpt lat="43.783019" lon="-1.290379">
        <ele>8.091112</ele>
        <time>2026-03-24T09:59:37.945Z</time>
      </trkpt>
      <trkpt lat="43.782985" lon="-1.290804">
        <ele>8.093865</ele>
        <time>2026-03-24T09:59:43.843Z</time>
      </trkpt>
      <trkpt lat="43.782902" lon="-1.291142">
        <ele>8.074989</ele>
        <time>2026-03-24T09:59:48.753Z</time>
      </trkpt>
      <trkpt lat="43.782859" lon="-1.291709">
        <ele>8.044848</ele>
        <time>2026-03-24T09:59:56.559Z</time>
      </trkpt>
      <trkpt lat="43.782927" lon="-1.291958">
        <ele>8.030773</ele>
        <time>2026-03-24T10:00:00.191Z</time>
      </trkpt>
      <trkpt lat="43.782937" lon="-1.292148">
        <ele>8.020701</ele>
        <time>2026-03-24T10:00:02.773Z</time>
      </trkpt>
      <trkpt lat="43.783037" lon="-1.292774">
        <ele>7.986804</ele>
        <time>2026-03-24T10:00:11.532Z</time>
      </trkpt>
      <trkpt lat="43.783008" lon="-1.293603">
        <ele>7.824246</ele>
        <time>2026-03-24T10:00:22.917Z</time>
      </trkpt>
      <trkpt lat="43.782996" lon="-1.293867">
        <ele>7.742307</ele>
        <time>2026-03-24T10:00:26.516Z</time>
      </trkpt>
      <trkpt lat="43.782843" lon="-1.294730">
        <ele>7.467041</ele>
        <time>2026-03-24T10:00:38.292Z</time>
      </trkpt>
      <trkpt lat="43.782735" lon="-1.295118">
        <ele>7.338230</ele>
        <time>2026-03-24T10:00:43.669Z</time>
      </trkpt>
      <trkpt lat="43.782615" lon="-1.295902">
        <ele>7.093205</ele>
        <time>2026-03-24T10:00:54.049Z</time>
      </trkpt>
      <trkpt lat="43.782534" lon="-1.296075">
        <ele>7.031284</ele>
        <time>2026-03-24T10:00:55.616Z</time>
      </trkpt>
      <trkpt lat="43.782523" lon="-1.296237">
        <ele>6.982419</ele>
        <time>2026-03-24T10:00:56.854Z</time>
      </trkpt>
      <trkpt lat="43.782516" lon="-1.296351">
        <ele>6.948061</ele>
        <time>2026-03-24T10:00:57.733Z</time>
      </trkpt>
      <trkpt lat="43.782571" lon="-1.296523">
        <ele>6.891569</ele>
        <time>2026-03-24T10:00:59.183Z</time>
      </trkpt>
      <trkpt lat="43.782682" lon="-1.296642">
        <ele>6.833184</ele>
        <time>2026-03-24T10:01:00.699Z</time>
      </trkpt>
      <trkpt lat="43.782737" lon="-1.296782">
        <ele>6.785320</ele>
        <time>2026-03-24T10:01:01.937Z</time>
      </trkpt>
      <trkpt lat="43.782775" lon="-1.297002">
        <ele>6.717388</ele>
        <time>2026-03-24T10:01:03.739Z</time>
      </trkpt>
      <trkpt lat="43.782763" lon="-1.297384">
        <ele>6.602564</ele>
        <time>2026-03-24T10:01:06.853Z</time>
      </trkpt>
      <trkpt lat="43.783065" lon="-1.297458">
        <ele>6.474996</ele>
        <time>2026-03-24T10:01:10.221Z</time>
      </trkpt>
      <trkpt lat="43.783655" lon="-1.297546">
        <ele>6.918974</ele>
        <time>2026-03-24T10:01:17.263Z</time>
      </trkpt>
      <trkpt lat="43.783763" lon="-1.297563">
        <ele>7.016168</ele>
        <time>2026-03-24T10:01:18.642Z</time>
      </trkpt>
      <trkpt lat="43.784092" lon="-1.297619">
        <ele>7.312568</ele>
        <time>2026-03-24T10:01:23.129Z</time>
      </trkpt>
      <trkpt lat="43.784369" lon="-1.297678">
        <ele>7.563169</ele>
        <time>2026-03-24T10:01:27.034Z</time>
      </trkpt>
      <trkpt lat="43.785269" lon="-1.297921">
        <ele>8.103594</ele>
        <time>2026-03-24T10:01:39.241Z</time>
      </trkpt>
      <trkpt lat="43.785419" lon="-1.297946">
        <ele>8.123319</ele>
        <time>2026-03-24T10:01:41.053Z</time>
      </trkpt>
      <trkpt lat="43.785701" lon="-1.297936">
        <ele>8.160149</ele>
        <time>2026-03-24T10:01:44.295Z</time>
      </trkpt>
      <trkpt lat="43.786042" lon="-1.297895">
        <ele>8.204837</ele>
        <time>2026-03-24T10:01:47.806Z</time>
      </trkpt>
      <trkpt lat="43.786227" lon="-1.297873">
        <ele>8.229079</ele>
        <time>2026-03-24T10:01:49.607Z</time>
      </trkpt>
      <trkpt lat="43.786546" lon="-1.297822">
        <ele>8.271004</ele>
        <time>2026-03-24T10:01:52.603Z</time>
      </trkpt>
      <trkpt lat="43.786346" lon="-1.298143">
        <ele>8.140555</ele>
        <time>2026-03-24T10:01:58.029Z</time>
      </trkpt>
      <trkpt lat="43.786325" lon="-1.298248">
        <ele>8.064745</ele>
        <time>2026-03-24T10:01:59.414Z</time>
      </trkpt>
      <trkpt lat="43.786348" lon="-1.298318">
        <ele>8.011232</ele>
        <time>2026-03-24T10:02:00.390Z</time>
      </trkpt>
      <trkpt lat="43.786446" lon="-1.298455">
        <ele>7.877039</ele>
        <time>2026-03-24T10:02:02.835Z</time>
      </trkpt>
      <trkpt lat="43.786598" lon="-1.298825">
        <ele>7.580834</ele>
        <time>2026-03-24T10:02:08.190Z</time>
      </trkpt>
      <trkpt lat="43.786734" lon="-1.299157">
        <ele>7.315236</ele>
        <time>2026-03-24T10:02:12.981Z</time>
      </trkpt>
      <trkpt lat="43.786991" lon="-1.299540">
        <ele>6.951412</ele>
        <time>2026-03-24T10:02:19.536Z</time>
      </trkpt>
      <trkpt lat="43.787477" lon="-1.300477">
        <ele>6.566206</ele>
        <time>2026-03-24T10:02:34.219Z</time>
      </trkpt>
      <trkpt lat="43.787623" lon="-1.300899">
        <ele>6.573457</ele>
        <time>2026-03-24T10:02:40.482Z</time>
      </trkpt>
      <trkpt lat="43.787665" lon="-1.301014">
        <ele>6.575454</ele>
        <time>2026-03-24T10:02:42.235Z</time>
      </trkpt>
      <trkpt lat="43.787783" lon="-1.301153">
        <ele>6.578779</ele>
        <time>2026-03-24T10:02:45.248Z</time>
      </trkpt>
      <trkpt lat="43.788015" lon="-1.301353">
        <ele>6.584644</ele>
        <time>2026-03-24T10:02:50.733Z</time>
      </trkpt>
      <trkpt lat="43.788633" lon="-1.302029">
        <ele>6.730376</ele>
        <time>2026-03-24T10:03:07.518Z</time>
      </trkpt>
      <trkpt lat="43.788777" lon="-1.302274">
        <ele>6.843442</ele>
        <time>2026-03-24T10:03:12.616Z</time>
      </trkpt>
      <trkpt lat="43.788881" lon="-1.302382">
        <ele>6.907878</ele>
        <time>2026-03-24T10:03:15.474Z</time>
      </trkpt>
      <trkpt lat="43.789041" lon="-1.302603">
        <ele>7.019891</ele>
        <time>2026-03-24T10:03:20.357Z</time>
      </trkpt>
      <trkpt lat="43.789457" lon="-1.303180">
        <ele>7.311730</ele>
        <time>2026-03-24T10:03:32.170Z</time>
      </trkpt>
      <trkpt lat="43.789558" lon="-1.303375">
        <ele>7.397619</ele>
        <time>2026-03-24T10:03:35.456Z</time>
      </trkpt>
      <trkpt lat="43.789564" lon="-1.303490">
        <ele>7.438882</ele>
        <time>2026-03-24T10:03:37.013Z</time>
      </trkpt>
      <trkpt lat="43.789848" lon="-1.303856">
        <ele>7.418027</ele>
        <time>2026-03-24T10:03:44.225Z</time>
      </trkpt>
      <trkpt lat="43.789885" lon="-1.304305">
        <ele>7.340019</ele>
        <time>2026-03-24T10:03:50.249Z</time>
      </trkpt>
      <trkpt lat="43.789910" lon="-1.304463">
        <ele>7.312099</ele>
        <time>2026-03-24T10:03:52.405Z</time>
      </trkpt>
      <trkpt lat="43.789973" lon="-1.304861">
        <ele>7.241766</ele>
        <time>2026-03-24T10:03:57.855Z</time>
      </trkpt>
      <trkpt lat="43.790169" lon="-1.305598">
        <ele>7.106192</ele>
        <time>2026-03-24T10:04:08.432Z</time>
      </trkpt>
      <trkpt lat="43.790290" lon="-1.305910">
        <ele>7.058025</ele>
        <time>2026-03-24T10:04:13.218Z</time>
      </trkpt>
      <trkpt lat="43.790366" lon="-1.306000">
        <ele>7.059444</ele>
        <time>2026-03-24T10:04:15.097Z</time>
      </trkpt>
      <trkpt lat="43.790445" lon="-1.306104">
        <ele>7.060990</ele>
        <time>2026-03-24T10:04:17.125Z</time>
      </trkpt>
      <trkpt lat="43.790672" lon="-1.306702">
        <ele>7.067912</ele>
        <time>2026-03-24T10:04:26.211Z</time>
      </trkpt>
      <trkpt lat="43.791224" lon="-1.307565">
        <ele>7.079724</ele>
        <time>2026-03-24T10:04:41.943Z</time>
      </trkpt>
      <trkpt lat="43.791399" lon="-1.307725">
        <ele>7.082699</ele>
        <time>2026-03-24T10:04:46.173Z</time>
      </trkpt>
      <trkpt lat="43.791445" lon="-1.307745">
        <ele>7.115160</ele>
        <time>2026-03-24T10:04:47.182Z</time>
      </trkpt>
      <trkpt lat="43.791642" lon="-1.307833">
        <ele>7.284681</ele>
        <time>2026-03-24T10:04:51.560Z</time>
      </trkpt>
      <trkpt lat="43.791845" lon="-1.307918">
        <ele>7.458364</ele>
        <time>2026-03-24T10:04:56.173Z</time>
      </trkpt>
      <trkpt lat="43.791971" lon="-1.307773">
        <ele>7.592517</ele>
        <time>2026-03-24T10:04:58.705Z</time>
      </trkpt>
      <trkpt lat="43.792191" lon="-1.307624">
        <ele>7.793074</ele>
        <time>2026-03-24T10:05:02.513Z</time>
      </trkpt>
      <trkpt lat="43.792313" lon="-1.307561">
        <ele>7.899706</ele>
        <time>2026-03-24T10:05:04.526Z</time>
      </trkpt>
      <trkpt lat="43.792541" lon="-1.307513">
        <ele>8.088579</ele>
        <time>2026-03-24T10:05:07.935Z</time>
      </trkpt>
      <trkpt lat="43.793076" lon="-1.307554">
        <ele>8.527406</ele>
        <time>2026-03-24T10:05:15.464Z</time>
      </trkpt>
      <trkpt lat="43.793232" lon="-1.307803">
        <ele>8.630528</ele>
        <time>2026-03-24T10:05:20.241Z</time>
      </trkpt>
      <trkpt lat="43.793752" lon="-1.308628">
        <ele>8.920909</ele>
        <time>2026-03-24T10:05:35.208Z</time>
      </trkpt>
      <trkpt lat="43.794224" lon="-1.309555">
        <ele>9.241100</ele>
        <time>2026-03-24T10:05:51.417Z</time>
      </trkpt>
      <trkpt lat="43.794536" lon="-1.309771">
        <ele>9.852137</ele>
        <time>2026-03-24T10:05:59.432Z</time>
      </trkpt>
      <trkpt lat="43.794700" lon="-1.309979">
        <ele>10.241662</ele>
        <time>2026-03-24T10:06:04.791Z</time>
      </trkpt>
      <trkpt lat="43.794737" lon="-1.310027">
        <ele>10.330465</ele>
        <time>2026-03-24T10:06:06.037Z</time>
      </trkpt>
      <trkpt lat="43.794886" lon="-1.310367">
        <ele>10.833448</ele>
        <time>2026-03-24T10:06:13.228Z</time>
      </trkpt>
      <trkpt lat="43.795092" lon="-1.311043">
        <ele>11.761338</ele>
        <time>2026-03-24T10:06:26.859Z</time>
      </trkpt>
      <trkpt lat="43.795533" lon="-1.312071">
        <ele>12.651709</ele>
        <time>2026-03-24T10:06:47.223Z</time>
      </trkpt>
      <trkpt lat="43.796885" lon="-1.313667">
        <ele>13.824283</ele>
        <time>2026-03-24T10:07:21.054Z</time>
      </trkpt>
      <trkpt lat="43.797047" lon="-1.313878">
        <ele>14.034790</ele>
        <time>2026-03-24T10:07:25.506Z</time>
      </trkpt>
      <trkpt lat="43.797177" lon="-1.314553">
        <ele>14.512192</ele>
        <time>2026-03-24T10:07:36.466Z</time>
      </trkpt>
      <trkpt lat="43.797188" lon="-1.315321">
        <ele>15.037111</ele>
        <time>2026-03-24T10:07:49.867Z</time>
      </trkpt>
      <trkpt lat="43.797406" lon="-1.316055">
        <ele>15.892243</ele>
        <time>2026-03-24T10:08:03.896Z</time>
      </trkpt>
      <trkpt lat="43.797502" lon="-1.316381">
        <ele>16.277336</ele>
        <time>2026-03-24T10:08:09.990Z</time>
      </trkpt>
      <trkpt lat="43.797648" lon="-1.316451">
        <ele>16.511445</ele>
        <time>2026-03-24T10:08:13.632Z</time>
      </trkpt>
      <trkpt lat="43.797473" lon="-1.317305">
        <ele>17.482413</ele>
        <time>2026-03-24T10:08:22.528Z</time>
      </trkpt>
      <trkpt lat="43.798060" lon="-1.317493">
        <ele>18.079468</ele>
        <time>2026-03-24T10:08:31.080Z</time>
      </trkpt>
      <trkpt lat="43.798079" lon="-1.317548">
        <ele>18.111685</ele>
        <time>2026-03-24T10:08:31.693Z</time>
      </trkpt>
      <trkpt lat="43.798007" lon="-1.318124">
        <ele>18.420554</ele>
        <time>2026-03-24T10:08:37.734Z</time>
      </trkpt>
      <trkpt lat="43.798092" lon="-1.318132">
        <ele>18.482920</ele>
        <time>2026-03-24T10:08:38.990Z</time>
      </trkpt>
      <trkpt lat="43.799048" lon="-1.318745">
        <ele>18.977926</ele>
        <time>2026-03-24T10:08:53.412Z</time>
      </trkpt>
      <trkpt lat="43.799196" lon="-1.318779">
        <ele>18.889742</ele>
        <time>2026-03-24T10:08:55.241Z</time>
      </trkpt>
      <trkpt lat="43.800440" lon="-1.318830">
        <ele>18.158180</ele>
        <time>2026-03-24T10:09:08.437Z</time>
      </trkpt>
      <trkpt lat="43.800534" lon="-1.318881">
        <ele>18.098840</ele>
        <time>2026-03-24T10:09:10.175Z</time>
      </trkpt>
      <trkpt lat="43.800622" lon="-1.319098">
        <ele>18.025738</ele>
        <time>2026-03-24T10:09:13.286Z</time>
      </trkpt>
      <trkpt lat="43.800719" lon="-1.319468">
        <ele>17.966428</ele>
        <time>2026-03-24T10:09:18.280Z</time>
      </trkpt>
      <trkpt lat="43.800805" lon="-1.319639">
        <ele>17.935026</ele>
        <time>2026-03-24T10:09:20.963Z</time>
      </trkpt>
      <trkpt lat="43.800906" lon="-1.319727">
        <ele>17.910120</ele>
        <time>2026-03-24T10:09:23.109Z</time>
      </trkpt>
      <trkpt lat="43.800998" lon="-1.319744">
        <ele>17.890745</ele>
        <time>2026-03-24T10:09:24.805Z</time>
      </trkpt>
      <trkpt lat="43.801085" lon="-1.319710">
        <ele>17.871875</ele>
        <time>2026-03-24T10:09:26.435Z</time>
      </trkpt>
      <trkpt lat="43.801492" lon="-1.319607">
        <ele>17.785508</ele>
        <time>2026-03-24T10:09:34.191Z</time>
      </trkpt>
      <trkpt lat="43.802431" lon="-1.319302">
        <ele>17.888784</ele>
        <time>2026-03-24T10:09:54.225Z</time>
      </trkpt>
      <trkpt lat="43.803558" lon="-1.318936">
        <ele>18.523495</ele>
        <time>2026-03-24T10:10:18.292Z</time>
      </trkpt>
      <trkpt lat="43.803970" lon="-1.318589">
        <ele>18.840359</ele>
        <time>2026-03-24T10:10:27.907Z</time>
      </trkpt>
      <trkpt lat="43.804079" lon="-1.318404">
        <ele>18.972042</ele>
        <time>2026-03-24T10:10:31.312Z</time>
      </trkpt>
      <trkpt lat="43.804277" lon="-1.318186">
        <ele>19.165257</ele>
        <time>2026-03-24T10:10:36.317Z</time>
      </trkpt>
      <trkpt lat="43.804447" lon="-1.318097">
        <ele>19.304099</ele>
        <time>2026-03-24T10:10:39.967Z</time>
      </trkpt>
      <trkpt lat="43.804955" lon="-1.318052">
        <ele>19.693004</ele>
        <time>2026-03-24T10:10:50.719Z</time>
      </trkpt>
      <trkpt lat="43.805396" lon="-1.317873">
        <ele>20.062739</ele>
        <time>2026-03-24T10:11:01.007Z</time>
      </trkpt>
      <trkpt lat="43.805606" lon="-1.317882">
        <ele>20.416272</ele>
        <time>2026-03-24T10:11:05.959Z</time>
      </trkpt>
      <trkpt lat="43.805817" lon="-1.318212">
        <ele>20.951675</ele>
        <time>2026-03-24T10:11:10.829Z</time>
      </trkpt>
      <trkpt lat="43.806064" lon="-1.318444">
        <ele>21.453788</ele>
        <time>2026-03-24T10:11:15.614Z</time>
      </trkpt>
      <trkpt lat="43.806108" lon="-1.318518">
        <ele>21.570223</ele>
        <time>2026-03-24T10:11:16.736Z</time>
      </trkpt>
      <trkpt lat="43.806393" lon="-1.319121">
        <ele>22.445549</ele>
        <time>2026-03-24T10:11:25.293Z</time>
      </trkpt>
      <trkpt lat="43.806902" lon="-1.320201">
        <ele>23.276258</ele>
        <time>2026-03-24T10:11:37.553Z</time>
      </trkpt>
      <trkpt lat="43.807539" lon="-1.321551">
        <ele>23.728922</ele>
        <time>2026-03-24T10:11:49.252Z</time>
      </trkpt>
      <trkpt lat="43.807567" lon="-1.321678">
        <ele>23.763523</ele>
        <time>2026-03-24T10:11:50.185Z</time>
      </trkpt>
      <trkpt lat="43.807989" lon="-1.323552">
        <ele>24.187900</ele>
        <time>2026-03-24T10:12:06.313Z</time>
      </trkpt>
      <trkpt lat="43.808509" lon="-1.324301">
        <ele>24.192265</ele>
        <time>2026-03-24T10:12:14.748Z</time>
      </trkpt>
      <trkpt lat="43.808566" lon="-1.324487">
        <ele>24.155216</ele>
        <time>2026-03-24T10:12:16.236Z</time>
      </trkpt>
      <trkpt lat="43.809036" lon="-1.326019">
        <ele>23.850013</ele>
        <time>2026-03-24T10:12:27.667Z</time>
      </trkpt>
      <trkpt lat="43.809116" lon="-1.327948">
        <ele>23.268230</ele>
        <time>2026-03-24T10:12:40.625Z</time>
      </trkpt>
      <trkpt lat="43.809358" lon="-1.329721">
        <ele>23.145581</ele>
        <time>2026-03-24T10:12:54.287Z</time>
      </trkpt>
      <trkpt lat="43.809380" lon="-1.329815">
        <ele>23.151607</ele>
        <time>2026-03-24T10:12:55.101Z</time>
      </trkpt>
      <trkpt lat="43.809656" lon="-1.330989">
        <ele>23.223481</ele>
        <time>2026-03-24T10:13:05.042Z</time>
      </trkpt>
      <trkpt lat="43.811008" lon="-1.336699">
        <ele>21.751175</ele>
        <time>2026-03-24T10:13:46.584Z</time>
      </trkpt>
      <trkpt lat="43.811361" lon="-1.337817">
        <ele>21.659685</ele>
        <time>2026-03-24T10:13:55.288Z</time>
      </trkpt>
      <trkpt lat="43.811526" lon="-1.338342">
        <ele>22.145820</ele>
        <time>2026-03-24T10:13:59.916Z</time>
      </trkpt>
      <trkpt lat="43.812162" lon="-1.339538">
        <ele>24.371929</ele>
        <time>2026-03-24T10:14:16.225Z</time>
      </trkpt>
      <trkpt lat="43.812488" lon="-1.340153">
        <ele>25.580073</ele>
        <time>2026-03-24T10:14:27.015Z</time>
      </trkpt>
      <trkpt lat="43.812743" lon="-1.340368">
        <ele>26.489324</ele>
        <time>2026-03-24T10:14:33.717Z</time>
      </trkpt>
      <trkpt lat="43.812974" lon="-1.340216">
        <ele>27.268288</ele>
        <time>2026-03-24T10:14:39.535Z</time>
      </trkpt>
      <trkpt lat="43.813191" lon="-1.339999">
        <ele>28.083441</ele>
        <time>2026-03-24T10:14:45.402Z</time>
      </trkpt>
      <trkpt lat="43.813402" lon="-1.339879">
        <ele>28.778207</ele>
        <time>2026-03-24T10:14:49.961Z</time>
      </trkpt>
      <trkpt lat="43.813568" lon="-1.339975">
        <ele>29.326138</ele>
        <time>2026-03-24T10:14:53.322Z</time>
      </trkpt>
      <trkpt lat="43.813684" lon="-1.340131">
        <ele>29.818526</ele>
        <time>2026-03-24T10:14:56.151Z</time>
      </trkpt>
      <trkpt lat="43.813709" lon="-1.339985">
        <ele>30.148362</ele>
        <time>2026-03-24T10:14:58.114Z</time>
      </trkpt>
      <trkpt lat="43.813826" lon="-1.339700">
        <ele>30.854961</ele>
        <time>2026-03-24T10:15:02.178Z</time>
      </trkpt>
      <trkpt lat="43.815218" lon="-1.337751">
        <ele>30.383086</ele>
        <time>2026-03-24T10:15:24.139Z</time>
      </trkpt>
      <trkpt lat="43.815895" lon="-1.336938">
        <ele>29.630107</ele>
        <time>2026-03-24T10:15:33.625Z</time>
      </trkpt>
      <trkpt lat="43.817375" lon="-1.335485">
        <ele>28.088089</ele>
        <time>2026-03-24T10:15:52.907Z</time>
      </trkpt>
      <trkpt lat="43.818729" lon="-1.334217">
        <ele>27.021245</ele>
        <time>2026-03-24T10:16:10.590Z</time>
      </trkpt>
      <trkpt lat="43.819603" lon="-1.333433">
        <ele>26.570748</ele>
        <time>2026-03-24T10:16:22.550Z</time>
      </trkpt>
      <trkpt lat="43.819832" lon="-1.333248">
        <ele>26.543997</ele>
        <time>2026-03-24T10:16:25.682Z</time>
      </trkpt>
      <trkpt lat="43.822353" lon="-1.331216">
        <ele>26.354604</ele>
        <time>2026-03-24T10:16:59.990Z</time>
      </trkpt>
      <trkpt lat="43.822426" lon="-1.331139">
        <ele>26.351532</ele>
        <time>2026-03-24T10:17:01.151Z</time>
      </trkpt>
      <trkpt lat="43.822596" lon="-1.331091">
        <ele>26.344176</ele>
        <time>2026-03-24T10:17:03.356Z</time>
      </trkpt>
      <trkpt lat="43.822946" lon="-1.329621">
        <ele>26.230539</ele>
        <time>2026-03-24T10:17:15.143Z</time>
      </trkpt>
      <trkpt lat="43.823671" lon="-1.326704">
        <ele>25.751619</ele>
        <time>2026-03-24T10:17:36.337Z</time>
      </trkpt>
      <trkpt lat="43.823814" lon="-1.326343">
        <ele>25.752387</ele>
        <time>2026-03-24T10:17:39.670Z</time>
      </trkpt>
      <trkpt lat="43.824238" lon="-1.325616">
        <ele>26.390043</ele>
        <time>2026-03-24T10:17:48.216Z</time>
      </trkpt>
      <trkpt lat="43.824905" lon="-1.324424">
        <ele>27.403651</ele>
        <time>2026-03-24T10:18:03.280Z</time>
      </trkpt>
      <trkpt lat="43.824989" lon="-1.324075">
        <ele>27.516109</ele>
        <time>2026-03-24T10:18:06.699Z</time>
      </trkpt>
      <trkpt lat="43.825006" lon="-1.323784">
        <ele>27.605349</ele>
        <time>2026-03-24T10:18:09.315Z</time>
      </trkpt>
      <trkpt lat="43.824905" lon="-1.323237">
        <ele>27.777937</ele>
        <time>2026-03-24T10:18:14.131Z</time>
      </trkpt>
      <trkpt lat="43.824758" lon="-1.322592">
        <ele>27.984695</ele>
        <time>2026-03-24T10:18:19.489Z</time>
      </trkpt>
      <trkpt lat="43.824334" lon="-1.320724">
        <ele>27.548885</ele>
        <time>2026-03-24T10:18:33.363Z</time>
      </trkpt>
      <trkpt lat="43.824262" lon="-1.320166">
        <ele>27.305383</ele>
        <time>2026-03-24T10:18:37.090Z</time>
      </trkpt>
      <trkpt lat="43.824164" lon="-1.318946">
        <ele>26.331586</ele>
        <time>2026-03-24T10:18:44.778Z</time>
      </trkpt>
      <trkpt lat="43.824124" lon="-1.318673">
        <ele>26.036302</ele>
        <time>2026-03-24T10:18:46.471Z</time>
      </trkpt>
      <trkpt lat="43.823619" lon="-1.316116">
        <ele>23.484555</ele>
        <time>2026-03-24T10:19:02.572Z</time>
      </trkpt>
      <trkpt lat="43.823321" lon="-1.314723">
        <ele>22.389320</ele>
        <time>2026-03-24T10:19:12.002Z</time>
      </trkpt>
      <trkpt lat="43.823304" lon="-1.314640">
        <ele>22.413651</ele>
        <time>2026-03-24T10:19:12.613Z</time>
      </trkpt>
      <trkpt lat="43.823182" lon="-1.314379">
        <ele>22.501353</ele>
        <time>2026-03-24T10:19:14.865Z</time>
      </trkpt>
      <trkpt lat="43.823077" lon="-1.314225">
        <ele>22.561106</ele>
        <time>2026-03-24T10:19:16.468Z</time>
      </trkpt>
      <trkpt lat="43.823172" lon="-1.314206">
        <ele>22.598624</ele>
        <time>2026-03-24T10:19:17.667Z</time>
      </trkpt>
      <trkpt lat="43.823466" lon="-1.314285">
        <ele>22.715680</ele>
        <time>2026-03-24T10:19:21.533Z</time>
      </trkpt>
      <trkpt lat="43.824042" lon="-1.314486">
        <ele>22.947848</ele>
        <time>2026-03-24T10:19:29.842Z</time>
      </trkpt>
      <trkpt lat="43.824236" lon="-1.314603">
        <ele>23.030544</ele>
        <time>2026-03-24T10:19:33.005Z</time>
      </trkpt>
      <trkpt lat="43.824356" lon="-1.314628">
        <ele>23.100973</ele>
        <time>2026-03-24T10:19:34.834Z</time>
      </trkpt>
      <trkpt lat="43.824537" lon="-1.314628">
        <ele>23.278988</ele>
        <time>2026-03-24T10:19:37.561Z</time>
      </trkpt>
      <trkpt lat="43.824724" lon="-1.314554">
        <ele>23.470253</ele>
        <time>2026-03-24T10:19:40.513Z</time>
      </trkpt>
      <trkpt lat="43.824851" lon="-1.314442">
        <ele>23.618298</ele>
        <time>2026-03-24T10:19:42.801Z</time>
      </trkpt>
      <trkpt lat="43.825123" lon="-1.314010">
        <ele>24.025146</ele>
        <time>2026-03-24T10:19:49.040Z</time>
      </trkpt>
      <trkpt lat="43.825420" lon="-1.313614">
        <ele>24.430456</ele>
        <time>2026-03-24T10:19:55.074Z</time>
      </trkpt>
      <trkpt lat="43.825448" lon="-1.313511">
        <ele>24.508557</ele>
        <time>2026-03-24T10:19:56.212Z</time>
      </trkpt>
      <trkpt lat="43.825349" lon="-1.312839">
        <ele>24.949555</ele>
        <time>2026-03-24T10:20:03.118Z</time>
      </trkpt>
      <trkpt lat="43.825279" lon="-1.312046">
        <ele>25.358037</ele>
        <time>2026-03-24T10:20:10.757Z</time>
      </trkpt>
      <trkpt lat="43.825300" lon="-1.311860">
        <ele>25.454296</ele>
        <time>2026-03-24T10:20:12.635Z</time>
      </trkpt>
      <trkpt lat="43.825364" lon="-1.311713">
        <ele>25.542082</ele>
        <time>2026-03-24T10:20:14.368Z</time>
      </trkpt>
      <trkpt lat="43.825544" lon="-1.311512">
        <ele>25.705896</ele>
        <time>2026-03-24T10:20:17.656Z</time>
      </trkpt>
      <trkpt lat="43.825696" lon="-1.311247">
        <ele>25.878993</ele>
        <time>2026-03-24T10:20:21.105Z</time>
      </trkpt>
      <trkpt lat="43.825716" lon="-1.310606">
        <ele>26.125209</ele>
        <time>2026-03-24T10:20:30.881Z</time>
      </trkpt>
      <trkpt lat="43.825769" lon="-1.310067">
        <ele>26.176977</ele>
        <time>2026-03-24T10:20:39.047Z</time>
      </trkpt>
      <trkpt lat="43.825831" lon="-1.309678">
        <ele>26.214889</ele>
        <time>2026-03-24T10:20:44.998Z</time>
      </trkpt>
      <trkpt lat="43.825935" lon="-1.309399">
        <ele>26.244775</ele>
        <time>2026-03-24T10:20:49.541Z</time>
      </trkpt>
      <trkpt lat="43.826036" lon="-1.309265">
        <ele>26.263217</ele>
        <time>2026-03-24T10:20:52.205Z</time>
      </trkpt>
      <trkpt lat="43.826868" lon="-1.308890">
        <ele>26.284893</ele>
        <time>2026-03-24T10:21:07.922Z</time>
      </trkpt>
      <trkpt lat="43.826918" lon="-1.308766">
        <ele>26.262074</ele>
        <time>2026-03-24T10:21:09.735Z</time>
      </trkpt>
      <trkpt lat="43.826982" lon="-1.308085">
        <ele>26.151759</ele>
        <time>2026-03-24T10:21:18.662Z</time>
      </trkpt>
      <trkpt lat="43.827030" lon="-1.307970">
        <ele>26.130417</ele>
        <time>2026-03-24T10:21:20.442Z</time>
      </trkpt>
      <trkpt lat="43.827137" lon="-1.307817">
        <ele>26.096188</ele>
        <time>2026-03-24T10:21:23.314Z</time>
      </trkpt>
      <trkpt lat="43.827519" lon="-1.307649">
        <ele>26.006954</ele>
        <time>2026-03-24T10:21:31.067Z</time>
      </trkpt>
      <trkpt lat="43.827686" lon="-1.307575">
        <ele>25.967917</ele>
        <time>2026-03-24T10:21:34.563Z</time>
      </trkpt>
      <trkpt lat="43.828038" lon="-1.307516">
        <ele>26.083786</ele>
        <time>2026-03-24T10:21:41.852Z</time>
      </trkpt>
      <trkpt lat="43.828416" lon="-1.307372">
        <ele>26.309665</ele>
        <time>2026-03-24T10:21:50.178Z</time>
      </trkpt>
      <trkpt lat="43.829215" lon="-1.306830">
        <ele>26.822220</ele>
        <time>2026-03-24T10:22:08.898Z</time>
      </trkpt>
      <trkpt lat="43.829410" lon="-1.306602">
        <ele>26.969212</ele>
        <time>2026-03-24T10:22:14.063Z</time>
      </trkpt>
      <trkpt lat="43.829594" lon="-1.306460">
        <ele>27.008737</ele>
        <time>2026-03-24T10:22:18.268Z</time>
      </trkpt>
      <trkpt lat="43.830093" lon="-1.306277">
        <ele>27.086743</ele>
        <time>2026-03-24T10:22:28.461Z</time>
      </trkpt>
      <trkpt lat="43.830536" lon="-1.306039">
        <ele>27.158543</ele>
        <time>2026-03-24T10:22:37.616Z</time>
      </trkpt>
      <trkpt lat="43.830997" lon="-1.305977">
        <ele>27.228539</ele>
        <time>2026-03-24T10:22:46.418Z</time>
      </trkpt>
      <trkpt lat="43.831372" lon="-1.305784">
        <ele>27.198791</ele>
        <time>2026-03-24T10:22:53.974Z</time>
      </trkpt>
      <trkpt lat="43.831605" lon="-1.305619">
        <ele>27.143282</ele>
        <time>2026-03-24T10:22:58.945Z</time>
      </trkpt>
      <trkpt lat="43.831835" lon="-1.305457">
        <ele>27.088548</ele>
        <time>2026-03-24T10:23:03.851Z</time>
      </trkpt>
      <trkpt lat="43.832208" lon="-1.305279">
        <ele>27.004856</ele>
        <time>2026-03-24T10:23:11.204Z</time>
      </trkpt>
      <trkpt lat="43.832459" lon="-1.305009">
        <ele>26.937452</ele>
        <time>2026-03-24T10:23:17.029Z</time>
      </trkpt>
      <trkpt lat="43.832607" lon="-1.304810">
        <ele>26.893709</ele>
        <time>2026-03-24T10:23:20.826Z</time>
      </trkpt>
      <trkpt lat="43.832661" lon="-1.304494">
        <ele>26.824812</ele>
        <time>2026-03-24T10:23:25.137Z</time>
      </trkpt>
      <trkpt lat="43.832717" lon="-1.304317">
        <ele>26.773276</ele>
        <time>2026-03-24T10:23:27.708Z</time>
      </trkpt>
      <trkpt lat="43.832810" lon="-1.304158">
        <ele>26.718695</ele>
        <time>2026-03-24T10:23:30.422Z</time>
      </trkpt>
      <trkpt lat="43.832940" lon="-1.304048">
        <ele>26.662398</ele>
        <time>2026-03-24T10:23:33.230Z</time>
      </trkpt>
      <trkpt lat="43.833143" lon="-1.303948">
        <ele>26.582766</ele>
        <time>2026-03-24T10:23:37.190Z</time>
      </trkpt>
      <trkpt lat="43.833760" lon="-1.303675">
        <ele>26.343367</ele>
        <time>2026-03-24T10:23:48.977Z</time>
      </trkpt>
      <trkpt lat="43.834700" lon="-1.303107">
        <ele>26.251520</ele>
        <time>2026-03-24T10:24:08.359Z</time>
      </trkpt>
      <trkpt lat="43.834872" lon="-1.302906">
        <ele>26.267580</ele>
        <time>2026-03-24T10:24:12.675Z</time>
      </trkpt>
      <trkpt lat="43.834942" lon="-1.302876">
        <ele>26.272811</ele>
        <time>2026-03-24T10:24:14.074Z</time>
      </trkpt>
      <trkpt lat="43.835690" lon="-1.302714">
        <ele>26.326859</ele>
        <time>2026-03-24T10:24:28.690Z</time>
      </trkpt>
      <trkpt lat="43.836720" lon="-1.302490">
        <ele>26.963797</ele>
        <time>2026-03-24T10:24:50.220Z</time>
      </trkpt>
      <trkpt lat="43.837316" lon="-1.302332">
        <ele>27.366250</ele>
        <time>2026-03-24T10:25:03.110Z</time>
      </trkpt>
      <trkpt lat="43.837395" lon="-1.302286">
        <ele>27.423080</ele>
        <time>2026-03-24T10:25:04.938Z</time>
      </trkpt>
      <trkpt lat="43.837455" lon="-1.302206">
        <ele>27.478292</ele>
        <time>2026-03-24T10:25:06.723Z</time>
      </trkpt>
      <trkpt lat="43.837494" lon="-1.302098">
        <ele>27.534175</ele>
        <time>2026-03-24T10:25:08.572Z</time>
      </trkpt>
      <trkpt lat="43.837533" lon="-1.301905">
        <ele>27.611307</ele>
        <time>2026-03-24T10:25:11.690Z</time>
      </trkpt>
      <trkpt lat="43.837571" lon="-1.301406">
        <ele>27.804406</ele>
        <time>2026-03-24T10:25:19.583Z</time>
      </trkpt>
      <trkpt lat="43.837628" lon="-1.301256">
        <ele>27.869651</ele>
        <time>2026-03-24T10:25:22.185Z</time>
      </trkpt>
      <trkpt lat="43.837736" lon="-1.301098">
        <ele>27.953420</ele>
        <time>2026-03-24T10:25:25.474Z</time>
      </trkpt>
      <trkpt lat="43.838026" lon="-1.300851">
        <ele>28.135006</ele>
        <time>2026-03-24T10:25:32.369Z</time>
      </trkpt>
      <trkpt lat="43.838127" lon="-1.300696">
        <ele>28.215390</ele>
        <time>2026-03-24T10:25:35.366Z</time>
      </trkpt>
      <trkpt lat="43.838266" lon="-1.300484">
        <ele>28.325642</ele>
        <time>2026-03-24T10:25:39.424Z</time>
      </trkpt>
      <trkpt lat="43.838388" lon="-1.300339">
        <ele>28.411376</ele>
        <time>2026-03-24T10:25:42.516Z</time>
      </trkpt>
      <trkpt lat="43.838798" lon="-1.300006">
        <ele>28.535457</ele>
        <time>2026-03-24T10:25:51.608Z</time>
      </trkpt>
      <trkpt lat="43.839313" lon="-1.299218">
        <ele>28.648609</ele>
        <time>2026-03-24T10:26:06.685Z</time>
      </trkpt>
      <trkpt lat="43.839440" lon="-1.299065">
        <ele>28.673430</ele>
        <time>2026-03-24T10:26:10.069Z</time>
      </trkpt>
      <trkpt lat="43.839602" lon="-1.298947">
        <ele>28.700427</ele>
        <time>2026-03-24T10:26:13.681Z</time>
      </trkpt>
      <trkpt lat="43.840392" lon="-1.298494">
        <ele>28.211129</ele>
        <time>2026-03-24T10:26:30.104Z</time>
      </trkpt>
      <trkpt lat="43.840783" lon="-1.298271">
        <ele>27.763144</ele>
        <time>2026-03-24T10:26:37.835Z</time>
      </trkpt>
      <trkpt lat="43.842002" lon="-1.297579">
        <ele>25.943858</ele>
        <time>2026-03-24T10:26:59.526Z</time>
      </trkpt>
      <trkpt lat="43.842168" lon="-1.297611">
        <ele>25.608938</ele>
        <time>2026-03-24T10:27:02.174Z</time>
      </trkpt>
      <trkpt lat="43.842916" lon="-1.297900">
        <ele>24.057208</ele>
        <time>2026-03-24T10:27:14.616Z</time>
      </trkpt>
      <trkpt lat="43.843193" lon="-1.298008">
        <ele>23.482191</ele>
        <time>2026-03-24T10:27:19.378Z</time>
      </trkpt>
      <trkpt lat="43.843636" lon="-1.298123">
        <ele>23.261014</ele>
        <time>2026-03-24T10:27:27.227Z</time>
      </trkpt>
      <trkpt lat="43.844180" lon="-1.299356">
        <ele>23.291668</ele>
        <time>2026-03-24T10:27:40.440Z</time>
      </trkpt>
      <trkpt lat="43.845293" lon="-1.300181">
        <ele>24.077201</ele>
        <time>2026-03-24T10:27:58.505Z</time>
      </trkpt>
      <trkpt lat="43.845405" lon="-1.300264">
        <ele>24.193951</ele>
        <time>2026-03-24T10:28:00.313Z</time>
      </trkpt>
      <trkpt lat="43.845722" lon="-1.300568">
        <ele>24.548298</ele>
        <time>2026-03-24T10:28:05.884Z</time>
      </trkpt>
      <trkpt lat="43.845897" lon="-1.300742">
        <ele>24.746272</ele>
        <time>2026-03-24T10:28:09.085Z</time>
      </trkpt>
      <trkpt lat="43.846127" lon="-1.301143">
        <ele>25.060770</ele>
        <time>2026-03-24T10:28:14.629Z</time>
      </trkpt>
      <trkpt lat="43.846770" lon="-1.301701">
        <ele>25.621167</ele>
        <time>2026-03-24T10:28:25.820Z</time>
      </trkpt>
      <trkpt lat="43.846903" lon="-1.301938">
        <ele>25.781165</ele>
        <time>2026-03-24T10:28:28.919Z</time>
      </trkpt>
      <trkpt lat="43.847080" lon="-1.302143">
        <ele>25.951543</ele>
        <time>2026-03-24T10:28:32.097Z</time>
      </trkpt>
      <trkpt lat="43.847810" lon="-1.302584">
        <ele>26.282534</ele>
        <time>2026-03-24T10:28:41.936Z</time>
      </trkpt>
      <trkpt lat="43.847897" lon="-1.302636">
        <ele>26.281462</ele>
        <time>2026-03-24T10:28:43.027Z</time>
      </trkpt>
      <trkpt lat="43.848162" lon="-1.302748">
        <ele>26.278326</ele>
        <time>2026-03-24T10:28:46.183Z</time>
      </trkpt>
      <trkpt lat="43.849503" lon="-1.303450">
        <ele>26.033717</ele>
        <time>2026-03-24T10:29:03.206Z</time>
      </trkpt>
      <trkpt lat="43.850214" lon="-1.303748">
        <ele>25.539945</ele>
        <time>2026-03-24T10:29:11.566Z</time>
      </trkpt>
      <trkpt lat="43.850942" lon="-1.304089">
        <ele>25.009009</ele>
        <time>2026-03-24T10:29:19.523Z</time>
      </trkpt>
      <trkpt lat="43.851150" lon="-1.304252">
        <ele>24.772719</ele>
        <time>2026-03-24T10:29:21.920Z</time>
      </trkpt>
      <trkpt lat="43.851252" lon="-1.304314">
        <ele>24.662574</ele>
        <time>2026-03-24T10:29:23.033Z</time>
      </trkpt>
      <trkpt lat="43.851694" lon="-1.304414">
        <ele>24.219653</ele>
        <time>2026-03-24T10:29:27.544Z</time>
      </trkpt>
      <trkpt lat="43.853078" lon="-1.304269">
        <ele>23.214494</ele>
        <time>2026-03-24T10:29:42.795Z</time>
      </trkpt>
      <trkpt lat="43.854003" lon="-1.304110">
        <ele>23.054811</ele>
        <time>2026-03-24T10:29:54.018Z</time>
      </trkpt>
      <trkpt lat="43.854647" lon="-1.304048">
        <ele>22.986637</ele>
        <time>2026-03-24T10:30:01.722Z</time>
      </trkpt>
      <trkpt lat="43.854969" lon="-1.304048">
        <ele>22.991262</ele>
        <time>2026-03-24T10:30:05.440Z</time>
      </trkpt>
      <trkpt lat="43.855374" lon="-1.304097">
        <ele>22.997101</ele>
        <time>2026-03-24T10:30:10.069Z</time>
      </trkpt>
      <trkpt lat="43.856007" lon="-1.304206">
        <ele>23.006263</ele>
        <time>2026-03-24T10:30:17.628Z</time>
      </trkpt>
      <trkpt lat="43.856230" lon="-1.304245">
        <ele>23.016877</ele>
        <time>2026-03-24T10:30:20.498Z</time>
      </trkpt>
      <trkpt lat="43.856511" lon="-1.304271">
        <ele>23.120058</ele>
        <time>2026-03-24T10:30:24.311Z</time>
      </trkpt>
      <trkpt lat="43.857616" lon="-1.304237">
        <ele>23.525003</ele>
        <time>2026-03-24T10:30:39.671Z</time>
      </trkpt>
      <trkpt lat="43.859415" lon="-1.304110">
        <ele>23.246556</ele>
        <time>2026-03-24T10:30:59.969Z</time>
      </trkpt>
      <trkpt lat="43.861288" lon="-1.303794">
        <ele>23.047463</ele>
        <time>2026-03-24T10:31:21.772Z</time>
      </trkpt>
      <trkpt lat="43.861776" lon="-1.303794">
        <ele>23.054945</ele>
        <time>2026-03-24T10:31:28.564Z</time>
      </trkpt>
      <trkpt lat="43.862336" lon="-1.303852">
        <ele>23.126930</ele>
        <time>2026-03-24T10:31:35.817Z</time>
      </trkpt>
      <trkpt lat="43.862587" lon="-1.303885">
        <ele>23.159249</ele>
        <time>2026-03-24T10:31:38.898Z</time>
      </trkpt>
      <trkpt lat="43.863312" lon="-1.303986">
        <ele>23.252653</ele>
        <time>2026-03-24T10:31:47.455Z</time>
      </trkpt>
      <trkpt lat="43.863643" lon="-1.303995">
        <ele>23.187143</ele>
        <time>2026-03-24T10:31:51.258Z</time>
      </trkpt>
      <trkpt lat="43.864832" lon="-1.303795">
        <ele>22.848769</ele>
        <time>2026-03-24T10:32:05.134Z</time>
      </trkpt>
      <trkpt lat="43.864965" lon="-1.303773">
        <ele>22.810928</ele>
        <time>2026-03-24T10:32:06.669Z</time>
      </trkpt>
      <trkpt lat="43.865214" lon="-1.303697">
        <ele>22.712801</ele>
        <time>2026-03-24T10:32:09.509Z</time>
      </trkpt>
      <trkpt lat="43.865409" lon="-1.303537">
        <ele>22.532420</ele>
        <time>2026-03-24T10:32:11.639Z</time>
      </trkpt>
      <trkpt lat="43.865561" lon="-1.303449">
        <ele>22.401285</ele>
        <time>2026-03-24T10:32:13.154Z</time>
      </trkpt>
      <trkpt lat="43.865849" lon="-1.303282">
        <ele>22.152761</ele>
        <time>2026-03-24T10:32:15.964Z</time>
      </trkpt>
      <trkpt lat="43.866197" lon="-1.303065">
        <ele>21.848988</ele>
        <time>2026-03-24T10:32:19.329Z</time>
      </trkpt>
      <trkpt lat="43.866631" lon="-1.302869">
        <ele>21.485602</ele>
        <time>2026-03-24T10:32:23.436Z</time>
      </trkpt>
      <trkpt lat="43.868390" lon="-1.302089">
        <ele>20.355950</ele>
        <time>2026-03-24T10:32:40.761Z</time>
      </trkpt>
      <trkpt lat="43.869087" lon="-1.301830">
        <ele>20.021297</ele>
        <time>2026-03-24T10:32:47.689Z</time>
      </trkpt>
      <trkpt lat="43.869842" lon="-1.301506">
        <ele>19.682488</ele>
        <time>2026-03-24T10:32:55.372Z</time>
      </trkpt>
      <trkpt lat="43.870005" lon="-1.301457">
        <ele>19.610986</ele>
        <time>2026-03-24T10:32:56.967Z</time>
      </trkpt>
      <trkpt lat="43.870071" lon="-1.301437">
        <ele>19.582024</ele>
        <time>2026-03-24T10:32:57.614Z</time>
      </trkpt>
      <trkpt lat="43.870677" lon="-1.301343">
        <ele>19.305205</ele>
        <time>2026-03-24T10:33:03.365Z</time>
      </trkpt>
      <trkpt lat="43.871754" lon="-1.301226">
        <ele>18.800365</ele>
        <time>2026-03-24T10:33:13.654Z</time>
      </trkpt>
      <trkpt lat="43.871871" lon="-1.301146">
        <ele>18.739407</ele>
        <time>2026-03-24T10:33:14.897Z</time>
      </trkpt>
      <trkpt lat="43.872090" lon="-1.301289">
        <ele>18.628159</ele>
        <time>2026-03-24T10:33:17.222Z</time>
      </trkpt>
      <trkpt lat="43.872125" lon="-1.301354">
        <ele>18.602881</ele>
        <time>2026-03-24T10:33:17.789Z</time>
      </trkpt>
      <trkpt lat="43.872193" lon="-1.301320">
        <ele>18.571640</ele>
        <time>2026-03-24T10:33:18.476Z</time>
      </trkpt>
      <trkpt lat="43.872422" lon="-1.300608">
        <ele>18.328725</ele>
        <time>2026-03-24T10:33:23.845Z</time>
      </trkpt>
      <trkpt lat="43.872439" lon="-1.300555">
        <ele>18.310651</ele>
        <time>2026-03-24T10:33:24.238Z</time>
      </trkpt>
      <trkpt lat="43.872486" lon="-1.300527">
        <ele>18.288543</ele>
        <time>2026-03-24T10:33:24.817Z</time>
      </trkpt>
      <trkpt lat="43.872540" lon="-1.300549">
        <ele>18.264219</ele>
        <time>2026-03-24T10:33:25.454Z</time>
      </trkpt>
      <trkpt lat="43.872560" lon="-1.300506">
        <ele>18.248275</ele>
        <time>2026-03-24T10:33:25.863Z</time>
      </trkpt>
      <trkpt lat="43.872700" lon="-1.300615">
        <ele>18.178887</ele>
        <time>2026-03-24T10:33:27.398Z</time>
      </trkpt>
      <trkpt lat="43.872970" lon="-1.300722">
        <ele>18.057523</ele>
        <time>2026-03-24T10:33:30.063Z</time>
      </trkpt>
      <trkpt lat="43.873010" lon="-1.300710">
        <ele>18.039836</ele>
        <time>2026-03-24T10:33:30.457Z</time>
      </trkpt>
      <trkpt lat="43.873087" lon="-1.300504">
        <ele>17.967538</ele>
        <time>2026-03-24T10:33:32.045Z</time>
      </trkpt>
      <trkpt lat="43.873192" lon="-1.300220">
        <ele>17.877136</ele>
        <time>2026-03-24T10:33:34.255Z</time>
      </trkpt>
      <trkpt lat="43.873374" lon="-1.299892">
        <ele>17.954679</ele>
        <time>2026-03-24T10:33:37.170Z</time>
      </trkpt>
      <trkpt lat="43.873440" lon="-1.299749">
        <ele>17.986489</ele>
        <time>2026-03-24T10:33:38.382Z</time>
      </trkpt>
      <trkpt lat="43.873485" lon="-1.299651">
        <ele>18.008256</ele>
        <time>2026-03-24T10:33:39.225Z</time>
      </trkpt>
      <trkpt lat="43.873500" lon="-1.299501">
        <ele>18.036626</ele>
        <time>2026-03-24T10:33:40.326Z</time>
      </trkpt>
      <trkpt lat="43.873542" lon="-1.299451">
        <ele>18.051009</ele>
        <time>2026-03-24T10:33:40.902Z</time>
      </trkpt>
      <trkpt lat="43.873628" lon="-1.299444">
        <ele>18.073397</ele>
        <time>2026-03-24T10:33:41.797Z</time>
      </trkpt>
      <trkpt lat="43.873689" lon="-1.299510">
        <ele>18.093501</ele>
        <time>2026-03-24T10:33:42.629Z</time>
      </trkpt>
      <trkpt lat="43.873707" lon="-1.299591">
        <ele>18.109380</ele>
        <time>2026-03-24T10:33:43.290Z</time>
      </trkpt>
      <trkpt lat="43.873705" lon="-1.299608">
        <ele>18.112607</ele>
        <time>2026-03-24T10:33:43.425Z</time>
      </trkpt>
      <trkpt lat="43.873687" lon="-1.299683">
        <ele>18.127416</ele>
        <time>2026-03-24T10:33:44.058Z</time>
      </trkpt>
      <trkpt lat="43.873760" lon="-1.300021">
        <ele>18.193517</ele>
        <time>2026-03-24T10:33:47.036Z</time>
      </trkpt>
      <trkpt lat="43.873821" lon="-1.300140">
        <ele>18.220872</ele>
        <time>2026-03-24T10:33:48.323Z</time>
      </trkpt>
      <trkpt lat="43.874192" lon="-1.300850">
        <ele>18.423996</ele>
        <time>2026-03-24T10:33:56.365Z</time>
      </trkpt>
      <trkpt lat="43.874258" lon="-1.300977">
        <ele>18.479232</ele>
        <time>2026-03-24T10:33:57.802Z</time>
      </trkpt>
      <trkpt lat="43.874285" lon="-1.301017">
        <ele>18.498565</ele>
        <time>2026-03-24T10:33:58.297Z</time>
      </trkpt>
      <trkpt lat="43.874462" lon="-1.300967">
        <ele>18.586969</ele>
        <time>2026-03-24T10:34:00.532Z</time>
      </trkpt>
      <trkpt lat="43.874551" lon="-1.300941">
        <ele>18.631483</ele>
        <time>2026-03-24T10:34:01.649Z</time>
      </trkpt>
      <trkpt lat="43.874713" lon="-1.300895">
        <ele>18.712412</ele>
        <time>2026-03-24T10:34:03.590Z</time>
      </trkpt>
      <trkpt lat="43.874860" lon="-1.300937">
        <ele>18.785866</ele>
        <time>2026-03-24T10:34:05.297Z</time>
      </trkpt>
      <trkpt lat="43.874990" lon="-1.301001">
        <ele>18.853378</ele>
        <time>2026-03-24T10:34:06.796Z</time>
      </trkpt>
      <trkpt lat="43.875262" lon="-1.301130">
        <ele>18.994064</ele>
        <time>2026-03-24T10:34:10.085Z</time>
      </trkpt>
      <trkpt lat="43.875394" lon="-1.301225">
        <ele>19.066844</ele>
        <time>2026-03-24T10:34:11.786Z</time>
      </trkpt>
      <trkpt lat="43.875960" lon="-1.301635">
        <ele>19.028998</ele>
        <time>2026-03-24T10:34:18.683Z</time>
      </trkpt>
      <trkpt lat="43.876104" lon="-1.301706">
        <ele>18.937827</ele>
        <time>2026-03-24T10:34:20.203Z</time>
      </trkpt>
      <trkpt lat="43.876635" lon="-1.301932">
        <ele>18.606477</ele>
        <time>2026-03-24T10:34:25.494Z</time>
      </trkpt>
      <trkpt lat="43.876881" lon="-1.302077">
        <ele>18.447025</ele>
        <time>2026-03-24T10:34:28.024Z</time>
      </trkpt>
      <trkpt lat="43.877148" lon="-1.302326">
        <ele>18.255096</ele>
        <time>2026-03-24T10:34:30.896Z</time>
      </trkpt>
      <trkpt lat="43.877220" lon="-1.302401">
        <ele>18.201383</ele>
        <time>2026-03-24T10:34:31.670Z</time>
      </trkpt>
      <trkpt lat="43.877290" lon="-1.302473">
        <ele>18.149398</ele>
        <time>2026-03-24T10:34:32.415Z</time>
      </trkpt>
      <trkpt lat="43.877377" lon="-1.302595">
        <ele>17.980572</ele>
        <time>2026-03-24T10:34:33.460Z</time>
      </trkpt>
      <trkpt lat="43.877432" lon="-1.302590">
        <ele>17.904794</ele>
        <time>2026-03-24T10:34:33.914Z</time>
      </trkpt>
      <trkpt lat="43.877519" lon="-1.302635">
        <ele>17.777141</ele>
        <time>2026-03-24T10:34:34.678Z</time>
      </trkpt>
      <trkpt lat="43.877680" lon="-1.302501">
        <ele>17.519015</ele>
        <time>2026-03-24T10:34:36.190Z</time>
      </trkpt>
      <trkpt lat="43.877792" lon="-1.302445">
        <ele>17.355338</ele>
        <time>2026-03-24T10:34:37.145Z</time>
      </trkpt>
      <trkpt lat="43.877920" lon="-1.302396">
        <ele>17.172784</ele>
        <time>2026-03-24T10:34:38.203Z</time>
      </trkpt>
      <trkpt lat="43.877963" lon="-1.302380">
        <ele>17.111577</ele>
        <time>2026-03-24T10:34:38.566Z</time>
      </trkpt>
      <trkpt lat="43.878162" lon="-1.302300">
        <ele>16.826731</ele>
        <time>2026-03-24T10:34:40.258Z</time>
      </trkpt>
      <trkpt lat="43.878280" lon="-1.302254">
        <ele>16.658218</ele>
        <time>2026-03-24T10:34:41.285Z</time>
      </trkpt>
      <trkpt lat="43.878731" lon="-1.302066">
        <ele>16.010786</ele>
        <time>2026-03-24T10:34:45.418Z</time>
      </trkpt>
      <trkpt lat="43.878828" lon="-1.302031">
        <ele>15.872991</ele>
        <time>2026-03-24T10:34:46.326Z</time>
      </trkpt>
      <trkpt lat="43.879222" lon="-1.301867">
        <ele>15.653270</ele>
        <time>2026-03-24T10:34:50.316Z</time>
      </trkpt>
      <trkpt lat="43.879312" lon="-1.301830">
        <ele>15.645436</ele>
        <time>2026-03-24T10:34:51.253Z</time>
      </trkpt>
      <trkpt lat="43.879915" lon="-1.301588">
        <ele>15.593049</ele>
        <time>2026-03-24T10:34:58.021Z</time>
      </trkpt>
      <trkpt lat="43.880170" lon="-1.301495">
        <ele>15.571045</ele>
        <time>2026-03-24T10:35:01.000Z</time>
      </trkpt>
      <trkpt lat="43.880240" lon="-1.301475">
        <ele>15.565080</ele>
        <time>2026-03-24T10:35:01.809Z</time>
      </trkpt>
      <trkpt lat="43.880272" lon="-1.301388">
        <ele>15.559205</ele>
        <time>2026-03-24T10:35:02.570Z</time>
      </trkpt>
      <trkpt lat="43.880321" lon="-1.301387">
        <ele>15.555115</ele>
        <time>2026-03-24T10:35:03.098Z</time>
      </trkpt>
      <trkpt lat="43.880355" lon="-1.301459">
        <ele>15.549938</ele>
        <time>2026-03-24T10:35:03.777Z</time>
      </trkpt>
      <trkpt lat="43.880498" lon="-1.301503">
        <ele>15.537713</ele>
        <time>2026-03-24T10:35:05.326Z</time>
      </trkpt>
      <trkpt lat="43.881224" lon="-1.301726">
        <ele>14.901810</ele>
        <time>2026-03-24T10:35:12.508Z</time>
      </trkpt>
      <trkpt lat="43.881434" lon="-1.301770">
        <ele>14.680069</ele>
        <time>2026-03-24T10:35:14.433Z</time>
      </trkpt>
      <trkpt lat="43.881651" lon="-1.301762">
        <ele>14.453426</ele>
        <time>2026-03-24T10:35:16.363Z</time>
      </trkpt>
      <trkpt lat="43.881988" lon="-1.301660">
        <ele>14.093299</ele>
        <time>2026-03-24T10:35:19.290Z</time>
      </trkpt>
      <trkpt lat="43.882264" lon="-1.301478">
        <ele>13.774244</ele>
        <time>2026-03-24T10:35:21.831Z</time>
      </trkpt>
      <trkpt lat="43.882607" lon="-1.301176">
        <ele>13.167032</ele>
        <time>2026-03-24T10:35:25.145Z</time>
      </trkpt>
      <trkpt lat="43.882851" lon="-1.300907">
        <ele>12.641413</ele>
        <time>2026-03-24T10:35:27.663Z</time>
      </trkpt>
      <trkpt lat="43.883236" lon="-1.300481">
        <ele>11.810881</ele>
        <time>2026-03-24T10:35:31.655Z</time>
      </trkpt>
      <trkpt lat="43.883424" lon="-1.300273">
        <ele>11.405339</ele>
        <time>2026-03-24T10:35:33.651Z</time>
      </trkpt>
      <trkpt lat="43.883612" lon="-1.300065">
        <ele>10.999797</ele>
        <time>2026-03-24T10:35:35.696Z</time>
      </trkpt>
      <trkpt lat="43.884055" lon="-1.299573">
        <ele>10.463189</ele>
        <time>2026-03-24T10:35:40.814Z</time>
      </trkpt>
      <trkpt lat="43.884473" lon="-1.299126">
        <ele>10.228096</ele>
        <time>2026-03-24T10:35:45.831Z</time>
      </trkpt>
      <trkpt lat="43.884543" lon="-1.299049">
        <ele>10.188303</ele>
        <time>2026-03-24T10:35:46.710Z</time>
      </trkpt>
      <trkpt lat="43.884577" lon="-1.299007">
        <ele>10.168024</ele>
        <time>2026-03-24T10:35:47.160Z</time>
      </trkpt>
      <trkpt lat="43.884761" lon="-1.298755">
        <ele>10.052853</ele>
        <time>2026-03-24T10:35:49.740Z</time>
      </trkpt>
      <trkpt lat="43.885221" lon="-1.297753">
        <ele>9.804679</ele>
        <time>2026-03-24T10:35:58.510Z</time>
      </trkpt>
      <trkpt lat="43.885879" lon="-1.296337">
        <ele>9.773388</ele>
        <time>2026-03-24T10:36:10.952Z</time>
      </trkpt>
      <trkpt lat="43.886119" lon="-1.295866">
        <ele>9.748027</ele>
        <time>2026-03-24T10:36:15.132Z</time>
      </trkpt>
      <trkpt lat="43.887043" lon="-1.294402">
        <ele>9.573873</ele>
        <time>2026-03-24T10:36:29.125Z</time>
      </trkpt>
      <trkpt lat="43.887208" lon="-1.294235">
        <ele>9.548513</ele>
        <time>2026-03-24T10:36:31.218Z</time>
      </trkpt>
      <trkpt lat="43.887376" lon="-1.294065">
        <ele>9.540614</ele>
        <time>2026-03-24T10:36:33.375Z</time>
      </trkpt>
      <trkpt lat="43.887833" lon="-1.295040">
        <ele>9.527624</ele>
        <time>2026-03-24T10:36:52.314Z</time>
      </trkpt>
      <trkpt lat="43.888277" lon="-1.295577">
        <ele>9.518496</ele>
        <time>2026-03-24T10:37:05.465Z</time>
      </trkpt>
      <trkpt lat="43.888857" lon="-1.296125">
        <ele>9.169948</ele>
        <time>2026-03-24T10:37:20.641Z</time>
      </trkpt>
      <trkpt lat="43.889325" lon="-1.296372">
        <ele>8.820733</ele>
        <time>2026-03-24T10:37:31.138Z</time>
      </trkpt>
      <trkpt lat="43.889712" lon="-1.296615">
        <ele>8.524475</ele>
        <time>2026-03-24T10:37:39.949Z</time>
      </trkpt>
      <trkpt lat="43.890413" lon="-1.296737">
        <ele>8.163831</ele>
        <time>2026-03-24T10:37:54.622Z</time>
      </trkpt>
      <trkpt lat="43.890711" lon="-1.297000">
        <ele>8.059527</ele>
        <time>2026-03-24T10:38:02.119Z</time>
      </trkpt>
      <trkpt lat="43.890816" lon="-1.297241">
        <ele>7.999588</ele>
        <time>2026-03-24T10:38:06.511Z</time>
      </trkpt>
      <trkpt lat="43.891275" lon="-1.297732">
        <ele>7.828422</ele>
        <time>2026-03-24T10:38:19.343Z</time>
      </trkpt>
      <trkpt lat="43.891519" lon="-1.298100">
        <ele>7.733915</ele>
        <time>2026-03-24T10:38:27.603Z</time>
      </trkpt>
      <trkpt lat="43.891666" lon="-1.298452">
        <ele>7.782268</ele>
        <time>2026-03-24T10:38:34.397Z</time>
      </trkpt>
      <trkpt lat="43.891639" lon="-1.298867">
        <ele>7.831792</ele>
        <time>2026-03-24T10:38:41.345Z</time>
      </trkpt>
      <trkpt lat="43.891663" lon="-1.299314">
        <ele>7.885065</ele>
        <time>2026-03-24T10:38:48.794Z</time>
      </trkpt>
      <trkpt lat="43.891784" lon="-1.299572">
        <ele>7.921650</ele>
        <time>2026-03-24T10:38:53.832Z</time>
      </trkpt>
      <trkpt lat="43.892123" lon="-1.299605">
        <ele>7.977696</ele>
        <time>2026-03-24T10:39:01.459Z</time>
      </trkpt>
      <trkpt lat="43.892357" lon="-1.299557">
        <ele>8.016707</ele>
        <time>2026-03-24T10:39:06.718Z</time>
      </trkpt>
      <trkpt lat="43.892494" lon="-1.299581">
        <ele>8.016162</ele>
        <time>2026-03-24T10:39:09.758Z</time>
      </trkpt>
      <trkpt lat="43.892896" lon="-1.299500">
        <ele>7.964836</ele>
        <time>2026-03-24T10:39:18.724Z</time>
      </trkpt>
      <trkpt lat="43.893224" lon="-1.299724">
        <ele>7.918646</ele>
        <time>2026-03-24T10:39:26.796Z</time>
      </trkpt>
      <trkpt lat="43.893350" lon="-1.299939">
        <ele>7.893414</ele>
        <time>2026-03-24T10:39:31.207Z</time>
      </trkpt>
      <trkpt lat="43.893464" lon="-1.300573">
        <ele>7.833917</ele>
        <time>2026-03-24T10:39:41.541Z</time>
      </trkpt>
      <trkpt lat="43.893491" lon="-1.301077">
        <ele>7.760500</ele>
        <time>2026-03-24T10:39:49.513Z</time>
      </trkpt>
      <trkpt lat="43.893479" lon="-1.301218">
        <ele>7.715713</ele>
        <time>2026-03-24T10:39:51.740Z</time>
      </trkpt>
      <trkpt lat="43.893738" lon="-1.302909">
        <ele>7.170378</ele>
        <time>2026-03-24T10:40:18.448Z</time>
      </trkpt>
      <trkpt lat="43.893814" lon="-1.303264">
        <ele>7.053557</ele>
        <time>2026-03-24T10:40:24.136Z</time>
      </trkpt>
      <trkpt lat="43.893872" lon="-1.303346">
        <ele>7.017313</ele>
        <time>2026-03-24T10:40:25.897Z</time>
      </trkpt>
      <trkpt lat="43.893897" lon="-1.303355">
        <ele>7.008792</ele>
        <time>2026-03-24T10:40:26.450Z</time>
      </trkpt>
      <trkpt lat="43.893969" lon="-1.303382">
        <ele>6.992164</ele>
        <time>2026-03-24T10:40:28.050Z</time>
      </trkpt>
      <trkpt lat="43.893991" lon="-1.303383">
        <ele>6.987256</ele>
        <time>2026-03-24T10:40:28.282Z</time>
      </trkpt>
      <trkpt lat="43.894023" lon="-1.303373">
        <ele>6.979943</ele>
        <time>2026-03-24T10:40:32.292Z</time>
      </trkpt>
      <trkpt lat="43.894130" lon="-1.303340">
        <ele>6.955506</ele>
        <time>2026-03-24T10:40:34.662Z</time>
      </trkpt>
      <trkpt lat="43.894157" lon="-1.303332">
        <ele>6.949350</ele>
        <time>2026-03-24T10:40:38.025Z</time>
      </trkpt>
      <trkpt lat="43.894209" lon="-1.303289">
        <ele>6.935855</ele>
        <time>2026-03-24T10:40:39.151Z</time>
      </trkpt>
      <trkpt lat="43.894264" lon="-1.303133">
        <ele>6.907953</ele>
        <time>2026-03-24T10:40:41.446Z</time>
      </trkpt>
      <trkpt lat="43.894257" lon="-1.302999">
        <ele>6.886367</ele>
        <time>2026-03-24T10:40:43.240Z</time>
      </trkpt>
      <trkpt lat="43.894139" lon="-1.302259">
        <ele>6.764602</ele>
        <time>2026-03-24T10:40:55.215Z</time>
      </trkpt>
      <trkpt lat="43.894044" lon="-1.301580">
        <ele>6.653475</ele>
        <time>2026-03-24T10:41:06.258Z</time>
      </trkpt>
      <trkpt lat="43.894067" lon="-1.301412">
        <ele>6.626001</ele>
        <time>2026-03-24T10:41:08.992Z</time>
      </trkpt>
      <trkpt lat="43.894150" lon="-1.301151">
        <ele>6.570952</ele>
        <time>2026-03-24T10:41:13.539Z</time>
      </trkpt>
      <trkpt lat="43.894276" lon="-1.301138">
        <ele>6.534276</ele>
        <time>2026-03-24T10:41:14.971Z</time>
      </trkpt>
      <trkpt lat="43.894348" lon="-1.301131">
        <ele>6.513324</ele>
        <time>2026-03-24T10:41:15.787Z</time>
      </trkpt>
      <trkpt lat="43.894542" lon="-1.301174">
        <ele>6.456295</ele>
        <time>2026-03-24T10:41:17.985Z</time>
      </trkpt>
      <trkpt lat="43.895970" lon="-1.301907">
        <ele>5.996106</ele>
        <time>2026-03-24T10:41:34.570Z</time>
      </trkpt>
      <trkpt lat="43.896054" lon="-1.301950">
        <ele>5.963739</ele>
        <time>2026-03-24T10:41:35.543Z</time>
      </trkpt>
      <trkpt lat="43.896099" lon="-1.301973">
        <ele>5.946403</ele>
        <time>2026-03-24T10:41:36.053Z</time>
      </trkpt>
      <trkpt lat="43.897196" lon="-1.302545">
        <ele>5.522756</ele>
        <time>2026-03-24T10:41:48.801Z</time>
      </trkpt>
      <trkpt lat="43.897328" lon="-1.302684">
        <ele>5.462854</ele>
        <time>2026-03-24T10:41:50.634Z</time>
      </trkpt>
      <trkpt lat="43.898082" lon="-1.303883">
        <ele>5.213478</ele>
        <time>2026-03-24T10:42:03.393Z</time>
      </trkpt>
      <trkpt lat="43.898129" lon="-1.303942">
        <ele>5.200269</ele>
        <time>2026-03-24T10:42:04.113Z</time>
      </trkpt>
      <trkpt lat="43.898263" lon="-1.304111">
        <ele>5.162532</ele>
        <time>2026-03-24T10:42:06.169Z</time>
      </trkpt>
      <trkpt lat="43.898570" lon="-1.304618">
        <ele>5.063550</ele>
        <time>2026-03-24T10:42:11.567Z</time>
      </trkpt>
      <trkpt lat="43.899098" lon="-1.305388">
        <ele>5.095492</ele>
        <time>2026-03-24T10:42:20.057Z</time>
      </trkpt>
      <trkpt lat="43.899588" lon="-1.306328">
        <ele>5.130355</ele>
        <time>2026-03-24T10:42:29.959Z</time>
      </trkpt>
      <trkpt lat="43.899624" lon="-1.306396">
        <ele>5.132891</ele>
        <time>2026-03-24T10:42:30.711Z</time>
      </trkpt>
      <trkpt lat="43.899639" lon="-1.306388">
        <ele>5.133561</ele>
        <time>2026-03-24T10:42:30.923Z</time>
      </trkpt>
      <trkpt lat="43.900343" lon="-1.306021">
        <ele>5.621009</ele>
        <time>2026-03-24T10:42:40.581Z</time>
      </trkpt>
      <trkpt lat="43.900365" lon="-1.306088">
        <ele>5.661385</ele>
        <time>2026-03-24T10:42:41.307Z</time>
      </trkpt>
      <trkpt lat="43.900406" lon="-1.306209">
        <ele>5.734707</ele>
        <time>2026-03-24T10:42:42.619Z</time>
      </trkpt>
      <trkpt lat="43.900552" lon="-1.306643">
        <ele>5.997356</ele>
        <time>2026-03-24T10:42:47.459Z</time>
      </trkpt>
      <trkpt lat="43.900745" lon="-1.307019">
        <ele>6.250507</ele>
        <time>2026-03-24T10:42:52.155Z</time>
      </trkpt>
      <trkpt lat="43.901041" lon="-1.307383">
        <ele>6.560930</ele>
        <time>2026-03-24T10:42:57.755Z</time>
      </trkpt>
      <trkpt lat="43.901110" lon="-1.307523">
        <ele>6.673836</ele>
        <time>2026-03-24T10:43:00.809Z</time>
      </trkpt>
      <trkpt lat="43.901236" lon="-1.307657">
        <ele>6.820484</ele>
        <time>2026-03-24T10:43:03.772Z</time>
      </trkpt>
      <trkpt lat="43.901368" lon="-1.307935">
        <ele>7.042101</ele>
        <time>2026-03-24T10:43:08.261Z</time>
      </trkpt>
      <trkpt lat="43.901561" lon="-1.308339">
        <ele>7.364760</ele>
        <time>2026-03-24T10:43:14.769Z</time>
      </trkpt>
      <trkpt lat="43.901764" lon="-1.309092">
        <ele>7.899925</ele>
        <time>2026-03-24T10:43:25.483Z</time>
      </trkpt>
      <trkpt lat="43.901780" lon="-1.309179">
        <ele>7.959692</ele>
        <time>2026-03-24T10:43:26.418Z</time>
      </trkpt>
      <trkpt lat="43.901812" lon="-1.309351">
        <ele>8.077938</ele>
        <time>2026-03-24T10:43:28.242Z</time>
      </trkpt>
      <trkpt lat="43.902036" lon="-1.310579">
        <ele>8.490239</ele>
        <time>2026-03-24T10:43:40.543Z</time>
      </trkpt>
      <trkpt lat="43.902071" lon="-1.310768">
        <ele>8.545723</ele>
        <time>2026-03-24T10:43:42.356Z</time>
      </trkpt>
      <trkpt lat="43.902230" lon="-1.310686">
        <ele>8.612657</ele>
        <time>2026-03-24T10:43:44.273Z</time>
      </trkpt>
      <trkpt lat="43.902461" lon="-1.310567">
        <ele>8.709888</ele>
        <time>2026-03-24T10:43:47.067Z</time>
      </trkpt>
      <trkpt lat="43.902487" lon="-1.310504">
        <ele>8.730531</ele>
        <time>2026-03-24T10:43:48.144Z</time>
      </trkpt>
      <trkpt lat="43.903521" lon="-1.309852">
        <ele>8.658556</ele>
        <time>2026-03-24T10:44:09.764Z</time>
      </trkpt>
      <trkpt lat="43.903561" lon="-1.309878">
        <ele>8.645766</ele>
        <time>2026-03-24T10:44:10.200Z</time>
      </trkpt>
      <trkpt lat="43.904319" lon="-1.309874">
        <ele>8.426259</ele>
        <time>2026-03-24T10:44:17.361Z</time>
      </trkpt>
      <trkpt lat="43.904370" lon="-1.309873">
        <ele>8.411489</ele>
        <time>2026-03-24T10:44:17.832Z</time>
      </trkpt>
      <trkpt lat="43.904702" lon="-1.309857">
        <ele>8.346716</ele>
        <time>2026-03-24T10:44:20.907Z</time>
      </trkpt>
      <trkpt lat="43.904727" lon="-1.309944">
        <ele>8.341606</ele>
        <time>2026-03-24T10:44:21.523Z</time>
      </trkpt>
      <trkpt lat="43.904737" lon="-1.309992">
        <ele>8.338880</ele>
        <time>2026-03-24T10:44:21.859Z</time>
      </trkpt>
      <trkpt lat="43.904741" lon="-1.310012">
        <ele>8.337747</ele>
        <time>2026-03-24T10:44:22.000Z</time>
      </trkpt>
      <trkpt lat="43.904841" lon="-1.310019">
        <ele>8.330165</ele>
        <time>2026-03-24T10:44:22.946Z</time>
      </trkpt>
      <trkpt lat="43.904946" lon="-1.310026">
        <ele>8.322205</ele>
        <time>2026-03-24T10:44:23.961Z</time>
      </trkpt>
      <trkpt lat="43.905042" lon="-1.310074">
        <ele>8.314477</ele>
        <time>2026-03-24T10:44:24.932Z</time>
      </trkpt>
      <trkpt lat="43.905263" lon="-1.310568">
        <ele>8.282752</ele>
        <time>2026-03-24T10:44:29.152Z</time>
      </trkpt>
      <trkpt lat="43.905792" lon="-1.311407">
        <ele>8.221923</ele>
        <time>2026-03-24T10:44:37.858Z</time>
      </trkpt>
      <trkpt lat="43.905925" lon="-1.311584">
        <ele>8.341290</ele>
        <time>2026-03-24T10:44:39.986Z</time>
      </trkpt>
      <trkpt lat="43.906362" lon="-1.312326">
        <ele>8.798938</ele>
        <time>2026-03-24T10:44:48.220Z</time>
      </trkpt>
      <trkpt lat="43.906794" lon="-1.314409">
        <ele>9.830599</ele>
        <time>2026-03-24T10:45:07.683Z</time>
      </trkpt>
      <trkpt lat="43.906827" lon="-1.314466">
        <ele>9.865232</ele>
        <time>2026-03-24T10:45:08.329Z</time>
      </trkpt>
      <trkpt lat="43.906892" lon="-1.314497">
        <ele>9.910416</ele>
        <time>2026-03-24T10:45:09.154Z</time>
      </trkpt>
      <trkpt lat="43.906911" lon="-1.314495">
        <ele>9.922942</ele>
        <time>2026-03-24T10:45:09.392Z</time>
      </trkpt>
      <trkpt lat="43.908021" lon="-1.314391">
        <ele>10.617614</ele>
        <time>2026-03-24T10:45:22.508Z</time>
      </trkpt>
      <trkpt lat="43.908585" lon="-1.314338">
        <ele>10.754489</ele>
        <time>2026-03-24T10:45:28.986Z</time>
      </trkpt>
      <trkpt lat="43.908783" lon="-1.314374">
        <ele>10.802840</ele>
        <time>2026-03-24T10:45:31.208Z</time>
      </trkpt>
      <trkpt lat="43.909034" lon="-1.314667">
        <ele>10.882251</ele>
        <time>2026-03-24T10:45:34.758Z</time>
      </trkpt>
      <trkpt lat="43.909105" lon="-1.314795">
        <ele>10.910431</ele>
        <time>2026-03-24T10:45:35.988Z</time>
      </trkpt>
      <trkpt lat="43.909151" lon="-1.314960">
        <ele>10.941293</ele>
        <time>2026-03-24T10:45:37.324Z</time>
      </trkpt>
      <trkpt lat="43.909160" lon="-1.315115">
        <ele>10.968420</ele>
        <time>2026-03-24T10:45:38.499Z</time>
      </trkpt>
      <trkpt lat="43.909026" lon="-1.316309">
        <ele>10.919576</ele>
        <time>2026-03-24T10:45:47.281Z</time>
      </trkpt>
      <trkpt lat="43.909012" lon="-1.316666">
        <ele>10.872155</ele>
        <time>2026-03-24T10:45:49.811Z</time>
      </trkpt>
      <trkpt lat="43.908986" lon="-1.317367">
        <ele>10.779055</ele>
        <time>2026-03-24T10:45:54.753Z</time>
      </trkpt>
      <trkpt lat="43.908900" lon="-1.318016">
        <ele>10.710676</ele>
        <time>2026-03-24T10:45:59.421Z</time>
      </trkpt>
      <trkpt lat="43.908931" lon="-1.318406">
        <ele>10.768641</ele>
        <time>2026-03-24T10:46:02.217Z</time>
      </trkpt>
      <trkpt lat="43.908783" lon="-1.319734">
        <ele>10.967163</ele>
        <time>2026-03-24T10:46:12.414Z</time>
      </trkpt>
      <trkpt lat="43.908893" lon="-1.319704">
        <ele>10.990150</ele>
        <time>2026-03-24T10:46:13.694Z</time>
      </trkpt>
      <trkpt lat="43.908986" lon="-1.319687">
        <ele>11.009385</ele>
        <time>2026-03-24T10:46:14.768Z</time>
      </trkpt>
      <trkpt lat="43.911296" lon="-1.319262">
        <ele>12.360825</ele>
        <time>2026-03-24T10:46:43.578Z</time>
      </trkpt>
      <trkpt lat="43.911678" lon="-1.319192">
        <ele>12.382142</ele>
        <time>2026-03-24T10:46:47.908Z</time>
      </trkpt>
      <trkpt lat="43.911783" lon="-1.319423">
        <ele>12.393028</ele>
        <time>2026-03-24T10:46:49.980Z</time>
      </trkpt>
      <trkpt lat="43.912233" lon="-1.320213">
        <ele>12.433167</ele>
        <time>2026-03-24T10:46:57.147Z</time>
      </trkpt>
      <trkpt lat="43.912235" lon="-1.320675">
        <ele>12.440117</ele>
        <time>2026-03-24T10:47:00.323Z</time>
      </trkpt>
      <trkpt lat="43.912235" lon="-1.320803">
        <ele>12.432108</ele>
        <time>2026-03-24T10:47:01.208Z</time>
      </trkpt>
      <trkpt lat="43.912187" lon="-1.321333">
        <ele>12.398683</ele>
        <time>2026-03-24T10:47:04.948Z</time>
      </trkpt>
      <trkpt lat="43.912231" lon="-1.321446">
        <ele>12.390646</ele>
        <time>2026-03-24T10:47:05.858Z</time>
      </trkpt>
      <trkpt lat="43.912326" lon="-1.322590">
        <ele>12.318589</ele>
        <time>2026-03-24T10:47:14.292Z</time>
      </trkpt>
      <trkpt lat="43.912381" lon="-1.322750">
        <ele>12.307497</ele>
        <time>2026-03-24T10:47:15.671Z</time>
      </trkpt>
      <trkpt lat="43.912483" lon="-1.323657">
        <ele>12.420966</ele>
        <time>2026-03-24T10:47:22.946Z</time>
      </trkpt>
      <trkpt lat="43.912875" lon="-1.324623">
        <ele>12.641921</ele>
        <time>2026-03-24T10:47:31.515Z</time>
      </trkpt>
      <trkpt lat="43.912983" lon="-1.324783">
        <ele>12.685618</ele>
        <time>2026-03-24T10:47:33.250Z</time>
      </trkpt>
      <trkpt lat="43.912981" lon="-1.324851">
        <ele>12.699181</ele>
        <time>2026-03-24T10:47:33.799Z</time>
      </trkpt>
      <trkpt lat="43.912757" lon="-1.325283">
        <ele>12.883767</ele>
        <time>2026-03-24T10:47:38.171Z</time>
      </trkpt>
      <trkpt lat="43.912556" lon="-1.325672">
        <ele>13.425385</ele>
        <time>2026-03-24T10:47:42.309Z</time>
      </trkpt>
      <trkpt lat="43.912582" lon="-1.325711">
        <ele>13.485504</ele>
        <time>2026-03-24T10:47:42.790Z</time>
      </trkpt>
      <trkpt lat="43.912592" lon="-1.325825">
        <ele>13.615436</ele>
        <time>2026-03-24T10:47:43.810Z</time>
      </trkpt>
      <trkpt lat="43.912559" lon="-1.325902">
        <ele>13.716805</ele>
        <time>2026-03-24T10:47:44.648Z</time>
      </trkpt>
      <trkpt lat="43.912101" lon="-1.327146">
        <ele>15.297420</ele>
        <time>2026-03-24T10:47:59.787Z</time>
      </trkpt>
      <trkpt lat="43.912031" lon="-1.327506">
        <ele>15.841941</ele>
        <time>2026-03-24T10:48:04.423Z</time>
      </trkpt>
      <trkpt lat="43.912037" lon="-1.327803">
        <ele>16.566899</ele>
        <time>2026-03-24T10:48:08.262Z</time>
      </trkpt>
      <trkpt lat="43.912052" lon="-1.328048">
        <ele>17.166848</ele>
        <time>2026-03-24T10:48:11.485Z</time>
      </trkpt>
      <trkpt lat="43.912207" lon="-1.329723">
        <ele>21.287382</ele>
        <time>2026-03-24T10:48:35.462Z</time>
      </trkpt>
      <trkpt lat="43.912212" lon="-1.329857">
        <ele>21.614776</ele>
        <time>2026-03-24T10:48:37.546Z</time>
      </trkpt>
      <trkpt lat="43.912218" lon="-1.330015">
        <ele>22.067327</ele>
        <time>2026-03-24T10:48:40.032Z</time>
      </trkpt>
      <trkpt lat="43.912189" lon="-1.330927">
        <ele>24.795774</ele>
        <time>2026-03-24T10:48:55.099Z</time>
      </trkpt>
      <trkpt lat="43.912339" lon="-1.331631">
        <ele>26.989992</ele>
        <time>2026-03-24T10:49:07.532Z</time>
      </trkpt>
      <trkpt lat="43.912469" lon="-1.332053">
        <ele>28.361743</ele>
        <time>2026-03-24T10:49:14.719Z</time>
      </trkpt>
      <trkpt lat="43.912515" lon="-1.332546">
        <ele>29.396582</ele>
        <time>2026-03-24T10:49:21.489Z</time>
      </trkpt>
      <trkpt lat="43.912323" lon="-1.333042">
        <ele>29.963691</ele>
        <time>2026-03-24T10:49:27.930Z</time>
      </trkpt>
      <trkpt lat="43.912283" lon="-1.333263">
        <ele>30.193195</ele>
        <time>2026-03-24T10:49:30.208Z</time>
      </trkpt>
      <trkpt lat="43.912199" lon="-1.334379">
        <ele>31.323323</ele>
        <time>2026-03-24T10:49:39.686Z</time>
      </trkpt>
      <trkpt lat="43.912228" lon="-1.334690">
        <ele>31.639168</ele>
        <time>2026-03-24T10:49:42.075Z</time>
      </trkpt>
      <trkpt lat="43.912245" lon="-1.335998">
        <ele>32.051358</ele>
        <time>2026-03-24T10:49:53.310Z</time>
      </trkpt>
      <trkpt lat="43.912213" lon="-1.336478">
        <ele>32.192026</ele>
        <time>2026-03-24T10:49:57.366Z</time>
      </trkpt>
      <trkpt lat="43.912186" lon="-1.336872">
        <ele>32.307518</ele>
        <time>2026-03-24T10:50:00.419Z</time>
      </trkpt>
      <trkpt lat="43.911989" lon="-1.337510">
        <ele>32.697825</ele>
        <time>2026-03-24T10:50:05.358Z</time>
      </trkpt>
      <trkpt lat="43.911638" lon="-1.338621">
        <ele>33.719953</ele>
        <time>2026-03-24T10:50:16.060Z</time>
      </trkpt>
      <trkpt lat="43.911590" lon="-1.338958">
        <ele>34.009388</ele>
        <time>2026-03-24T10:50:19.944Z</time>
      </trkpt>
      <trkpt lat="43.911528" lon="-1.339751">
        <ele>34.586238</ele>
        <time>2026-03-24T10:50:29.739Z</time>
      </trkpt>
      <trkpt lat="43.911543" lon="-1.339947">
        <ele>34.657777</ele>
        <time>2026-03-24T10:50:32.166Z</time>
      </trkpt>
      <trkpt lat="43.911607" lon="-1.340228">
        <ele>34.764741</ele>
        <time>2026-03-24T10:50:35.754Z</time>
      </trkpt>
      <trkpt lat="43.911710" lon="-1.340501">
        <ele>34.876592</ele>
        <time>2026-03-24T10:50:39.303Z</time>
      </trkpt>
      <trkpt lat="43.911890" lon="-1.340823">
        <ele>35.024518</ele>
        <time>2026-03-24T10:50:43.321Z</time>
      </trkpt>
      <trkpt lat="43.912080" lon="-1.341385">
        <ele>35.249838</ele>
        <time>2026-03-24T10:50:47.751Z</time>
      </trkpt>
      <trkpt lat="43.912707" lon="-1.344566">
        <ele>30.525696</ele>
        <time>2026-03-24T10:51:06.369Z</time>
      </trkpt>
      <trkpt lat="43.912782" lon="-1.345324">
        <ele>29.388624</ele>
        <time>2026-03-24T10:51:10.704Z</time>
      </trkpt>
      <trkpt lat="43.912778" lon="-1.346451">
        <ele>27.713721</ele>
        <time>2026-03-24T10:51:17.319Z</time>
      </trkpt>
      <trkpt lat="43.912515" lon="-1.348723">
        <ele>25.624658</ele>
        <time>2026-03-24T10:51:31.984Z</time>
      </trkpt>
      <trkpt lat="43.913535" lon="-1.349047">
        <ele>23.875908</ele>
        <time>2026-03-24T10:51:42.945Z</time>
      </trkpt>
      <trkpt lat="43.914396" lon="-1.348810">
        <ele>22.191718</ele>
        <time>2026-03-24T10:52:43.965Z</time>
      </trkpt>
      <trkpt lat="43.915990" lon="-1.348371">
        <ele>18.489477</ele>
        <time>2026-03-24T10:54:36.928Z</time>
      </trkpt>
      <trkpt lat="43.918884" lon="-1.347578">
        <ele>15.148198</ele>
        <time>2026-03-24T10:58:01.950Z</time>
      </trkpt>
      <trkpt lat="43.919556" lon="-1.347394">
        <ele>14.261551</ele>
        <time>2026-03-24T10:58:49.582Z</time>
      </trkpt>
      <trkpt lat="43.919831" lon="-1.347397">
        <ele>13.905558</ele>
        <time>2026-03-24T10:59:08.648Z</time>
      </trkpt>
      <trkpt lat="43.919950" lon="-1.347558">
        <ele>13.731489</ele>
        <time>2026-03-24T10:59:20.234Z</time>
      </trkpt>
      <trkpt lat="43.920128" lon="-1.347681">
        <ele>13.561961</ele>
        <time>2026-03-24T10:59:34.043Z</time>
      </trkpt>
      <trkpt lat="43.920470" lon="-1.348019">
        <ele>13.204023</ele>
        <time>2026-03-24T11:00:03.212Z</time>
      </trkpt>
      <trkpt lat="43.921289" lon="-1.348979">
        <ele>12.290119</ele>
        <time>2026-03-24T11:01:17.730Z</time>
      </trkpt>
      <trkpt lat="43.921841" lon="-1.349570">
        <ele>11.791277</ele>
        <time>2026-03-24T11:02:06.138Z</time>
      </trkpt>
      <trkpt lat="43.921948" lon="-1.349685">
        <ele>11.694858</ele>
        <time>2026-03-24T11:02:15.550Z</time>
      </trkpt>
      <trkpt lat="43.922232" lon="-1.349832">
        <ele>11.478888</ele>
        <time>2026-03-24T11:02:36.624Z</time>
      </trkpt>
      <trkpt lat="43.922624" lon="-1.349981">
        <ele>11.189291</ele>
        <time>2026-03-24T11:03:04.834Z</time>
      </trkpt>
      <trkpt lat="43.924994" lon="-1.350640">
        <ele>9.229700</ele>
        <time>2026-03-24T11:05:52.822Z</time>
      </trkpt>
      <trkpt lat="43.926928" lon="-1.351153">
        <ele>8.406590</ele>
        <time>2026-03-24T11:08:09.667Z</time>
      </trkpt>
      <trkpt lat="43.927559" lon="-1.351326">
        <ele>8.435821</ele>
        <time>2026-03-24T11:08:54.375Z</time>
      </trkpt>
      <trkpt lat="43.929681" lon="-1.351907">
        <ele>9.701388</ele>
        <time>2026-03-24T11:11:24.693Z</time>
      </trkpt>
      <trkpt lat="43.932157" lon="-1.352549">
        <ele>13.374042</ele>
        <time>2026-03-24T11:14:19.760Z</time>
      </trkpt>
      <trkpt lat="43.933092" lon="-1.352791">
        <ele>14.241112</ele>
        <time>2026-03-24T11:15:25.890Z</time>
      </trkpt>
      <trkpt lat="43.933296" lon="-1.352916">
        <ele>14.444389</ele>
        <time>2026-03-24T11:15:41.379Z</time>
      </trkpt>
      <trkpt lat="43.934458" lon="-1.353974">
        <ele>13.379736</ele>
        <time>2026-03-24T11:17:17.907Z</time>
      </trkpt>
      <trkpt lat="43.934933" lon="-1.354433">
        <ele>12.792852</ele>
        <time>2026-03-24T11:17:58.154Z</time>
      </trkpt>
      <trkpt lat="43.935355" lon="-1.354841">
        <ele>11.933386</ele>
        <time>2026-03-24T11:18:33.894Z</time>
      </trkpt>
      <trkpt lat="43.935673" lon="-1.355148">
        <ele>11.281331</ele>
        <time>2026-03-24T11:19:00.814Z</time>
      </trkpt>
      <trkpt lat="43.935897" lon="-1.355364">
        <ele>10.822196</ele>
        <time>2026-03-24T11:19:19.787Z</time>
      </trkpt>
      <trkpt lat="43.936007" lon="-1.355452">
        <ele>10.608466</ele>
        <time>2026-03-24T11:19:28.605Z</time>
      </trkpt>
      <trkpt lat="43.936076" lon="-1.355471">
        <ele>10.490035</ele>
        <time>2026-03-24T11:19:33.470Z</time>
      </trkpt>
      <trkpt lat="43.936178" lon="-1.355461">
        <ele>10.317880</ele>
        <time>2026-03-24T11:19:40.598Z</time>
      </trkpt>
      <trkpt lat="43.936870" lon="-1.355216">
        <ele>9.504139</ele>
        <time>2026-03-24T11:19:47.808Z</time>
      </trkpt>
      <trkpt lat="43.937376" lon="-1.355037">
        <ele>9.159112</ele>
        <time>2026-03-24T11:19:53.397Z</time>
      </trkpt>
      <trkpt lat="43.938010" lon="-1.354950">
        <ele>8.738145</ele>
        <time>2026-03-24T11:20:00.636Z</time>
      </trkpt>
      <trkpt lat="43.938400" lon="-1.354926">
        <ele>8.611182</ele>
        <time>2026-03-24T11:20:05.256Z</time>
      </trkpt>
      <trkpt lat="43.938586" lon="-1.354900">
        <ele>8.674736</ele>
        <time>2026-03-24T11:20:07.530Z</time>
      </trkpt>
      <trkpt lat="43.938899" lon="-1.354856">
        <ele>8.781690</ele>
        <time>2026-03-24T11:20:11.495Z</time>
      </trkpt>
      <trkpt lat="43.939155" lon="-1.354743">
        <ele>8.873012</ele>
        <time>2026-03-24T11:20:15.018Z</time>
      </trkpt>
      <trkpt lat="43.939453" lon="-1.354602">
        <ele>8.980041</ele>
        <time>2026-03-24T11:20:18.727Z</time>
      </trkpt>
      <trkpt lat="43.939594" lon="-1.354535">
        <ele>9.030705</ele>
        <time>2026-03-24T11:20:20.508Z</time>
      </trkpt>
      <trkpt lat="43.940288" lon="-1.354274">
        <ele>9.166440</ele>
        <time>2026-03-24T11:20:29.103Z</time>
      </trkpt>
      <trkpt lat="43.940598" lon="-1.354159">
        <ele>9.153253</ele>
        <time>2026-03-24T11:20:32.697Z</time>
      </trkpt>
      <trkpt lat="43.940917" lon="-1.354081">
        <ele>9.139940</ele>
        <time>2026-03-24T11:20:36.112Z</time>
      </trkpt>
      <trkpt lat="43.941065" lon="-1.354081">
        <ele>9.133858</ele>
        <time>2026-03-24T11:20:37.591Z</time>
      </trkpt>
      <trkpt lat="43.941931" lon="-1.354467">
        <ele>9.142139</ele>
        <time>2026-03-24T11:20:46.212Z</time>
      </trkpt>
      <trkpt lat="43.942273" lon="-1.354540">
        <ele>9.211560</ele>
        <time>2026-03-24T11:20:49.417Z</time>
      </trkpt>
      <trkpt lat="43.942532" lon="-1.354547">
        <ele>9.263533</ele>
        <time>2026-03-24T11:20:51.926Z</time>
      </trkpt>
      <trkpt lat="43.942852" lon="-1.354556">
        <ele>9.327748</ele>
        <time>2026-03-24T11:20:55.334Z</time>
      </trkpt>
      <trkpt lat="43.943395" lon="-1.354609">
        <ele>9.436959</ele>
        <time>2026-03-24T11:21:02.041Z</time>
      </trkpt>
      <trkpt lat="43.943512" lon="-1.354621">
        <ele>9.460496</ele>
        <time>2026-03-24T11:21:03.602Z</time>
      </trkpt>
      <trkpt lat="43.944034" lon="-1.354658">
        <ele>10.037809</ele>
        <time>2026-03-24T11:21:10.798Z</time>
      </trkpt>
      <trkpt lat="43.944293" lon="-1.354564">
        <ele>10.344605</ele>
        <time>2026-03-24T11:21:14.590Z</time>
      </trkpt>
      <trkpt lat="43.944752" lon="-1.354226">
        <ele>10.940011</ele>
        <time>2026-03-24T11:21:22.024Z</time>
      </trkpt>
      <trkpt lat="43.945542" lon="-1.353453">
        <ele>11.717489</ele>
        <time>2026-03-24T11:21:34.238Z</time>
      </trkpt>
      <trkpt lat="43.945817" lon="-1.353314">
        <ele>11.840453</ele>
        <time>2026-03-24T11:21:37.545Z</time>
      </trkpt>
      <trkpt lat="43.946157" lon="-1.353244">
        <ele>11.984875</ele>
        <time>2026-03-24T11:21:41.249Z</time>
      </trkpt>
      <trkpt lat="43.947364" lon="-1.353219">
        <ele>12.592975</ele>
        <time>2026-03-24T11:21:53.870Z</time>
      </trkpt>
      <trkpt lat="43.948115" lon="-1.353099">
        <ele>13.063288</ele>
        <time>2026-03-24T11:22:03.042Z</time>
      </trkpt>
      <trkpt lat="43.948294" lon="-1.353089">
        <ele>13.174742</ele>
        <time>2026-03-24T11:22:05.486Z</time>
      </trkpt>
      <trkpt lat="43.948485" lon="-1.353137">
        <ele>13.295501</ele>
        <time>2026-03-24T11:22:08.122Z</time>
      </trkpt>
      <trkpt lat="43.948669" lon="-1.353275">
        <ele>13.415337</ele>
        <time>2026-03-24T11:22:10.922Z</time>
      </trkpt>
      <trkpt lat="43.948955" lon="-1.353491">
        <ele>13.532613</ele>
        <time>2026-03-24T11:22:15.169Z</time>
      </trkpt>
      <trkpt lat="43.949245" lon="-1.353589">
        <ele>13.640131</ele>
        <time>2026-03-24T11:22:18.960Z</time>
      </trkpt>
      <trkpt lat="43.950305" lon="-1.353552">
        <ele>14.022112</ele>
        <time>2026-03-24T11:22:30.524Z</time>
      </trkpt>
      <trkpt lat="43.951899" lon="-1.353497">
        <ele>12.782332</ele>
        <time>2026-03-24T11:22:45.051Z</time>
      </trkpt>
      <trkpt lat="43.951995" lon="-1.353494">
        <ele>12.702268</ele>
        <time>2026-03-24T11:22:45.864Z</time>
      </trkpt>
      <trkpt lat="43.951991" lon="-1.353553">
        <ele>12.666695</ele>
        <time>2026-03-24T11:22:46.215Z</time>
      </trkpt>
      <trkpt lat="43.952045" lon="-1.353553">
        <ele>12.621670</ele>
        <time>2026-03-24T11:22:46.664Z</time>
      </trkpt>
      <trkpt lat="43.952140" lon="-1.353518">
        <ele>12.540310</ele>
        <time>2026-03-24T11:22:47.622Z</time>
      </trkpt>
      <trkpt lat="43.952196" lon="-1.353514">
        <ele>12.496379</ele>
        <time>2026-03-24T11:22:48.165Z</time>
      </trkpt>
      <trkpt lat="43.953769" lon="-1.353416">
        <ele>11.262771</ele>
        <time>2026-03-24T11:23:04.577Z</time>
      </trkpt>
      <trkpt lat="43.954277" lon="-1.353384">
        <ele>11.291165</ele>
        <time>2026-03-24T11:23:11.808Z</time>
      </trkpt>
      <trkpt lat="43.954718" lon="-1.353351">
        <ele>11.480288</ele>
        <time>2026-03-24T11:23:18.546Z</time>
      </trkpt>
      <trkpt lat="43.954934" lon="-1.353335">
        <ele>11.572917</ele>
        <time>2026-03-24T11:23:21.997Z</time>
      </trkpt>
      <trkpt lat="43.955064" lon="-1.353325">
        <ele>11.628672</ele>
        <time>2026-03-24T11:23:24.026Z</time>
      </trkpt>
      <trkpt lat="43.956296" lon="-1.353231">
        <ele>11.764813</ele>
        <time>2026-03-24T11:23:38.133Z</time>
      </trkpt>
      <trkpt lat="43.956647" lon="-1.353164">
        <ele>11.675100</ele>
        <time>2026-03-24T11:23:42.068Z</time>
      </trkpt>
      <trkpt lat="43.956877" lon="-1.353062">
        <ele>11.613966</ele>
        <time>2026-03-24T11:23:44.806Z</time>
      </trkpt>
      <trkpt lat="43.957250" lon="-1.352788">
        <ele>11.507126</ele>
        <time>2026-03-24T11:23:49.689Z</time>
      </trkpt>
      <trkpt lat="43.957384" lon="-1.352688">
        <ele>11.468610</ele>
        <time>2026-03-24T11:23:51.491Z</time>
      </trkpt>
      <trkpt lat="43.957540" lon="-1.352560">
        <ele>11.465356</ele>
        <time>2026-03-24T11:23:53.651Z</time>
      </trkpt>
      <trkpt lat="43.959707" lon="-1.350780">
        <ele>11.651720</ele>
        <time>2026-03-24T11:24:24.367Z</time>
      </trkpt>
      <trkpt lat="43.960749" lon="-1.350000">
        <ele>11.842836</ele>
        <time>2026-03-24T11:24:38.377Z</time>
      </trkpt>
      <trkpt lat="43.960990" lon="-1.349842">
        <ele>11.994460</ele>
        <time>2026-03-24T11:24:41.601Z</time>
      </trkpt>
      <trkpt lat="43.961395" lon="-1.349783">
        <ele>12.226157</ele>
        <time>2026-03-24T11:24:46.762Z</time>
      </trkpt>
      <trkpt lat="43.961705" lon="-1.349751">
        <ele>12.403025</ele>
        <time>2026-03-24T11:24:50.866Z</time>
      </trkpt>
      <trkpt lat="43.962139" lon="-1.349582">
        <ele>12.659475</ele>
        <time>2026-03-24T11:24:57.305Z</time>
      </trkpt>
      <trkpt lat="43.962297" lon="-1.349435">
        <ele>12.814735</ele>
        <time>2026-03-24T11:25:00.340Z</time>
      </trkpt>
      <trkpt lat="43.962648" lon="-1.348827">
        <ele>13.584949</ele>
        <time>2026-03-24T11:25:10.165Z</time>
      </trkpt>
      <trkpt lat="43.963194" lon="-1.347843">
        <ele>14.812746</ele>
        <time>2026-03-24T11:25:24.761Z</time>
      </trkpt>
      <trkpt lat="43.963477" lon="-1.347332">
        <ele>15.151013</ele>
        <time>2026-03-24T11:25:31.191Z</time>
      </trkpt>
      <trkpt lat="43.963694" lon="-1.347086">
        <ele>15.068625</ele>
        <time>2026-03-24T11:25:34.517Z</time>
      </trkpt>
      <trkpt lat="43.963941" lon="-1.347046">
        <ele>14.995475</ele>
        <time>2026-03-24T11:25:37.300Z</time>
      </trkpt>
      <trkpt lat="43.964296" lon="-1.347101">
        <ele>14.890400</ele>
        <time>2026-03-24T11:25:41.115Z</time>
      </trkpt>
      <trkpt lat="43.964565" lon="-1.347142">
        <ele>14.810795</ele>
        <time>2026-03-24T11:25:43.995Z</time>
      </trkpt>
      <trkpt lat="43.965250" lon="-1.347370">
        <ele>14.571476</ele>
        <time>2026-03-24T11:25:51.740Z</time>
      </trkpt>
      <trkpt lat="43.965829" lon="-1.347546">
        <ele>14.318336</ele>
        <time>2026-03-24T11:25:58.582Z</time>
      </trkpt>
      <trkpt lat="43.967505" lon="-1.348026">
        <ele>13.742642</ele>
        <time>2026-03-24T11:26:17.853Z</time>
      </trkpt>
      <trkpt lat="43.967883" lon="-1.348070">
        <ele>13.659443</ele>
        <time>2026-03-24T11:26:22.087Z</time>
      </trkpt>
      <trkpt lat="43.968158" lon="-1.348025">
        <ele>13.598709</ele>
        <time>2026-03-24T11:26:25.229Z</time>
      </trkpt>
      <trkpt lat="43.968437" lon="-1.347917">
        <ele>13.535184</ele>
        <time>2026-03-24T11:26:28.568Z</time>
      </trkpt>
      <trkpt lat="43.970236" lon="-1.346594">
        <ele>14.280405</ele>
        <time>2026-03-24T11:26:55.777Z</time>
      </trkpt>
      <trkpt lat="43.971536" lon="-1.345627">
        <ele>14.353096</ele>
        <time>2026-03-24T11:27:14.298Z</time>
      </trkpt>
      <trkpt lat="43.971648" lon="-1.345544">
        <ele>14.359353</ele>
        <time>2026-03-24T11:27:15.692Z</time>
      </trkpt>
      <trkpt lat="43.973276" lon="-1.344340">
        <ele>12.729495</ele>
        <time>2026-03-24T11:27:34.791Z</time>
      </trkpt>
      <trkpt lat="43.973466" lon="-1.344241">
        <ele>12.705346</ele>
        <time>2026-03-24T11:27:37.028Z</time>
      </trkpt>
      <trkpt lat="43.974525" lon="-1.343913">
        <ele>12.674640</ele>
        <time>2026-03-24T11:27:50.112Z</time>
      </trkpt>
      <trkpt lat="43.974861" lon="-1.343819">
        <ele>12.664941</ele>
        <time>2026-03-24T11:27:54.699Z</time>
      </trkpt>
      <trkpt lat="43.978908" lon="-1.342687">
        <ele>14.058183</ele>
        <time>2026-03-24T11:28:47.949Z</time>
      </trkpt>
      <trkpt lat="43.981334" lon="-1.342036">
        <ele>14.340394</ele>
        <time>2026-03-24T11:29:18.989Z</time>
      </trkpt>
      <trkpt lat="43.982895" lon="-1.341561">
        <ele>13.282756</ele>
        <time>2026-03-24T11:29:36.593Z</time>
      </trkpt>
      <trkpt lat="43.983314" lon="-1.341353">
        <ele>12.752347</ele>
        <time>2026-03-24T11:29:40.995Z</time>
      </trkpt>
      <trkpt lat="43.983936" lon="-1.340990">
        <ele>12.059986</ele>
        <time>2026-03-24T11:29:47.608Z</time>
      </trkpt>
      <trkpt lat="43.984104" lon="-1.340855">
        <ele>11.989897</ele>
        <time>2026-03-24T11:29:49.507Z</time>
      </trkpt>
      <trkpt lat="43.984230" lon="-1.340663">
        <ele>11.922366</ele>
        <time>2026-03-24T11:29:51.358Z</time>
      </trkpt>
      <trkpt lat="43.984918" lon="-1.339184">
        <ele>11.464687</ele>
        <time>2026-03-24T11:30:06.159Z</time>
      </trkpt>
      <trkpt lat="43.985419" lon="-1.338331">
        <ele>12.763408</ele>
        <time>2026-03-24T11:30:19.612Z</time>
      </trkpt>
      <trkpt lat="43.985924" lon="-1.336959">
        <ele>14.509694</ele>
        <time>2026-03-24T11:30:39.326Z</time>
      </trkpt>
      <trkpt lat="43.986179" lon="-1.336563">
        <ele>14.638564</ele>
        <time>2026-03-24T11:30:45.046Z</time>
      </trkpt>
      <trkpt lat="43.986322" lon="-1.336422">
        <ele>14.697656</ele>
        <time>2026-03-24T11:30:47.478Z</time>
      </trkpt>
      <trkpt lat="43.986512" lon="-1.336327">
        <ele>14.765709</ele>
        <time>2026-03-24T11:30:50.154Z</time>
      </trkpt>
      <trkpt lat="43.987993" lon="-1.335773">
        <ele>15.305950</ele>
        <time>2026-03-24T11:31:07.317Z</time>
      </trkpt>
      <trkpt lat="43.988311" lon="-1.335646">
        <ele>15.430744</ele>
        <time>2026-03-24T11:31:11.572Z</time>
      </trkpt>
      <trkpt lat="43.988463" lon="-1.335541">
        <ele>15.494764</ele>
        <time>2026-03-24T11:31:13.888Z</time>
      </trkpt>
      <trkpt lat="43.989380" lon="-1.335328">
        <ele>15.977674</ele>
        <time>2026-03-24T11:31:27.646Z</time>
      </trkpt>
      <trkpt lat="43.991686" lon="-1.335419">
        <ele>17.229724</ele>
        <time>2026-03-24T11:32:01.261Z</time>
      </trkpt>
      <trkpt lat="43.993133" lon="-1.335455">
        <ele>15.993197</ele>
        <time>2026-03-24T11:32:15.987Z</time>
      </trkpt>
      <trkpt lat="43.994713" lon="-1.335560">
        <ele>12.991107</ele>
        <time>2026-03-24T11:32:30.904Z</time>
      </trkpt>
      <trkpt lat="43.995491" lon="-1.335649">
        <ele>12.324201</ele>
        <time>2026-03-24T11:32:38.897Z</time>
      </trkpt>
      <trkpt lat="43.996657" lon="-1.336033">
        <ele>11.753781</ele>
        <time>2026-03-24T11:32:53.130Z</time>
      </trkpt>
      <trkpt lat="43.996828" lon="-1.336059">
        <ele>11.840726</ele>
        <time>2026-03-24T11:32:55.398Z</time>
      </trkpt>
      <trkpt lat="43.997021" lon="-1.336058">
        <ele>11.938275</ele>
        <time>2026-03-24T11:32:57.959Z</time>
      </trkpt>
      <trkpt lat="43.997879" lon="-1.335829">
        <ele>12.379856</ele>
        <time>2026-03-24T11:33:09.774Z</time>
      </trkpt>
      <trkpt lat="43.998016" lon="-1.335706">
        <ele>12.462287</ele>
        <time>2026-03-24T11:33:12.021Z</time>
      </trkpt>
      <trkpt lat="43.999716" lon="-1.333848">
        <ele>14.435807</ele>
        <time>2026-03-24T11:33:43.526Z</time>
      </trkpt>
      <trkpt lat="43.999809" lon="-1.333710">
        <ele>14.525225</ele>
        <time>2026-03-24T11:33:45.702Z</time>
      </trkpt>
      <trkpt lat="43.999853" lon="-1.333644">
        <ele>14.567776</ele>
        <time>2026-03-24T11:33:46.732Z</time>
      </trkpt>
      <trkpt lat="44.000236" lon="-1.332825">
        <ele>15.029693</ele>
        <time>2026-03-24T11:33:57.085Z</time>
      </trkpt>
      <trkpt lat="44.000504" lon="-1.332406">
        <ele>15.294817</ele>
        <time>2026-03-24T11:34:02.284Z</time>
      </trkpt>
      <trkpt lat="44.001959" lon="-1.330475">
        <ele>14.764878</ele>
        <time>2026-03-24T11:34:24.399Z</time>
      </trkpt>
      <trkpt lat="44.002523" lon="-1.329719">
        <ele>15.279625</ele>
        <time>2026-03-24T11:34:35.085Z</time>
      </trkpt>
      <trkpt lat="44.002939" lon="-1.329143">
        <ele>15.665376</ele>
        <time>2026-03-24T11:34:43.274Z</time>
      </trkpt>
      <trkpt lat="44.003548" lon="-1.328295">
        <ele>16.910626</ele>
        <time>2026-03-24T11:34:56.161Z</time>
      </trkpt>
      <trkpt lat="44.003656" lon="-1.328010">
        <ele>17.408395</ele>
        <time>2026-03-24T11:35:00.120Z</time>
      </trkpt>
      <trkpt lat="44.003561" lon="-1.327514">
        <ele>18.201537</ele>
        <time>2026-03-24T11:35:06.826Z</time>
      </trkpt>
      <trkpt lat="44.003433" lon="-1.326843">
        <ele>19.274233</ele>
        <time>2026-03-24T11:35:16.771Z</time>
      </trkpt>
      <trkpt lat="44.003039" lon="-1.324305">
        <ele>24.419896</ele>
        <time>2026-03-24T11:35:53.241Z</time>
      </trkpt>
      <trkpt lat="44.002904" lon="-1.323431">
        <ele>26.446824</ele>
        <time>2026-03-24T11:36:05.861Z</time>
      </trkpt>
      <trkpt lat="44.002641" lon="-1.322450">
        <ele>28.906330</ele>
        <time>2026-03-24T11:36:21.826Z</time>
      </trkpt>
      <trkpt lat="44.002366" lon="-1.321581">
        <ele>31.092082</ele>
        <time>2026-03-24T11:36:36.477Z</time>
      </trkpt>
      <trkpt lat="44.002232" lon="-1.321280">
        <ele>31.816708</ele>
        <time>2026-03-24T11:36:41.789Z</time>
      </trkpt>
      <trkpt lat="44.002054" lon="-1.321033">
        <ele>32.532433</ele>
        <time>2026-03-24T11:36:46.981Z</time>
      </trkpt>
      <trkpt lat="44.000780" lon="-1.319714">
        <ele>36.523966</ele>
        <time>2026-03-24T11:37:17.071Z</time>
      </trkpt>
      <trkpt lat="43.999935" lon="-1.318839">
        <ele>38.136311</ele>
        <time>2026-03-24T11:37:34.632Z</time>
      </trkpt>
      <trkpt lat="43.999219" lon="-1.318013">
        <ele>37.767660</ele>
        <time>2026-03-24T11:37:45.544Z</time>
      </trkpt>
      <trkpt lat="43.999037" lon="-1.317737">
        <ele>37.358192</ele>
        <time>2026-03-24T11:37:48.240Z</time>
      </trkpt>
      <trkpt lat="43.998638" lon="-1.316900">
        <ele>36.260085</ele>
        <time>2026-03-24T11:37:55.011Z</time>
      </trkpt>
      <trkpt lat="43.998579" lon="-1.316711">
        <ele>36.034766</ele>
        <time>2026-03-24T11:37:56.341Z</time>
      </trkpt>
      <trkpt lat="43.998533" lon="-1.316516">
        <ele>35.882810</ele>
        <time>2026-03-24T11:37:57.663Z</time>
      </trkpt>
      <trkpt lat="43.998464" lon="-1.315818">
        <ele>35.592981</ele>
        <time>2026-03-24T11:38:02.387Z</time>
      </trkpt>
      <trkpt lat="43.998405" lon="-1.315587">
        <ele>35.492145</ele>
        <time>2026-03-24T11:38:04.142Z</time>
      </trkpt>
      <trkpt lat="43.998269" lon="-1.315304">
        <ele>35.352142</ele>
        <time>2026-03-24T11:38:06.726Z</time>
      </trkpt>
      <trkpt lat="43.998136" lon="-1.315096">
        <ele>35.237663</ele>
        <time>2026-03-24T11:38:09.015Z</time>
      </trkpt>
      <trkpt lat="43.997630" lon="-1.314303">
        <ele>35.355458</ele>
        <time>2026-03-24T11:38:20.925Z</time>
      </trkpt>
      <trkpt lat="43.997373" lon="-1.313948">
        <ele>36.339211</ele>
        <time>2026-03-24T11:38:28.412Z</time>
      </trkpt>
      <trkpt lat="43.997108" lon="-1.313749">
        <ele>37.157030</ele>
        <time>2026-03-24T11:38:34.977Z</time>
      </trkpt>
      <trkpt lat="43.996366" lon="-1.313449">
        <ele>39.255234</ele>
        <time>2026-03-24T11:38:50.896Z</time>
      </trkpt>
      <trkpt lat="43.996127" lon="-1.313220">
        <ele>39.970425</ele>
        <time>2026-03-24T11:38:56.264Z</time>
      </trkpt>
      <trkpt lat="43.995828" lon="-1.312854">
        <ele>40.750491</ele>
        <time>2026-03-24T11:39:03.018Z</time>
      </trkpt>
      <trkpt lat="43.995752" lon="-1.312735">
        <ele>40.974632</ele>
        <time>2026-03-24T11:39:04.847Z</time>
      </trkpt>
      <trkpt lat="43.994874" lon="-1.311350">
        <ele>43.786809</ele>
        <time>2026-03-24T11:39:26.065Z</time>
      </trkpt>
      <trkpt lat="43.994123" lon="-1.310400">
        <ele>47.327532</ele>
        <time>2026-03-24T11:39:47.626Z</time>
      </trkpt>
      <trkpt lat="43.994038" lon="-1.310196">
        <ele>47.918911</ele>
        <time>2026-03-24T11:39:51.724Z</time>
      </trkpt>
      <trkpt lat="43.993649" lon="-1.308462">
        <ele>52.549508</ele>
        <time>2026-03-24T11:40:23.147Z</time>
      </trkpt>
      <trkpt lat="43.993504" lon="-1.308178">
        <ele>53.445466</ele>
        <time>2026-03-24T11:40:28.587Z</time>
      </trkpt>
      <trkpt lat="43.992811" lon="-1.307261">
        <ele>56.329269</ele>
        <time>2026-03-24T11:40:46.986Z</time>
      </trkpt>
      <trkpt lat="43.992577" lon="-1.307040">
        <ele>56.708062</ele>
        <time>2026-03-24T11:40:51.693Z</time>
      </trkpt>
      <trkpt lat="43.991983" lon="-1.306614">
        <ele>57.603017</ele>
        <time>2026-03-24T11:41:01.998Z</time>
      </trkpt>
      <trkpt lat="43.989947" lon="-1.305151">
        <ele>58.488027</ele>
        <time>2026-03-24T11:41:31.801Z</time>
      </trkpt>
      <trkpt lat="43.989713" lon="-1.304984">
        <ele>58.056651</ele>
        <time>2026-03-24T11:41:34.525Z</time>
      </trkpt>
      <trkpt lat="43.989548" lon="-1.304819">
        <ele>57.463321</ele>
        <time>2026-03-24T11:41:36.539Z</time>
      </trkpt>
      <trkpt lat="43.989539" lon="-1.305016">
        <ele>57.048768</ele>
        <time>2026-03-24T11:41:46.409Z</time>
      </trkpt>
      <trkpt lat="43.990136" lon="-1.307576">
        <ele>50.931639</ele>
        <time>2026-03-24T11:44:01.029Z</time>
      </trkpt>
      <trkpt lat="43.990270" lon="-1.308150">
        <ele>49.344653</ele>
        <time>2026-03-24T11:44:31.228Z</time>
      </trkpt>
      <trkpt lat="43.990542" lon="-1.309488">
        <ele>46.263418</ele>
        <time>2026-03-24T11:45:40.753Z</time>
      </trkpt>
      <trkpt lat="43.990652" lon="-1.310323">
        <ele>45.341310</ele>
        <time>2026-03-24T11:46:23.228Z</time>
      </trkpt>
      <trkpt lat="43.990668" lon="-1.310464">
        <ele>45.186254</ele>
        <time>2026-03-24T11:46:30.386Z</time>
      </trkpt>
      <trkpt lat="43.990755" lon="-1.311300">
        <ele>44.268690</ele>
        <time>2026-03-24T11:47:12.572Z</time>
      </trkpt>
      <trkpt lat="43.990638" lon="-1.311799">
        <ele>43.798238</ele>
        <time>2026-03-24T11:47:38.833Z</time>
      </trkpt>
      <trkpt lat="43.990583" lon="-1.312035">
        <ele>43.634501</ele>
        <time>2026-03-24T11:47:51.258Z</time>
      </trkpt>
      <trkpt lat="43.990559" lon="-1.312224">
        <ele>43.507827</ele>
        <time>2026-03-24T11:48:00.854Z</time>
      </trkpt>
      <trkpt lat="43.990569" lon="-1.312383">
        <ele>43.402481</ele>
        <time>2026-03-24T11:48:08.796Z</time>
      </trkpt>
      <trkpt lat="43.990769" lon="-1.313266">
        <ele>42.791472</ele>
        <time>2026-03-24T11:48:55.104Z</time>
      </trkpt>
      <trkpt lat="43.990771" lon="-1.313823">
        <ele>42.423829</ele>
        <time>2026-03-24T11:49:22.963Z</time>
      </trkpt>
      <trkpt lat="43.990747" lon="-1.314099">
        <ele>42.126013</ele>
        <time>2026-03-24T11:49:36.838Z</time>
      </trkpt>
      <trkpt lat="43.990653" lon="-1.314462">
        <ele>41.402780</ele>
        <time>2026-03-24T11:49:56.136Z</time>
      </trkpt>
      <trkpt lat="43.990384" lon="-1.315098">
        <ele>40.019734</ele>
        <time>2026-03-24T11:50:33.042Z</time>
      </trkpt>
      <trkpt lat="43.990307" lon="-1.315356">
        <ele>39.496110</ele>
        <time>2026-03-24T11:50:47.010Z</time>
      </trkpt>
      <trkpt lat="43.990139" lon="-1.316455">
        <ele>37.546134</ele>
        <time>2026-03-24T11:51:43.199Z</time>
      </trkpt>
      <trkpt lat="43.990068" lon="-1.316636">
        <ele>37.426948</ele>
        <time>2026-03-24T11:51:53.516Z</time>
      </trkpt>
      <trkpt lat="43.989457" lon="-1.317416">
        <ele>36.760298</ele>
        <time>2026-03-24T11:52:51.188Z</time>
      </trkpt>
      <trkpt lat="43.989248" lon="-1.317738">
        <ele>36.509573</ele>
        <time>2026-03-24T11:53:12.867Z</time>
      </trkpt>
      <trkpt lat="43.989201" lon="-1.318037">
        <ele>36.332629</ele>
        <time>2026-03-24T11:53:28.174Z</time>
      </trkpt>
      <trkpt lat="43.989178" lon="-1.319412">
        <ele>34.308549</ele>
        <time>2026-03-24T11:54:36.924Z</time>
      </trkpt>
      <trkpt lat="43.989134" lon="-1.319597">
        <ele>33.977203</ele>
        <time>2026-03-24T11:54:46.654Z</time>
      </trkpt>
      <trkpt lat="43.988586" lon="-1.320662">
        <ele>31.839640</ele>
        <time>2026-03-24T11:55:52.162Z</time>
      </trkpt>
      <trkpt lat="43.988126" lon="-1.321315">
        <ele>31.106367</ele>
        <time>2026-03-24T11:56:37.889Z</time>
      </trkpt>
      <trkpt lat="43.988015" lon="-1.321472">
        <ele>30.929752</ele>
        <time>2026-03-24T11:56:48.896Z</time>
      </trkpt>
      <trkpt lat="43.987844" lon="-1.321684">
        <ele>30.674209</ele>
        <time>2026-03-24T11:57:04.829Z</time>
      </trkpt>
      <trkpt lat="43.987706" lon="-1.321805">
        <ele>30.492245</ele>
        <time>2026-03-24T11:57:16.160Z</time>
      </trkpt>
      <trkpt lat="43.987400" lon="-1.321989">
        <ele>30.120422</ele>
        <time>2026-03-24T11:57:39.334Z</time>
      </trkpt>
      <trkpt lat="43.984443" lon="-1.323176">
        <ele>37.139687</ele>
        <time>2026-03-24T12:01:13.320Z</time>
      </trkpt>
      <trkpt lat="43.982369" lon="-1.323735">
        <ele>39.852644</ele>
        <time>2026-03-24T12:03:40.112Z</time>
      </trkpt>
      <trkpt lat="43.982206" lon="-1.323808">
        <ele>39.999361</ele>
        <time>2026-03-24T12:03:51.995Z</time>
      </trkpt>
      <trkpt lat="43.981355" lon="-1.324871">
        <ele>39.623416</ele>
        <time>2026-03-24T12:05:11.564Z</time>
      </trkpt>
      <trkpt lat="43.981340" lon="-1.324931">
        <ele>39.595513</ele>
        <time>2026-03-24T12:05:14.768Z</time>
      </trkpt>
      <trkpt lat="43.981336" lon="-1.325036">
        <ele>39.549322</ele>
        <time>2026-03-24T12:05:19.979Z</time>
      </trkpt>
      <trkpt lat="43.981504" lon="-1.326344">
        <ele>38.575507</ele>
        <time>2026-03-24T12:06:26.446Z</time>
      </trkpt>
      <trkpt lat="43.981984" lon="-1.330097">
        <ele>31.050956</ele>
        <time>2026-03-24T12:09:37.101Z</time>
      </trkpt>
      <trkpt lat="43.982458" lon="-1.334428">
        <ele>21.334049</ele>
        <time>2026-03-24T12:13:16.317Z</time>
      </trkpt>
      <trkpt lat="43.982309" lon="-1.334434">
        <ele>21.041571</ele>
        <time>2026-03-24T12:13:17.758Z</time>
      </trkpt>
      <trkpt lat="43.982142" lon="-1.334414">
        <ele>20.712683</ele>
        <time>2026-03-24T12:13:19.421Z</time>
      </trkpt>
      <trkpt lat="43.981669" lon="-1.334356">
        <ele>19.780996</ele>
        <time>2026-03-24T12:13:24.342Z</time>
      </trkpt>
      <trkpt lat="43.981350" lon="-1.334378">
        <ele>19.201088</ele>
        <time>2026-03-24T12:13:27.953Z</time>
      </trkpt>
      <trkpt lat="43.980699" lon="-1.334517">
        <ele>20.025359</ele>
        <time>2026-03-24T12:13:36.454Z</time>
      </trkpt>
      <trkpt lat="43.979675" lon="-1.334682">
        <ele>21.315456</ele>
        <time>2026-03-24T12:13:53.159Z</time>
      </trkpt>
      <trkpt lat="43.977841" lon="-1.334639">
        <ele>26.720146</ele>
        <time>2026-03-24T12:14:31.557Z</time>
      </trkpt>
      <trkpt lat="43.977143" lon="-1.334571">
        <ele>28.501676</ele>
        <time>2026-03-24T12:14:44.768Z</time>
      </trkpt>
      <trkpt lat="43.975271" lon="-1.333525">
        <ele>33.432910</ele>
        <time>2026-03-24T12:15:21.580Z</time>
      </trkpt>
      <trkpt lat="43.974444" lon="-1.333234">
        <ele>35.452743</ele>
        <time>2026-03-24T12:15:37.389Z</time>
      </trkpt>
      <trkpt lat="43.974190" lon="-1.333070">
        <ele>36.058009</ele>
        <time>2026-03-24T12:15:42.393Z</time>
      </trkpt>
      <trkpt lat="43.974069" lon="-1.332945">
        <ele>36.370091</ele>
        <time>2026-03-24T12:15:45.089Z</time>
      </trkpt>
      <trkpt lat="43.973702" lon="-1.332310">
        <ele>37.583244</ele>
        <time>2026-03-24T12:15:55.434Z</time>
      </trkpt>
      <trkpt lat="43.972949" lon="-1.330862">
        <ele>40.139815</ele>
        <time>2026-03-24T12:16:17.419Z</time>
      </trkpt>
      <trkpt lat="43.972753" lon="-1.330598">
        <ele>40.636582</ele>
        <time>2026-03-24T12:16:22.088Z</time>
      </trkpt>
      <trkpt lat="43.971913" lon="-1.329800">
        <ele>42.488383</ele>
        <time>2026-03-24T12:16:38.901Z</time>
      </trkpt>
      <trkpt lat="43.971480" lon="-1.329353">
        <ele>43.503419</ele>
        <time>2026-03-24T12:16:47.958Z</time>
      </trkpt>
      <trkpt lat="43.970450" lon="-1.327694">
        <ele>46.309946</ele>
        <time>2026-03-24T12:17:15.254Z</time>
      </trkpt>
      <trkpt lat="43.970364" lon="-1.327519">
        <ele>46.478165</ele>
        <time>2026-03-24T12:17:17.724Z</time>
      </trkpt>
      <trkpt lat="43.970195" lon="-1.327302">
        <ele>46.731983</ele>
        <time>2026-03-24T12:17:21.374Z</time>
      </trkpt>
      <trkpt lat="43.970094" lon="-1.327172">
        <ele>46.883842</ele>
        <time>2026-03-24T12:17:23.501Z</time>
      </trkpt>
      <trkpt lat="43.969861" lon="-1.326981">
        <ele>47.182239</ele>
        <time>2026-03-24T12:17:27.536Z</time>
      </trkpt>
      <trkpt lat="43.968998" lon="-1.326438">
        <ele>48.007363</ele>
        <time>2026-03-24T12:17:40.389Z</time>
      </trkpt>
      <trkpt lat="43.968514" lon="-1.326046">
        <ele>47.889026</ele>
        <time>2026-03-24T12:17:47.425Z</time>
      </trkpt>
      <trkpt lat="43.967705" lon="-1.325082">
        <ele>47.663904</ele>
        <time>2026-03-24T12:17:59.072Z</time>
      </trkpt>
      <trkpt lat="43.966606" lon="-1.324277">
        <ele>48.767607</ele>
        <time>2026-03-24T12:18:12.484Z</time>
      </trkpt>
      <trkpt lat="43.966579" lon="-1.324278">
        <ele>48.791731</ele>
        <time>2026-03-24T12:18:12.926Z</time>
      </trkpt>
      <trkpt lat="43.966505" lon="-1.324280">
        <ele>48.857837</ele>
        <time>2026-03-24T12:18:14.162Z</time>
      </trkpt>
      <trkpt lat="43.966400" lon="-1.324338">
        <ele>48.958760</ele>
        <time>2026-03-24T12:18:16.254Z</time>
      </trkpt>
      <trkpt lat="43.966350" lon="-1.324366">
        <ele>49.006909</ele>
        <time>2026-03-24T12:18:17.291Z</time>
      </trkpt>
      <trkpt lat="43.966150" lon="-1.324624">
        <ele>49.250667</ele>
        <time>2026-03-24T12:18:23.424Z</time>
      </trkpt>
      <trkpt lat="43.966037" lon="-1.324855">
        <ele>50.263520</ele>
        <time>2026-03-24T12:18:28.589Z</time>
      </trkpt>
      <trkpt lat="43.965712" lon="-1.326010">
        <ele>55.187883</ele>
        <time>2026-03-24T12:18:56.129Z</time>
      </trkpt>
      <trkpt lat="43.965447" lon="-1.326583">
        <ele>57.892410</ele>
        <time>2026-03-24T12:19:10.853Z</time>
      </trkpt>
      <trkpt lat="43.965298" lon="-1.326971">
        <ele>59.072371</ele>
        <time>2026-03-24T12:19:18.749Z</time>
      </trkpt>
      <trkpt lat="43.965172" lon="-1.327422">
        <ele>58.556263</ele>
        <time>2026-03-24T12:19:25.392Z</time>
      </trkpt>
      <trkpt lat="43.965054" lon="-1.328351">
        <ele>57.549875</ele>
        <time>2026-03-24T12:19:32.637Z</time>
      </trkpt>
      <trkpt lat="43.965036" lon="-1.328637">
        <ele>57.243600</ele>
        <time>2026-03-24T12:19:34.429Z</time>
      </trkpt>
      <trkpt lat="43.965002" lon="-1.329221">
        <ele>56.618543</ele>
        <time>2026-03-24T12:19:37.885Z</time>
      </trkpt>
      <trkpt lat="43.964936" lon="-1.332029">
        <ele>43.330632</ele>
        <time>2026-03-24T12:19:53.487Z</time>
      </trkpt>
      <trkpt lat="43.964954" lon="-1.334123">
        <ele>40.025051</ele>
        <time>2026-03-24T12:20:08.679Z</time>
      </trkpt>
      <trkpt lat="43.964848" lon="-1.334675">
        <ele>39.798804</ele>
        <time>2026-03-24T12:20:14.849Z</time>
      </trkpt>
      <trkpt lat="43.964750" lon="-1.334882">
        <ele>39.836116</ele>
        <time>2026-03-24T12:20:17.496Z</time>
      </trkpt>
      <trkpt lat="43.964599" lon="-1.335000">
        <ele>39.872364</ele>
        <time>2026-03-24T12:20:20.006Z</time>
      </trkpt>
      <trkpt lat="43.964291" lon="-1.335117">
        <ele>39.939170</ele>
        <time>2026-03-24T12:20:24.563Z</time>
      </trkpt>
      <trkpt lat="43.964106" lon="-1.335148">
        <ele>39.978158</ele>
        <time>2026-03-24T12:20:27.075Z</time>
      </trkpt>
      <trkpt lat="43.963984" lon="-1.335221">
        <ele>40.005950</ele>
        <time>2026-03-24T12:20:28.668Z</time>
      </trkpt>
      <trkpt lat="43.963782" lon="-1.335209">
        <ele>40.048252</ele>
        <time>2026-03-24T12:20:30.891Z</time>
      </trkpt>
      <trkpt lat="43.963629" lon="-1.335084">
        <ele>40.085388</ele>
        <time>2026-03-24T12:20:32.778Z</time>
      </trkpt>
      <trkpt lat="43.963492" lon="-1.335028">
        <ele>40.115267</ele>
        <time>2026-03-24T12:20:34.299Z</time>
      </trkpt>
      <trkpt lat="43.963274" lon="-1.335049">
        <ele>40.230095</ele>
        <time>2026-03-24T12:20:36.737Z</time>
      </trkpt>
      <trkpt lat="43.963032" lon="-1.335115">
        <ele>40.361469</ele>
        <time>2026-03-24T12:20:39.644Z</time>
      </trkpt>
      <trkpt lat="43.962759" lon="-1.335277">
        <ele>40.519608</ele>
        <time>2026-03-24T12:20:43.607Z</time>
      </trkpt>
      <trkpt lat="43.962468" lon="-1.335616">
        <ele>40.721910</ele>
        <time>2026-03-24T12:20:49.365Z</time>
      </trkpt>
      <trkpt lat="43.962065" lon="-1.336324">
        <ele>41.068010</ele>
        <time>2026-03-24T12:20:59.290Z</time>
      </trkpt>
      <trkpt lat="43.961903" lon="-1.336609">
        <ele>40.892427</ele>
        <time>2026-03-24T12:21:02.955Z</time>
      </trkpt>
      <trkpt lat="43.961839" lon="-1.336675">
        <ele>40.834247</ele>
        <time>2026-03-24T12:21:03.955Z</time>
      </trkpt>
      <trkpt lat="43.961722" lon="-1.336719">
        <ele>40.745769</ele>
        <time>2026-03-24T12:21:05.396Z</time>
      </trkpt>
      <trkpt lat="43.961615" lon="-1.336701">
        <ele>40.667095</ele>
        <time>2026-03-24T12:21:06.633Z</time>
      </trkpt>
      <trkpt lat="43.960851" lon="-1.335953">
        <ele>39.984846</ele>
        <time>2026-03-24T12:21:16.195Z</time>
      </trkpt>
      <trkpt lat="43.960700" lon="-1.335843">
        <ele>39.860390</ele>
        <time>2026-03-24T12:21:17.863Z</time>
      </trkpt>
      <trkpt lat="43.960546" lon="-1.335793">
        <ele>39.757416</ele>
        <time>2026-03-24T12:21:19.415Z</time>
      </trkpt>
      <trkpt lat="43.960381" lon="-1.335800">
        <ele>39.727548</ele>
        <time>2026-03-24T12:21:21.071Z</time>
      </trkpt>
      <trkpt lat="43.959973" lon="-1.335912">
        <ele>39.652300</ele>
        <time>2026-03-24T12:21:25.304Z</time>
      </trkpt>
      <trkpt lat="43.959118" lon="-1.336153">
        <ele>39.494451</ele>
        <time>2026-03-24T12:21:35.161Z</time>
      </trkpt>
      <trkpt lat="43.958920" lon="-1.335990">
        <ele>39.452809</ele>
        <time>2026-03-24T12:21:38.572Z</time>
      </trkpt>
      <trkpt lat="43.958845" lon="-1.335850">
        <ele>39.584738</ele>
        <time>2026-03-24T12:21:40.619Z</time>
      </trkpt>
      <trkpt lat="43.958808" lon="-1.335651">
        <ele>40.246595</ele>
        <time>2026-03-24T12:21:43.213Z</time>
      </trkpt>
      <trkpt lat="43.958797" lon="-1.335105">
        <ele>42.005529</ele>
        <time>2026-03-24T12:21:51.143Z</time>
      </trkpt>
      <trkpt lat="43.958737" lon="-1.334422">
        <ele>44.221267</ele>
        <time>2026-03-24T12:22:03.445Z</time>
      </trkpt>
      <trkpt lat="43.958762" lon="-1.334183">
        <ele>44.998986</ele>
        <time>2026-03-24T12:22:08.551Z</time>
      </trkpt>
      <trkpt lat="43.958836" lon="-1.333981">
        <ele>45.728864</ele>
        <time>2026-03-24T12:22:13.545Z</time>
      </trkpt>
      <trkpt lat="43.958888" lon="-1.333878">
        <ele>46.133991</ele>
        <time>2026-03-24T12:22:16.376Z</time>
      </trkpt>
      <trkpt lat="43.959074" lon="-1.333509">
        <ele>47.570198</ele>
        <time>2026-03-24T12:22:26.221Z</time>
      </trkpt>
      <trkpt lat="43.959100" lon="-1.333234">
        <ele>48.337357</ele>
        <time>2026-03-24T12:22:31.878Z</time>
      </trkpt>
      <trkpt lat="43.959060" lon="-1.333001">
        <ele>48.999890</ele>
        <time>2026-03-24T12:22:36.470Z</time>
      </trkpt>
      <trkpt lat="43.958955" lon="-1.332818">
        <ele>49.647174</ele>
        <time>2026-03-24T12:22:40.732Z</time>
      </trkpt>
      <trkpt lat="43.958765" lon="-1.332688">
        <ele>50.460979</ele>
        <time>2026-03-24T12:22:45.762Z</time>
      </trkpt>
      <trkpt lat="43.958617" lon="-1.332683">
        <ele>51.029826</ele>
        <time>2026-03-24T12:22:49.032Z</time>
      </trkpt>
      <trkpt lat="43.958349" lon="-1.332692">
        <ele>52.059897</ele>
        <time>2026-03-24T12:22:54.495Z</time>
      </trkpt>
      <trkpt lat="43.958007" lon="-1.332780">
        <ele>53.396358</ele>
        <time>2026-03-24T12:23:00.889Z</time>
      </trkpt>
      <trkpt lat="43.957792" lon="-1.332914">
        <ele>54.301814</ele>
        <time>2026-03-24T12:23:04.770Z</time>
      </trkpt>
      <trkpt lat="43.957463" lon="-1.333008">
        <ele>55.295109</ele>
        <time>2026-03-24T12:23:10.011Z</time>
      </trkpt>
      <trkpt lat="43.956975" lon="-1.333010">
        <ele>56.705193</ele>
        <time>2026-03-24T12:23:18.410Z</time>
      </trkpt>
      <trkpt lat="43.956711" lon="-1.332968">
        <ele>57.473007</ele>
        <time>2026-03-24T12:23:23.635Z</time>
      </trkpt>
      <trkpt lat="43.956286" lon="-1.332777">
        <ele>58.763712</ele>
        <time>2026-03-24T12:23:33.291Z</time>
      </trkpt>
      <trkpt lat="43.955915" lon="-1.332771">
        <ele>59.935636</ele>
        <time>2026-03-24T12:23:41.972Z</time>
      </trkpt>
      <trkpt lat="43.955720" lon="-1.332809">
        <ele>60.736427</ele>
        <time>2026-03-24T12:23:46.711Z</time>
      </trkpt>
      <trkpt lat="43.955555" lon="-1.332889">
        <ele>61.447148</ele>
        <time>2026-03-24T12:23:50.971Z</time>
      </trkpt>
      <trkpt lat="43.955470" lon="-1.332992">
        <ele>61.905865</ele>
        <time>2026-03-24T12:23:53.723Z</time>
      </trkpt>
      <trkpt lat="43.955372" lon="-1.333247">
        <ele>62.752129</ele>
        <time>2026-03-24T12:23:58.768Z</time>
      </trkpt>
      <trkpt lat="43.955255" lon="-1.333440">
        <ele>63.490816</ele>
        <time>2026-03-24T12:24:03.147Z</time>
      </trkpt>
      <trkpt lat="43.955067" lon="-1.333578">
        <ele>64.355557</ele>
        <time>2026-03-24T12:24:08.178Z</time>
      </trkpt>
      <trkpt lat="43.954271" lon="-1.333938">
        <ele>67.130820</ele>
        <time>2026-03-24T12:24:26.547Z</time>
      </trkpt>
      <trkpt lat="43.953968" lon="-1.334018">
        <ele>67.461614</ele>
        <time>2026-03-24T12:24:32.759Z</time>
      </trkpt>
      <trkpt lat="43.953772" lon="-1.333987">
        <ele>67.673187</ele>
        <time>2026-03-24T12:24:36.569Z</time>
      </trkpt>
      <trkpt lat="43.953066" lon="-1.333343">
        <ele>68.579060</ele>
        <time>2026-03-24T12:24:48.595Z</time>
      </trkpt>
      <trkpt lat="43.952957" lon="-1.333184">
        <ele>68.748585</ele>
        <time>2026-03-24T12:24:50.190Z</time>
      </trkpt>
      <trkpt lat="43.952892" lon="-1.332976">
        <ele>68.394063</ele>
        <time>2026-03-24T12:24:51.738Z</time>
      </trkpt>
      <trkpt lat="43.952811" lon="-1.332359">
        <ele>66.000406</ele>
        <time>2026-03-24T12:24:58.567Z</time>
      </trkpt>
      <trkpt lat="43.952723" lon="-1.332145">
        <ele>65.059808</ele>
        <time>2026-03-24T12:25:01.115Z</time>
      </trkpt>
      <trkpt lat="43.952092" lon="-1.331182">
        <ele>60.090009</ele>
        <time>2026-03-24T12:25:13.897Z</time>
      </trkpt>
      <trkpt lat="43.951882" lon="-1.330416">
        <ele>56.397505</ele>
        <time>2026-03-24T12:25:22.023Z</time>
      </trkpt>
      <trkpt lat="43.951650" lon="-1.329885">
        <ele>53.454679</ele>
        <time>2026-03-24T12:25:28.355Z</time>
      </trkpt>
      <trkpt lat="43.951572" lon="-1.329855">
        <ele>52.922047</ele>
        <time>2026-03-24T12:25:29.537Z</time>
      </trkpt>
      <trkpt lat="43.951503" lon="-1.329614">
        <ele>51.693249</ele>
        <time>2026-03-24T12:25:30.836Z</time>
      </trkpt>
      <trkpt lat="43.951462" lon="-1.329521">
        <ele>51.176579</ele>
        <time>2026-03-24T12:25:31.376Z</time>
      </trkpt>
      <trkpt lat="43.951412" lon="-1.329411">
        <ele>50.560232</ele>
        <time>2026-03-24T12:25:32.010Z</time>
      </trkpt>
      <trkpt lat="43.951112" lon="-1.328974">
        <ele>47.699362</ele>
        <time>2026-03-24T12:25:34.880Z</time>
      </trkpt>
      <trkpt lat="43.950835" lon="-1.328647">
        <ele>45.103374</ele>
        <time>2026-03-24T12:25:37.214Z</time>
      </trkpt>
      <trkpt lat="43.950755" lon="-1.328499">
        <ele>44.143676</ele>
        <time>2026-03-24T12:25:38.060Z</time>
      </trkpt>
      <trkpt lat="43.950689" lon="-1.328319">
        <ele>43.096195</ele>
        <time>2026-03-24T12:25:38.983Z</time>
      </trkpt>
      <trkpt lat="43.950629" lon="-1.327881">
        <ele>40.784181</ele>
        <time>2026-03-24T12:25:41.042Z</time>
      </trkpt>
      <trkpt lat="43.950570" lon="-1.327457">
        <ele>38.544819</ele>
        <time>2026-03-24T12:25:43.070Z</time>
      </trkpt>
      <trkpt lat="43.950494" lon="-1.327169">
        <ele>36.954217</ele>
        <time>2026-03-24T12:25:44.518Z</time>
      </trkpt>
      <trkpt lat="43.950389" lon="-1.326817">
        <ele>34.978426</ele>
        <time>2026-03-24T12:25:46.368Z</time>
      </trkpt>
      <trkpt lat="43.950359" lon="-1.326072">
        <ele>33.866787</ele>
        <time>2026-03-24T12:25:50.448Z</time>
      </trkpt>
      <trkpt lat="43.950277" lon="-1.325582">
        <ele>33.375207</ele>
        <time>2026-03-24T12:25:53.960Z</time>
      </trkpt>
      <trkpt lat="43.950283" lon="-1.325172">
        <ele>32.974483</ele>
        <time>2026-03-24T12:25:57.238Z</time>
      </trkpt>
      <trkpt lat="43.950321" lon="-1.324696">
        <ele>32.506497</ele>
        <time>2026-03-24T12:26:00.832Z</time>
      </trkpt>
      <trkpt lat="43.950337" lon="-1.324495">
        <ele>32.308888</ele>
        <time>2026-03-24T12:26:02.292Z</time>
      </trkpt>
      <trkpt lat="43.950387" lon="-1.324301">
        <ele>32.107536</ele>
        <time>2026-03-24T12:26:03.762Z</time>
      </trkpt>
      <trkpt lat="43.950542" lon="-1.323946">
        <ele>32.179411</ele>
        <time>2026-03-24T12:26:06.684Z</time>
      </trkpt>
      <trkpt lat="43.950591" lon="-1.323739">
        <ele>32.245866</ele>
        <time>2026-03-24T12:26:08.250Z</time>
      </trkpt>
      <trkpt lat="43.950608" lon="-1.323480">
        <ele>32.325183</ele>
        <time>2026-03-24T12:26:10.167Z</time>
      </trkpt>
      <trkpt lat="43.950604" lon="-1.322583">
        <ele>32.598751</ele>
        <time>2026-03-24T12:26:18.068Z</time>
      </trkpt>
      <trkpt lat="43.950644" lon="-1.321871">
        <ele>32.816553</ele>
        <time>2026-03-24T12:26:24.607Z</time>
      </trkpt>
      <trkpt lat="43.950621" lon="-1.321609">
        <ele>32.819629</ele>
        <time>2026-03-24T12:26:26.986Z</time>
      </trkpt>
      <trkpt lat="43.950569" lon="-1.321350">
        <ele>32.810030</ele>
        <time>2026-03-24T12:26:29.356Z</time>
      </trkpt>
      <trkpt lat="43.950030" lon="-1.319858">
        <ele>32.750437</ele>
        <time>2026-03-24T12:26:41.525Z</time>
      </trkpt>
      <trkpt lat="43.948804" lon="-1.316041">
        <ele>29.957636</ele>
        <time>2026-03-24T12:27:08.319Z</time>
      </trkpt>
      <trkpt lat="43.948728" lon="-1.315744">
        <ele>29.713948</ele>
        <time>2026-03-24T12:27:10.289Z</time>
      </trkpt>
      <trkpt lat="43.948580" lon="-1.315005">
        <ele>29.120921</ele>
        <time>2026-03-24T12:27:15.118Z</time>
      </trkpt>
      <trkpt lat="43.948522" lon="-1.314528">
        <ele>28.917222</ele>
        <time>2026-03-24T12:27:18.169Z</time>
      </trkpt>
      <trkpt lat="43.948416" lon="-1.313201">
        <ele>28.431273</ele>
        <time>2026-03-24T12:27:26.966Z</time>
      </trkpt>
      <trkpt lat="43.948425" lon="-1.312287">
        <ele>28.282388</ele>
        <time>2026-03-24T12:27:34.091Z</time>
      </trkpt>
      <trkpt lat="43.948542" lon="-1.311461">
        <ele>28.901361</ele>
        <time>2026-03-24T12:27:41.777Z</time>
      </trkpt>
      <trkpt lat="43.948610" lon="-1.311081">
        <ele>29.189264</ele>
        <time>2026-03-24T12:27:45.659Z</time>
      </trkpt>
      <trkpt lat="43.948684" lon="-1.310668">
        <ele>29.502191</ele>
        <time>2026-03-24T12:27:50.102Z</time>
      </trkpt>
      <trkpt lat="43.949140" lon="-1.307997">
        <ele>31.529923</ele>
        <time>2026-03-24T12:28:17.192Z</time>
      </trkpt>
      <trkpt lat="43.949391" lon="-1.306398">
        <ele>31.275331</ele>
        <time>2026-03-24T12:28:29.637Z</time>
      </trkpt>
      <trkpt lat="43.949570" lon="-1.305789">
        <ele>30.966254</ele>
        <time>2026-03-24T12:28:33.692Z</time>
      </trkpt>
      <trkpt lat="43.949900" lon="-1.304893">
        <ele>30.355855</ele>
        <time>2026-03-24T12:28:39.729Z</time>
      </trkpt>
      <trkpt lat="43.950398" lon="-1.303661">
        <ele>29.177037</ele>
        <time>2026-03-24T12:28:48.492Z</time>
      </trkpt>
      <trkpt lat="43.950419" lon="-1.303512">
        <ele>29.050364</ele>
        <time>2026-03-24T12:28:49.576Z</time>
      </trkpt>
      <trkpt lat="43.950380" lon="-1.303215">
        <ele>28.798483</ele>
        <time>2026-03-24T12:28:51.647Z</time>
      </trkpt>
      <trkpt lat="43.950208" lon="-1.302449">
        <ele>28.428493</ele>
        <time>2026-03-24T12:28:57.060Z</time>
      </trkpt>
      <trkpt lat="43.950137" lon="-1.302115">
        <ele>28.328243</ele>
        <time>2026-03-24T12:28:59.478Z</time>
      </trkpt>
      <trkpt lat="43.950071" lon="-1.301813">
        <ele>28.237391</ele>
        <time>2026-03-24T12:29:01.599Z</time>
      </trkpt>
      <trkpt lat="43.949968" lon="-1.301864">
        <ele>28.193668</ele>
        <time>2026-03-24T12:29:02.664Z</time>
      </trkpt>
      <trkpt lat="43.949885" lon="-1.301628">
        <ele>28.118059</ele>
        <time>2026-03-24T12:29:04.505Z</time>
      </trkpt>
      <trkpt lat="43.949766" lon="-1.301314">
        <ele>28.015911</ele>
        <time>2026-03-24T12:29:07.073Z</time>
      </trkpt>
      <trkpt lat="43.949618" lon="-1.300936">
        <ele>27.892047</ele>
        <time>2026-03-24T12:29:10.150Z</time>
      </trkpt>
      <trkpt lat="43.949543" lon="-1.300730">
        <ele>27.825077</ele>
        <time>2026-03-24T12:29:11.757Z</time>
      </trkpt>
      <trkpt lat="43.949470" lon="-1.300536">
        <ele>27.761276</ele>
        <time>2026-03-24T12:29:13.342Z</time>
      </trkpt>
      <trkpt lat="43.949298" lon="-1.300132">
        <ele>27.624477</ele>
        <time>2026-03-24T12:29:16.798Z</time>
      </trkpt>
      <trkpt lat="43.949101" lon="-1.299795">
        <ele>27.497953</ele>
        <time>2026-03-24T12:29:19.872Z</time>
      </trkpt>
      <trkpt lat="43.948851" lon="-1.299464">
        <ele>27.358129</ele>
        <time>2026-03-24T12:29:23.143Z</time>
      </trkpt>
      <trkpt lat="43.948892" lon="-1.299407">
        <ele>27.334645</ele>
        <time>2026-03-24T12:29:23.790Z</time>
      </trkpt>
      <trkpt lat="43.948875" lon="-1.299326">
        <ele>27.310054</ele>
        <time>2026-03-24T12:29:24.452Z</time>
      </trkpt>
      <trkpt lat="43.948822" lon="-1.299257">
        <ele>27.280646</ele>
        <time>2026-03-24T12:29:25.237Z</time>
      </trkpt>
      <trkpt lat="43.948371" lon="-1.298718">
        <ele>27.111341</ele>
        <time>2026-03-24T12:29:31.595Z</time>
      </trkpt>
      <trkpt lat="43.948224" lon="-1.298467">
        <ele>27.085111</ele>
        <time>2026-03-24T12:29:34.165Z</time>
      </trkpt>
      <trkpt lat="43.948077" lon="-1.298137">
        <ele>27.053651</ele>
        <time>2026-03-24T12:29:37.375Z</time>
      </trkpt>
      <trkpt lat="43.947913" lon="-1.297608">
        <ele>27.006959</ele>
        <time>2026-03-24T12:29:42.468Z</time>
      </trkpt>
      <trkpt lat="43.947874" lon="-1.297641">
        <ele>27.001817</ele>
        <time>2026-03-24T12:29:45.607Z</time>
      </trkpt>
      <trkpt lat="43.947840" lon="-1.297532">
        <ele>26.992187</ele>
        <time>2026-03-24T12:29:46.565Z</time>
      </trkpt>
      <trkpt lat="43.947685" lon="-1.296999">
        <ele>26.945585</ele>
        <time>2026-03-24T12:29:51.267Z</time>
      </trkpt>
      <trkpt lat="43.947520" lon="-1.296451">
        <ele>26.652634</ele>
        <time>2026-03-24T12:29:55.981Z</time>
      </trkpt>
      <trkpt lat="43.947452" lon="-1.296225">
        <ele>26.507993</ele>
        <time>2026-03-24T12:29:57.837Z</time>
      </trkpt>
      <trkpt lat="43.947397" lon="-1.296046">
        <ele>26.393067</ele>
        <time>2026-03-24T12:29:59.271Z</time>
      </trkpt>
      <trkpt lat="43.946822" lon="-1.294132">
        <ele>24.948154</ele>
        <time>2026-03-24T12:30:12.109Z</time>
      </trkpt>
      <trkpt lat="43.946657" lon="-1.293693">
        <ele>24.435769</ele>
        <time>2026-03-24T12:30:15.017Z</time>
      </trkpt>
      <trkpt lat="43.946574" lon="-1.293543">
        <ele>24.240029</ele>
        <time>2026-03-24T12:30:16.156Z</time>
      </trkpt>
      <trkpt lat="43.946515" lon="-1.293519">
        <ele>24.151681</ele>
        <time>2026-03-24T12:30:16.674Z</time>
      </trkpt>
      <trkpt lat="43.946464" lon="-1.293452">
        <ele>24.050799</ele>
        <time>2026-03-24T12:30:17.272Z</time>
      </trkpt>
      <trkpt lat="43.946286" lon="-1.293588">
        <ele>23.758852</ele>
        <time>2026-03-24T12:30:18.968Z</time>
      </trkpt>
      <trkpt lat="43.945478" lon="-1.293646">
        <ele>22.890968</ele>
        <time>2026-03-24T12:30:25.937Z</time>
      </trkpt>
      <trkpt lat="43.945015" lon="-1.293689">
        <ele>22.925644</ele>
        <time>2026-03-24T12:30:30.347Z</time>
      </trkpt>
      <trkpt lat="43.944968" lon="-1.293704">
        <ele>22.929248</ele>
        <time>2026-03-24T12:30:30.847Z</time>
      </trkpt>
      <trkpt lat="43.944875" lon="-1.293734">
        <ele>22.936382</ele>
        <time>2026-03-24T12:30:31.843Z</time>
      </trkpt>
      <trkpt lat="43.944691" lon="-1.293837">
        <ele>22.951207</ele>
        <time>2026-03-24T12:30:33.902Z</time>
      </trkpt>
      <trkpt lat="43.943664" lon="-1.294582">
        <ele>23.500049</ele>
        <time>2026-03-24T12:30:48.548Z</time>
      </trkpt>
      <trkpt lat="43.943490" lon="-1.294708">
        <ele>23.765893</ele>
        <time>2026-03-24T12:30:51.480Z</time>
      </trkpt>
      <trkpt lat="43.943309" lon="-1.294770">
        <ele>24.018451</ele>
        <time>2026-03-24T12:30:54.272Z</time>
      </trkpt>
      <trkpt lat="43.943202" lon="-1.294758">
        <ele>24.163882</ele>
        <time>2026-03-24T12:30:55.886Z</time>
      </trkpt>
      <trkpt lat="43.942938" lon="-1.294623">
        <ele>24.545010</ele>
        <time>2026-03-24T12:31:00.082Z</time>
      </trkpt>
      <trkpt lat="43.942756" lon="-1.294585">
        <ele>24.794345</ele>
        <time>2026-03-24T12:31:02.796Z</time>
      </trkpt>
      <trkpt lat="43.942597" lon="-1.294591">
        <ele>25.009830</ele>
        <time>2026-03-24T12:31:05.122Z</time>
      </trkpt>
      <trkpt lat="43.942119" lon="-1.294729">
        <ele>25.548020</ele>
        <time>2026-03-24T12:31:11.856Z</time>
      </trkpt>
      <trkpt lat="43.941908" lon="-1.294924">
        <ele>25.702261</ele>
        <time>2026-03-24T12:31:14.935Z</time>
      </trkpt>
      <trkpt lat="43.941571" lon="-1.294661">
        <ele>25.937514</ele>
        <time>2026-03-24T12:31:20.003Z</time>
      </trkpt>
      <trkpt lat="43.941352" lon="-1.294355">
        <ele>26.126572</ele>
        <time>2026-03-24T12:31:24.013Z</time>
      </trkpt>
      <trkpt lat="43.941262" lon="-1.294171">
        <ele>26.224046</ele>
        <time>2026-03-24T12:31:26.094Z</time>
      </trkpt>
      <trkpt lat="43.941151" lon="-1.293864">
        <ele>26.374583</ele>
        <time>2026-03-24T12:31:29.342Z</time>
      </trkpt>
      <trkpt lat="43.941136" lon="-1.293823">
        <ele>26.394735</ele>
        <time>2026-03-24T12:31:29.774Z</time>
      </trkpt>
      <trkpt lat="43.940836" lon="-1.292620">
        <ele>26.679837</ele>
        <time>2026-03-24T12:31:41.497Z</time>
      </trkpt>
      <trkpt lat="43.940797" lon="-1.292566">
        <ele>26.691080</ele>
        <time>2026-03-24T12:31:42.189Z</time>
      </trkpt>
      <trkpt lat="43.940715" lon="-1.292563">
        <ele>26.707827</ele>
        <time>2026-03-24T12:31:43.096Z</time>
      </trkpt>
      <trkpt lat="43.940410" lon="-1.292743">
        <ele>26.775486</ele>
        <time>2026-03-24T12:31:46.636Z</time>
      </trkpt>
      <trkpt lat="43.940206" lon="-1.292904">
        <ele>26.823391</ele>
        <time>2026-03-24T12:31:49.079Z</time>
      </trkpt>
      <trkpt lat="43.939688" lon="-1.293596">
        <ele>26.999240</ele>
        <time>2026-03-24T12:31:56.585Z</time>
      </trkpt>
      <trkpt lat="43.939599" lon="-1.293663">
        <ele>27.029804</ele>
        <time>2026-03-24T12:31:57.672Z</time>
      </trkpt>
      <trkpt lat="43.939352" lon="-1.293689">
        <ele>27.104590</ele>
        <time>2026-03-24T12:32:00.411Z</time>
      </trkpt>
      <trkpt lat="43.938725" lon="-1.293658">
        <ele>27.294007</ele>
        <time>2026-03-24T12:32:07.581Z</time>
      </trkpt>
      <trkpt lat="43.938429" lon="-1.293724">
        <ele>27.384517</ele>
        <time>2026-03-24T12:32:11.100Z</time>
      </trkpt>
      <trkpt lat="43.937483" lon="-1.293957">
        <ele>27.436704</ele>
        <time>2026-03-24T12:32:21.571Z</time>
      </trkpt>
      <trkpt lat="43.937412" lon="-1.293949">
        <ele>27.435188</ele>
        <time>2026-03-24T12:32:22.297Z</time>
      </trkpt>
      <trkpt lat="43.937359" lon="-1.293905">
        <ele>27.433873</ele>
        <time>2026-03-24T12:32:22.925Z</time>
      </trkpt>
      <trkpt lat="43.936701" lon="-1.291282">
        <ele>27.422411</ele>
        <time>2026-03-24T12:32:42.780Z</time>
      </trkpt>
      <trkpt lat="43.935898" lon="-1.289319">
        <ele>27.644192</ele>
        <time>2026-03-24T12:33:00.674Z</time>
      </trkpt>
      <trkpt lat="43.935589" lon="-1.288443">
        <ele>27.813320</ele>
        <time>2026-03-24T12:33:08.584Z</time>
      </trkpt>
      <trkpt lat="43.934447" lon="-1.284481">
        <ele>27.837055</ele>
        <time>2026-03-24T12:33:39.995Z</time>
      </trkpt>
      <trkpt lat="43.934182" lon="-1.283564">
        <ele>27.795429</ele>
        <time>2026-03-24T12:33:47.106Z</time>
      </trkpt>
      <trkpt lat="43.934040" lon="-1.282907">
        <ele>27.859989</ele>
        <time>2026-03-24T12:33:52.063Z</time>
      </trkpt>
      <trkpt lat="43.934013" lon="-1.282585">
        <ele>27.891517</ele>
        <time>2026-03-24T12:33:54.418Z</time>
      </trkpt>
      <trkpt lat="43.934001" lon="-1.280705">
        <ele>28.335121</ele>
        <time>2026-03-24T12:34:09.189Z</time>
      </trkpt>
      <trkpt lat="43.933982" lon="-1.279709">
        <ele>29.120934</ele>
        <time>2026-03-24T12:34:18.841Z</time>
      </trkpt>
      <trkpt lat="43.933871" lon="-1.278988">
        <ele>29.702431</ele>
        <time>2026-03-24T12:34:26.565Z</time>
      </trkpt>
      <trkpt lat="43.933815" lon="-1.278732">
        <ele>29.913447</ele>
        <time>2026-03-24T12:34:29.346Z</time>
      </trkpt>
      <trkpt lat="43.933689" lon="-1.278368">
        <ele>30.107428</ele>
        <time>2026-03-24T12:34:33.432Z</time>
      </trkpt>
      <trkpt lat="43.933497" lon="-1.277978">
        <ele>30.273247</ele>
        <time>2026-03-24T12:34:38.054Z</time>
      </trkpt>
      <trkpt lat="43.932422" lon="-1.276101">
        <ele>30.568521</ele>
        <time>2026-03-24T12:34:56.199Z</time>
      </trkpt>
      <trkpt lat="43.932255" lon="-1.275651">
        <ele>30.325488</ele>
        <time>2026-03-24T12:34:59.486Z</time>
      </trkpt>
      <trkpt lat="43.932172" lon="-1.275219">
        <ele>30.110841</ele>
        <time>2026-03-24T12:35:02.324Z</time>
      </trkpt>
      <trkpt lat="43.931958" lon="-1.271333">
        <ele>28.467258</ele>
        <time>2026-03-24T12:35:27.517Z</time>
      </trkpt>
      <trkpt lat="43.931879" lon="-1.271035">
        <ele>28.702949</ele>
        <time>2026-03-24T12:35:30.296Z</time>
      </trkpt>
      <trkpt lat="43.931749" lon="-1.270762">
        <ele>28.945866</ele>
        <time>2026-03-24T12:35:33.444Z</time>
      </trkpt>
      <trkpt lat="43.931637" lon="-1.270595">
        <ele>29.115241</ele>
        <time>2026-03-24T12:35:35.811Z</time>
      </trkpt>
      <trkpt lat="43.931256" lon="-1.269991">
        <ele>29.711198</ele>
        <time>2026-03-24T12:35:45.077Z</time>
      </trkpt>
      <trkpt lat="43.931207" lon="-1.269913">
        <ele>29.788022</ele>
        <time>2026-03-24T12:35:46.305Z</time>
      </trkpt>
      <trkpt lat="43.930891" lon="-1.269074">
        <ele>30.621752</ele>
        <time>2026-03-24T12:35:57.151Z</time>
      </trkpt>
      <trkpt lat="43.929893" lon="-1.266904">
        <ele>32.322145</ele>
        <time>2026-03-24T12:36:20.709Z</time>
      </trkpt>
      <trkpt lat="43.929642" lon="-1.266522">
        <ele>32.377313</ele>
        <time>2026-03-24T12:36:24.697Z</time>
      </trkpt>
      <trkpt lat="43.928994" lon="-1.265786">
        <ele>32.500567</ele>
        <time>2026-03-24T12:36:32.919Z</time>
      </trkpt>
      <trkpt lat="43.928699" lon="-1.265487">
        <ele>32.237479</ele>
        <time>2026-03-24T12:36:36.313Z</time>
      </trkpt>
      <trkpt lat="43.928496" lon="-1.265125">
        <ele>31.999466</ele>
        <time>2026-03-24T12:36:39.317Z</time>
      </trkpt>
      <trkpt lat="43.928235" lon="-1.264529">
        <ele>31.637600</ele>
        <time>2026-03-24T12:36:43.834Z</time>
      </trkpt>
      <trkpt lat="43.927967" lon="-1.263918">
        <ele>31.266465</ele>
        <time>2026-03-24T12:36:48.517Z</time>
      </trkpt>
      <trkpt lat="43.927734" lon="-1.263486">
        <ele>31.156729</ele>
        <time>2026-03-24T12:36:52.154Z</time>
      </trkpt>
      <trkpt lat="43.927141" lon="-1.262625">
        <ele>31.018898</ele>
        <time>2026-03-24T12:37:00.752Z</time>
      </trkpt>
      <trkpt lat="43.926541" lon="-1.261491">
        <ele>30.906965</ele>
        <time>2026-03-24T12:37:11.571Z</time>
      </trkpt>
      <trkpt lat="43.926512" lon="-1.261434">
        <ele>30.905672</ele>
        <time>2026-03-24T12:37:12.104Z</time>
      </trkpt>
      <trkpt lat="43.926253" lon="-1.260690">
        <ele>30.890365</ele>
        <time>2026-03-24T12:37:18.409Z</time>
      </trkpt>
      <trkpt lat="43.925889" lon="-1.259367">
        <ele>30.874174</ele>
        <time>2026-03-24T12:37:28.538Z</time>
      </trkpt>
      <trkpt lat="43.925767" lon="-1.258987">
        <ele>30.878810</ele>
        <time>2026-03-24T12:37:31.551Z</time>
      </trkpt>
      <trkpt lat="43.925767" lon="-1.258987">
        <ele>30.878810</ele>
        <time>2026-03-24T12:37:31.554Z</time>
      </trkpt>
      <trkpt lat="43.925504" lon="-1.259157">
        <ele>30.883299</ele>
        <time>2026-03-24T12:37:37.757Z</time>
      </trkpt>
      <trkpt lat="43.924878" lon="-1.259767">
        <ele>30.895133</ele>
        <time>2026-03-24T12:37:54.111Z</time>
      </trkpt>
      <trkpt lat="43.924252" lon="-1.260377">
        <ele>31.130091</ele>
        <time>2026-03-24T12:38:10.465Z</time>
      </trkpt>
      <trkpt lat="43.923552" lon="-1.261029">
        <ele>31.476298</ele>
        <time>2026-03-24T12:38:28.490Z</time>
      </trkpt>
      <trkpt lat="43.922853" lon="-1.261682">
        <ele>31.556815</ele>
        <time>2026-03-24T12:38:46.510Z</time>
      </trkpt>
      <trkpt lat="43.922763" lon="-1.261562">
        <ele>31.534654</ele>
        <time>2026-03-24T12:38:48.998Z</time>
      </trkpt>
      <trkpt lat="43.921429" lon="-1.259688">
        <ele>30.910784</ele>
        <time>2026-03-24T12:39:23.676Z</time>
      </trkpt>
      <trkpt lat="43.921244" lon="-1.259360">
        <ele>30.730024</ele>
        <time>2026-03-24T12:39:29.051Z</time>
      </trkpt>
      <trkpt lat="43.920876" lon="-1.258995">
        <ele>30.457582</ele>
        <time>2026-03-24T12:39:37.213Z</time>
      </trkpt>
      <trkpt lat="43.920265" lon="-1.258142">
        <ele>29.834285</ele>
        <time>2026-03-24T12:39:52.824Z</time>
      </trkpt>
      <trkpt lat="43.919929" lon="-1.257675">
        <ele>29.450644</ele>
        <time>2026-03-24T12:40:01.211Z</time>
      </trkpt>
      <trkpt lat="43.919286" lon="-1.256699">
        <ele>28.762464</ele>
        <time>2026-03-24T12:40:17.859Z</time>
      </trkpt>
      <trkpt lat="43.919286" lon="-1.256699">
        <ele>28.762464</ele>
        <time>2026-03-24T12:40:17.861Z</time>
      </trkpt>
      <trkpt lat="43.918781" lon="-1.256001">
        <ele>28.646994</ele>
        <time>2026-03-24T12:40:33.099Z</time>
      </trkpt>
      <trkpt lat="43.918204" lon="-1.255189">
        <ele>28.513863</ele>
        <time>2026-03-24T12:40:50.658Z</time>
      </trkpt>
      <trkpt lat="43.917966" lon="-1.255881">
        <ele>28.301945</ele>
        <time>2026-03-24T12:40:56.685Z</time>
      </trkpt>
      <trkpt lat="43.917552" lon="-1.256530">
        <ele>28.015631</ele>
        <time>2026-03-24T12:41:03.630Z</time>
      </trkpt>
      <trkpt lat="43.915475" lon="-1.259788">
        <ele>26.102153</ele>
        <time>2026-03-24T12:41:37.271Z</time>
      </trkpt>
      <trkpt lat="43.915267" lon="-1.260102">
        <ele>26.059640</ele>
        <time>2026-03-24T12:41:40.566Z</time>
      </trkpt>
      <trkpt lat="43.910639" lon="-1.267302">
        <ele>25.318734</ele>
        <time>2026-03-24T12:43:52.878Z</time>
      </trkpt>
      <trkpt lat="43.910398" lon="-1.267677">
        <ele>25.267269</ele>
        <time>2026-03-24T12:43:59.787Z</time>
      </trkpt>
      <trkpt lat="43.910144" lon="-1.268005">
        <ele>25.217953</ele>
        <time>2026-03-24T12:44:06.366Z</time>
      </trkpt>
      <trkpt lat="43.910086" lon="-1.268080">
        <ele>25.206685</ele>
        <time>2026-03-24T12:44:07.864Z</time>
      </trkpt>
      <trkpt lat="43.909869" lon="-1.268309">
        <ele>25.167934</ele>
        <time>2026-03-24T12:44:12.923Z</time>
      </trkpt>
      <trkpt lat="43.909370" lon="-1.268924">
        <ele>24.529315</ele>
        <time>2026-03-24T12:44:24.982Z</time>
      </trkpt>
      <trkpt lat="43.908890" lon="-1.269444">
        <ele>23.859509</ele>
        <time>2026-03-24T12:44:35.581Z</time>
      </trkpt>
      <trkpt lat="43.907594" lon="-1.270410">
        <ele>22.187988</ele>
        <time>2026-03-24T12:45:00.329Z</time>
      </trkpt>
      <trkpt lat="43.907051" lon="-1.270957">
        <ele>21.407797</ele>
        <time>2026-03-24T12:45:12.056Z</time>
      </trkpt>
      <trkpt lat="43.907012" lon="-1.270995">
        <ele>21.352388</ele>
        <time>2026-03-24T12:45:12.915Z</time>
      </trkpt>
      <trkpt lat="43.906833" lon="-1.271016">
        <ele>21.143498</ele>
        <time>2026-03-24T12:45:16.177Z</time>
      </trkpt>
      <trkpt lat="43.906313" lon="-1.271075">
        <ele>20.956532</ele>
        <time>2026-03-24T12:45:25.926Z</time>
      </trkpt>
      <trkpt lat="43.906260" lon="-1.271081">
        <ele>20.942158</ele>
        <time>2026-03-24T12:45:26.944Z</time>
      </trkpt>
      <trkpt lat="43.905087" lon="-1.271448">
        <ele>20.617122</ele>
        <time>2026-03-24T12:45:50.248Z</time>
      </trkpt>
      <trkpt lat="43.903910" lon="-1.272127">
        <ele>18.884713</ele>
        <time>2026-03-24T12:46:12.044Z</time>
      </trkpt>
      <trkpt lat="43.903749" lon="-1.272314">
        <ele>18.585534</ele>
        <time>2026-03-24T12:46:15.364Z</time>
      </trkpt>
      <trkpt lat="43.903614" lon="-1.272253">
        <ele>18.383210</ele>
        <time>2026-03-24T12:46:17.609Z</time>
      </trkpt>
      <trkpt lat="43.903025" lon="-1.272274">
        <ele>18.258295</ele>
        <time>2026-03-24T12:46:27.428Z</time>
      </trkpt>
      <trkpt lat="43.903006" lon="-1.272265">
        <ele>18.271358</ele>
        <time>2026-03-24T12:46:27.843Z</time>
      </trkpt>
      <trkpt lat="43.902934" lon="-1.272268">
        <ele>18.318229</ele>
        <time>2026-03-24T12:46:29.127Z</time>
      </trkpt>
      <trkpt lat="43.902737" lon="-1.272357">
        <ele>18.453034</ele>
        <time>2026-03-24T12:46:32.910Z</time>
      </trkpt>
      <trkpt lat="43.902612" lon="-1.272338">
        <ele>18.534856</ele>
        <time>2026-03-24T12:46:35.286Z</time>
      </trkpt>
      <trkpt lat="43.902403" lon="-1.272140">
        <ele>18.699511</ele>
        <time>2026-03-24T12:46:40.733Z</time>
      </trkpt>
      <trkpt lat="43.902320" lon="-1.272028">
        <ele>18.774837</ele>
        <time>2026-03-24T12:46:43.457Z</time>
      </trkpt>
      <trkpt lat="43.902230" lon="-1.271841">
        <ele>18.880269</ele>
        <time>2026-03-24T12:46:47.418Z</time>
      </trkpt>
      <trkpt lat="43.902069" lon="-1.271417">
        <ele>19.104970</ele>
        <time>2026-03-24T12:46:56.402Z</time>
      </trkpt>
      <trkpt lat="43.902036" lon="-1.271154">
        <ele>19.243793</ele>
        <time>2026-03-24T12:47:01.634Z</time>
      </trkpt>
      <trkpt lat="43.901831" lon="-1.271252">
        <ele>19.460380</ele>
        <time>2026-03-24T12:47:07.642Z</time>
      </trkpt>
      <trkpt lat="43.901552" lon="-1.271062">
        <ele>19.770824</ele>
        <time>2026-03-24T12:47:15.818Z</time>
      </trkpt>
      <trkpt lat="43.901360" lon="-1.271027">
        <ele>19.964265</ele>
        <time>2026-03-24T12:47:20.542Z</time>
      </trkpt>
      <trkpt lat="43.901240" lon="-1.271132">
        <ele>20.105971</ele>
        <time>2026-03-24T12:47:23.630Z</time>
      </trkpt>
      <trkpt lat="43.901141" lon="-1.270943">
        <ele>20.274154</ele>
        <time>2026-03-24T12:47:26.940Z</time>
      </trkpt>
      <trkpt lat="43.901004" lon="-1.270683">
        <ele>20.505993</ele>
        <time>2026-03-24T12:47:31.266Z</time>
      </trkpt>
      <trkpt lat="43.900768" lon="-1.270120">
        <ele>20.974807</ele>
        <time>2026-03-24T12:47:39.779Z</time>
      </trkpt>
      <trkpt lat="43.900631" lon="-1.269992">
        <ele>20.965783</ele>
        <time>2026-03-24T12:47:42.804Z</time>
      </trkpt>
      <trkpt lat="43.900418" lon="-1.269884">
        <ele>20.907664</ele>
        <time>2026-03-24T12:47:46.964Z</time>
      </trkpt>
      <trkpt lat="43.900283" lon="-1.269766">
        <ele>20.866774</ele>
        <time>2026-03-24T12:47:49.874Z</time>
      </trkpt>
      <trkpt lat="43.899974" lon="-1.269270">
        <ele>20.745689</ele>
        <time>2026-03-24T12:47:58.352Z</time>
      </trkpt>
      <trkpt lat="43.899966" lon="-1.269262">
        <ele>20.743162</ele>
        <time>2026-03-24T12:47:58.531Z</time>
      </trkpt>
      <trkpt lat="43.899833" lon="-1.269142">
        <ele>20.702505</ele>
        <time>2026-03-24T12:48:01.395Z</time>
      </trkpt>
      <trkpt lat="43.899734" lon="-1.268097">
        <ele>20.568553</ele>
        <time>2026-03-24T12:48:11.142Z</time>
      </trkpt>
      <trkpt lat="43.899064" lon="-1.261013">
        <ele>21.617550</ele>
        <time>2026-03-24T12:49:15.419Z</time>
      </trkpt>
      <trkpt lat="43.898843" lon="-1.261114">
        <ele>21.625009</ele>
        <time>2026-03-24T12:49:17.774Z</time>
      </trkpt>
      <trkpt lat="43.898229" lon="-1.261396">
        <ele>21.552897</ele>
        <time>2026-03-24T12:49:24.363Z</time>
      </trkpt>
      <trkpt lat="43.897504" lon="-1.261589">
        <ele>21.470586</ele>
        <time>2026-03-24T12:49:31.734Z</time>
      </trkpt>
      <trkpt lat="43.894365" lon="-1.261873">
        <ele>21.041962</ele>
        <time>2026-03-24T12:50:03.002Z</time>
      </trkpt>
      <trkpt lat="43.894068" lon="-1.261895">
        <ele>21.025636</ele>
        <time>2026-03-24T12:50:06.191Z</time>
      </trkpt>
      <trkpt lat="43.893525" lon="-1.261936">
        <ele>20.963585</ele>
        <time>2026-03-24T12:50:12.062Z</time>
      </trkpt>
      <trkpt lat="43.893346" lon="-1.261833">
        <ele>20.881708</ele>
        <time>2026-03-24T12:50:14.176Z</time>
      </trkpt>
      <trkpt lat="43.892696" lon="-1.260860">
        <ele>20.477725</ele>
        <time>2026-03-24T12:50:23.331Z</time>
      </trkpt>
      <trkpt lat="43.892502" lon="-1.260551">
        <ele>20.352940</ele>
        <time>2026-03-24T12:50:25.988Z</time>
      </trkpt>
      <trkpt lat="43.892287" lon="-1.260449">
        <ele>20.256934</ele>
        <time>2026-03-24T12:50:28.019Z</time>
      </trkpt>
      <trkpt lat="43.892055" lon="-1.260514">
        <ele>20.235777</ele>
        <time>2026-03-24T12:50:30.155Z</time>
      </trkpt>
      <trkpt lat="43.891553" lon="-1.260921">
        <ele>20.221559</ele>
        <time>2026-03-24T12:50:35.778Z</time>
      </trkpt>
      <trkpt lat="43.891233" lon="-1.261181">
        <ele>20.212490</ele>
        <time>2026-03-24T12:50:39.766Z</time>
      </trkpt>
      <trkpt lat="43.891008" lon="-1.261311">
        <ele>20.206530</ele>
        <time>2026-03-24T12:50:42.445Z</time>
      </trkpt>
      <trkpt lat="43.890824" lon="-1.261356">
        <ele>20.201961</ele>
        <time>2026-03-24T12:50:44.551Z</time>
      </trkpt>
      <trkpt lat="43.890675" lon="-1.261353">
        <ele>20.198316</ele>
        <time>2026-03-24T12:50:46.297Z</time>
      </trkpt>
      <trkpt lat="43.890513" lon="-1.261318">
        <ele>20.259161</ele>
        <time>2026-03-24T12:50:48.317Z</time>
      </trkpt>
      <trkpt lat="43.890334" lon="-1.261231">
        <ele>20.383750</ele>
        <time>2026-03-24T12:50:50.736Z</time>
      </trkpt>
      <trkpt lat="43.890091" lon="-1.261047">
        <ele>20.565597</ele>
        <time>2026-03-24T12:50:54.338Z</time>
      </trkpt>
      <trkpt lat="43.889842" lon="-1.260847">
        <ele>20.754592</ele>
        <time>2026-03-24T12:50:58.023Z</time>
      </trkpt>
      <trkpt lat="43.889348" lon="-1.260463">
        <ele>21.126550</ele>
        <time>2026-03-24T12:51:04.712Z</time>
      </trkpt>
      <trkpt lat="43.888659" lon="-1.259928">
        <ele>21.413908</ele>
        <time>2026-03-24T12:51:13.760Z</time>
      </trkpt>
      <trkpt lat="43.888440" lon="-1.259721">
        <ele>21.437209</ele>
        <time>2026-03-24T12:51:16.718Z</time>
      </trkpt>
      <trkpt lat="43.888337" lon="-1.259551">
        <ele>21.451284</ele>
        <time>2026-03-24T12:51:18.454Z</time>
      </trkpt>
      <trkpt lat="43.888161" lon="-1.259119">
        <ele>21.482733</ele>
        <time>2026-03-24T12:51:22.186Z</time>
      </trkpt>
      <trkpt lat="43.887662" lon="-1.257088">
        <ele>20.865757</ele>
        <time>2026-03-24T12:51:37.328Z</time>
      </trkpt>
      <trkpt lat="43.887421" lon="-1.256416">
        <ele>20.478625</ele>
        <time>2026-03-24T12:51:42.286Z</time>
      </trkpt>
      <trkpt lat="43.886345" lon="-1.254160">
        <ele>17.976639</ele>
        <time>2026-03-24T12:51:58.799Z</time>
      </trkpt>
      <trkpt lat="43.885482" lon="-1.252381">
        <ele>16.689633</ele>
        <time>2026-03-24T12:52:12.737Z</time>
      </trkpt>
      <trkpt lat="43.885414" lon="-1.252252">
        <ele>16.601697</ele>
        <time>2026-03-24T12:52:13.874Z</time>
      </trkpt>
      <trkpt lat="43.885097" lon="-1.251644">
        <ele>16.282010</ele>
        <time>2026-03-24T12:52:19.227Z</time>
      </trkpt>
      <trkpt lat="43.884966" lon="-1.251494">
        <ele>16.220186</ele>
        <time>2026-03-24T12:52:20.917Z</time>
      </trkpt>
      <trkpt lat="43.884844" lon="-1.251391">
        <ele>16.168203</ele>
        <time>2026-03-24T12:52:22.349Z</time>
      </trkpt>
      <trkpt lat="43.883829" lon="-1.250530">
        <ele>15.735168</ele>
        <time>2026-03-24T12:52:33.707Z</time>
      </trkpt>
      <trkpt lat="43.883544" lon="-1.250360">
        <ele>15.748783</ele>
        <time>2026-03-24T12:52:36.643Z</time>
      </trkpt>
      <trkpt lat="43.881899" lon="-1.249537">
        <ele>16.290624</ele>
        <time>2026-03-24T12:52:55.225Z</time>
      </trkpt>
      <trkpt lat="43.881189" lon="-1.249174">
        <ele>17.489519</ele>
        <time>2026-03-24T12:53:06.646Z</time>
      </trkpt>
      <trkpt lat="43.881172" lon="-1.249165">
        <ele>17.518348</ele>
        <time>2026-03-24T12:53:06.944Z</time>
      </trkpt>
      <trkpt lat="43.880879" lon="-1.249022">
        <ele>18.010472</ele>
        <time>2026-03-24T12:53:12.094Z</time>
      </trkpt>
      <trkpt lat="43.880844" lon="-1.249006">
        <ele>18.068860</ele>
        <time>2026-03-24T12:53:12.677Z</time>
      </trkpt>
      <trkpt lat="43.880698" lon="-1.248932">
        <ele>18.315140</ele>
        <time>2026-03-24T12:53:15.225Z</time>
      </trkpt>
      <trkpt lat="43.880332" lon="-1.248747">
        <ele>18.895772</ele>
        <time>2026-03-24T12:53:21.503Z</time>
      </trkpt>
      <trkpt lat="43.880307" lon="-1.248737">
        <ele>18.922573</ele>
        <time>2026-03-24T12:53:21.898Z</time>
      </trkpt>
      <trkpt lat="43.880219" lon="-1.248694">
        <ele>19.018676</ele>
        <time>2026-03-24T12:53:23.340Z</time>
      </trkpt>
      <trkpt lat="43.878969" lon="-1.248067">
        <ele>20.387827</ele>
        <time>2026-03-24T12:53:40.191Z</time>
      </trkpt>
      <trkpt lat="43.878851" lon="-1.247994">
        <ele>20.520911</ele>
        <time>2026-03-24T12:53:41.568Z</time>
      </trkpt>
      <trkpt lat="43.878888" lon="-1.247880">
        <ele>20.613738</ele>
        <time>2026-03-24T12:53:42.570Z</time>
      </trkpt>
      <trkpt lat="43.877789" lon="-1.247292">
        <ele>21.662807</ele>
        <time>2026-03-24T12:53:58.595Z</time>
      </trkpt>
      <trkpt lat="43.875782" lon="-1.246218">
        <ele>24.258706</ele>
        <time>2026-03-24T12:54:31.735Z</time>
      </trkpt>
      <trkpt lat="43.875572" lon="-1.246161">
        <ele>24.549390</ele>
        <time>2026-03-24T12:54:35.236Z</time>
      </trkpt>
      <trkpt lat="43.873470" lon="-1.245646">
        <ele>27.829698</ele>
        <time>2026-03-24T12:55:10.187Z</time>
      </trkpt>
      <trkpt lat="43.872931" lon="-1.245404">
        <ele>28.397744</ele>
        <time>2026-03-24T12:55:19.008Z</time>
      </trkpt>
      <trkpt lat="43.871694" lon="-1.244726">
        <ele>29.402247</ele>
        <time>2026-03-24T12:55:37.435Z</time>
      </trkpt>
      <trkpt lat="43.871370" lon="-1.244620">
        <ele>29.387874</ele>
        <time>2026-03-24T12:55:41.340Z</time>
      </trkpt>
      <trkpt lat="43.870612" lon="-1.244511">
        <ele>29.354971</ele>
        <time>2026-03-24T12:55:49.930Z</time>
      </trkpt>
      <trkpt lat="43.866541" lon="-1.244016">
        <ele>28.756909</ele>
        <time>2026-03-24T12:56:37.237Z</time>
      </trkpt>
      <trkpt lat="43.866346" lon="-1.243991">
        <ele>28.871181</ele>
        <time>2026-03-24T12:56:39.697Z</time>
      </trkpt>
      <trkpt lat="43.865868" lon="-1.244022">
        <ele>29.150408</ele>
        <time>2026-03-24T12:56:45.807Z</time>
      </trkpt>
      <trkpt lat="43.865256" lon="-1.244061">
        <ele>29.507899</ele>
        <time>2026-03-24T12:56:54.419Z</time>
      </trkpt>
      <trkpt lat="43.865221" lon="-1.243894">
        <ele>29.581064</ele>
        <time>2026-03-24T12:56:57.136Z</time>
      </trkpt>
      <trkpt lat="43.865191" lon="-1.243843">
        <ele>29.608755</ele>
        <time>2026-03-24T12:56:58.165Z</time>
      </trkpt>
      <trkpt lat="43.865110" lon="-1.243705">
        <ele>29.683619</ele>
        <time>2026-03-24T12:57:00.977Z</time>
      </trkpt>
      <trkpt lat="43.864920" lon="-1.243555">
        <ele>29.878072</ele>
        <time>2026-03-24T12:57:05.776Z</time>
      </trkpt>
      <trkpt lat="43.864754" lon="-1.243507">
        <ele>30.081607</ele>
        <time>2026-03-24T12:57:09.503Z</time>
      </trkpt>
      <trkpt lat="43.862412" lon="-1.242829">
        <ele>33.140286</ele>
        <time>2026-03-24T12:58:03.137Z</time>
      </trkpt>
      <trkpt lat="43.861213" lon="-1.242488">
        <ele>34.947649</ele>
        <time>2026-03-24T12:58:31.704Z</time>
      </trkpt>
      <trkpt lat="43.854854" lon="-1.240677">
        <ele>45.485312</ele>
        <time>2026-03-24T13:01:04.988Z</time>
      </trkpt>
      <trkpt lat="43.850551" lon="-1.239500">
        <ele>49.033635</ele>
        <time>2026-03-24T13:02:38.359Z</time>
      </trkpt>
      <trkpt lat="43.849120" lon="-1.239109">
        <ele>49.123765</ele>
        <time>2026-03-24T13:03:05.501Z</time>
      </trkpt>
      <trkpt lat="43.848931" lon="-1.239061">
        <ele>49.129709</ele>
        <time>2026-03-24T13:03:09.073Z</time>
      </trkpt>
      <trkpt lat="43.845475" lon="-1.238193">
        <ele>49.372952</ele>
        <time>2026-03-24T13:04:17.112Z</time>
      </trkpt>
      <trkpt lat="43.840931" lon="-1.237050">
        <ele>49.474630</ele>
        <time>2026-03-24T13:05:45.499Z</time>
      </trkpt>
      <trkpt lat="43.835811" lon="-1.235788">
        <ele>49.277747</ele>
        <time>2026-03-24T13:07:24.173Z</time>
      </trkpt>
      <trkpt lat="43.834909" lon="-1.235566">
        <ele>49.221841</ele>
        <time>2026-03-24T13:07:41.523Z</time>
      </trkpt>
      <trkpt lat="43.834495" lon="-1.235463">
        <ele>49.197122</ele>
        <time>2026-03-24T13:07:49.473Z</time>
      </trkpt>
      <trkpt lat="43.827863" lon="-1.233807">
        <ele>49.031961</ele>
        <time>2026-03-24T13:09:57.307Z</time>
      </trkpt>
      <trkpt lat="43.827199" lon="-1.233558">
        <ele>49.566379</ele>
        <time>2026-03-24T13:10:11.813Z</time>
      </trkpt>
      <trkpt lat="43.824556" lon="-1.231605">
        <ele>51.806949</ele>
        <time>2026-03-24T13:11:16.604Z</time>
      </trkpt>
      <trkpt lat="43.818409" lon="-1.227062">
        <ele>49.461726</ele>
        <time>2026-03-24T13:13:24.716Z</time>
      </trkpt>
      <trkpt lat="43.815684" lon="-1.225024">
        <ele>48.911854</ele>
        <time>2026-03-24T13:14:22.839Z</time>
      </trkpt>
      <trkpt lat="43.811708" lon="-1.222051">
        <ele>48.289674</ele>
        <time>2026-03-24T13:15:47.928Z</time>
      </trkpt>
      <trkpt lat="43.806157" lon="-1.217933">
        <ele>46.875043</ele>
        <time>2026-03-24T13:17:46.253Z</time>
      </trkpt>
      <trkpt lat="43.806037" lon="-1.217844">
        <ele>46.806592</ele>
        <time>2026-03-24T13:17:48.686Z</time>
      </trkpt>
      <trkpt lat="43.805359" lon="-1.217341">
        <ele>46.028892</ele>
        <time>2026-03-24T13:18:01.956Z</time>
      </trkpt>
      <trkpt lat="43.804895" lon="-1.216997">
        <ele>45.161868</ele>
        <time>2026-03-24T13:18:10.719Z</time>
      </trkpt>
      <trkpt lat="43.804507" lon="-1.217095">
        <ele>44.512076</ele>
        <time>2026-03-24T13:18:17.260Z</time>
      </trkpt>
      <trkpt lat="43.804143" lon="-1.217060">
        <ele>43.910916</ele>
        <time>2026-03-24T13:18:23.352Z</time>
      </trkpt>
      <trkpt lat="43.803707" lon="-1.217106">
        <ele>43.180325</ele>
        <time>2026-03-24T13:18:30.588Z</time>
      </trkpt>
      <trkpt lat="43.803250" lon="-1.217199">
        <ele>42.401625</ele>
        <time>2026-03-24T13:18:38.300Z</time>
      </trkpt>
      <trkpt lat="43.802124" lon="-1.217304">
        <ele>40.541800</ele>
        <time>2026-03-24T13:18:57.275Z</time>
      </trkpt>
      <trkpt lat="43.801860" lon="-1.217478">
        <ele>40.266412</ele>
        <time>2026-03-24T13:19:02.199Z</time>
      </trkpt>
      <trkpt lat="43.801592" lon="-1.217542">
        <ele>40.010237</ele>
        <time>2026-03-24T13:19:06.842Z</time>
      </trkpt>
      <trkpt lat="43.801185" lon="-1.217756">
        <ele>39.600169</ele>
        <time>2026-03-24T13:19:14.419Z</time>
      </trkpt>
      <trkpt lat="43.800821" lon="-1.217867">
        <ele>39.249079</ele>
        <time>2026-03-24T13:19:21.131Z</time>
      </trkpt>
      <trkpt lat="43.800247" lon="-1.218093">
        <ele>38.843038</ele>
        <time>2026-03-24T13:19:32.375Z</time>
      </trkpt>
      <trkpt lat="43.800104" lon="-1.218180">
        <ele>38.802885</ele>
        <time>2026-03-24T13:19:35.380Z</time>
      </trkpt>
      <trkpt lat="43.799447" lon="-1.218790">
        <ele>38.599554</ele>
        <time>2026-03-24T13:19:50.558Z</time>
      </trkpt>
      <trkpt lat="43.798307" lon="-1.219591">
        <ele>37.964485</ele>
        <time>2026-03-24T13:20:13.574Z</time>
      </trkpt>
      <trkpt lat="43.797931" lon="-1.219853">
        <ele>37.659223</ele>
        <time>2026-03-24T13:20:20.984Z</time>
      </trkpt>
      <trkpt lat="43.797488" lon="-1.220012">
        <ele>37.327308</ele>
        <time>2026-03-24T13:20:29.155Z</time>
      </trkpt>
      <trkpt lat="43.797289" lon="-1.220163">
        <ele>37.162744</ele>
        <time>2026-03-24T13:20:33.235Z</time>
      </trkpt>
      <trkpt lat="43.796799" lon="-1.220317">
        <ele>36.999423</ele>
        <time>2026-03-24T13:20:42.365Z</time>
      </trkpt>
      <trkpt lat="43.796688" lon="-1.220338">
        <ele>36.966754</ele>
        <time>2026-03-24T13:20:44.441Z</time>
      </trkpt>
      <trkpt lat="43.796387" lon="-1.220303">
        <ele>36.878671</ele>
        <time>2026-03-24T13:20:50.069Z</time>
      </trkpt>
      <trkpt lat="43.796115" lon="-1.220353">
        <ele>36.798659</ele>
        <time>2026-03-24T13:20:55.243Z</time>
      </trkpt>
      <trkpt lat="43.795754" lon="-1.220491">
        <ele>36.689454</ele>
        <time>2026-03-24T13:21:02.329Z</time>
      </trkpt>
      <trkpt lat="43.795090" lon="-1.220541">
        <ele>36.267131</ele>
        <time>2026-03-24T13:21:14.905Z</time>
      </trkpt>
      <trkpt lat="43.794276" lon="-1.220360">
        <ele>35.547587</ele>
        <time>2026-03-24T13:21:29.741Z</time>
      </trkpt>
      <trkpt lat="43.793975" lon="-1.220355">
        <ele>35.284859</ele>
        <time>2026-03-24T13:21:34.877Z</time>
      </trkpt>
      <trkpt lat="43.793844" lon="-1.220408">
        <ele>35.165748</ele>
        <time>2026-03-24T13:21:37.170Z</time>
      </trkpt>
      <trkpt lat="43.793413" lon="-1.220679">
        <ele>34.503373</ele>
        <time>2026-03-24T13:21:45.030Z</time>
      </trkpt>
      <trkpt lat="43.793368" lon="-1.220707">
        <ele>34.423009</ele>
        <time>2026-03-24T13:21:45.831Z</time>
      </trkpt>
      <trkpt lat="43.793039" lon="-1.220833">
        <ele>33.866936</ele>
        <time>2026-03-24T13:21:51.392Z</time>
      </trkpt>
      <trkpt lat="43.791774" lon="-1.219523">
        <ele>31.840366</ele>
        <time>2026-03-24T13:22:06.335Z</time>
      </trkpt>
      <trkpt lat="43.791379" lon="-1.219132">
        <ele>31.578926</ele>
        <time>2026-03-24T13:22:11.537Z</time>
      </trkpt>
      <trkpt lat="43.791124" lon="-1.218933">
        <ele>31.421314</ele>
        <time>2026-03-24T13:22:14.842Z</time>
      </trkpt>
      <trkpt lat="43.789893" lon="-1.218167">
        <ele>30.846967</ele>
        <time>2026-03-24T13:22:30.456Z</time>
      </trkpt>
      <trkpt lat="43.789165" lon="-1.217752">
        <ele>30.567555</ele>
        <time>2026-03-24T13:22:38.661Z</time>
      </trkpt>
      <trkpt lat="43.788333" lon="-1.217373">
        <ele>29.959845</ele>
        <time>2026-03-24T13:22:47.288Z</time>
      </trkpt>
      <trkpt lat="43.787975" lon="-1.217191">
        <ele>29.661474</ele>
        <time>2026-03-24T13:22:51.059Z</time>
      </trkpt>
      <trkpt lat="43.787358" lon="-1.216842">
        <ele>29.140030</ele>
        <time>2026-03-24T13:22:58.365Z</time>
      </trkpt>
      <trkpt lat="43.787010" lon="-1.216760">
        <ele>29.041580</ele>
        <time>2026-03-24T13:23:02.470Z</time>
      </trkpt>
      <trkpt lat="43.786435" lon="-1.216515">
        <ele>28.931421</ele>
        <time>2026-03-24T13:23:09.936Z</time>
      </trkpt>
      <trkpt lat="43.786239" lon="-1.216502">
        <ele>28.895490</ele>
        <time>2026-03-24T13:23:12.422Z</time>
      </trkpt>
      <trkpt lat="43.785584" lon="-1.216458">
        <ele>28.775409</ele>
        <time>2026-03-24T13:23:20.179Z</time>
      </trkpt>
      <trkpt lat="43.784596" lon="-1.216382">
        <ele>27.354257</ele>
        <time>2026-03-24T13:23:30.275Z</time>
      </trkpt>
      <trkpt lat="43.784522" lon="-1.216372">
        <ele>27.242674</ele>
        <time>2026-03-24T13:23:31.012Z</time>
      </trkpt>
      <trkpt lat="43.784306" lon="-1.216344">
        <ele>26.917095</ele>
        <time>2026-03-24T13:23:33.136Z</time>
      </trkpt>
      <trkpt lat="43.784207" lon="-1.216298">
        <ele>26.760384</ele>
        <time>2026-03-24T13:23:34.148Z</time>
      </trkpt>
      <trkpt lat="43.784133" lon="-1.216209">
        <ele>26.613306</ele>
        <time>2026-03-24T13:23:35.097Z</time>
      </trkpt>
      <trkpt lat="43.784102" lon="-1.216116">
        <ele>26.502322</ele>
        <time>2026-03-24T13:23:35.809Z</time>
      </trkpt>
      <trkpt lat="43.784082" lon="-1.215102">
        <ele>25.479196</ele>
        <time>2026-03-24T13:23:42.838Z</time>
      </trkpt>
      <trkpt lat="43.784025" lon="-1.215118">
        <ele>25.401896</ele>
        <time>2026-03-24T13:23:43.311Z</time>
      </trkpt>
      <trkpt lat="43.783947" lon="-1.215085">
        <ele>25.293495</ele>
        <time>2026-03-24T13:23:43.980Z</time>
      </trkpt>
      <trkpt lat="43.783782" lon="-1.215195">
        <ele>25.050108</ele>
        <time>2026-03-24T13:23:45.517Z</time>
      </trkpt>
      <trkpt lat="43.783477" lon="-1.215399">
        <ele>24.599934</ele>
        <time>2026-03-24T13:23:48.396Z</time>
      </trkpt>
      <trkpt lat="43.783450" lon="-1.215472">
        <ele>24.521227</ele>
        <time>2026-03-24T13:23:48.902Z</time>
      </trkpt>
      <trkpt lat="43.783406" lon="-1.215497">
        <ele>24.458016</ele>
        <time>2026-03-24T13:23:49.309Z</time>
      </trkpt>
      <trkpt lat="43.783294" lon="-1.215513">
        <ele>24.308363</ele>
        <time>2026-03-24T13:23:50.256Z</time>
      </trkpt>
      <trkpt lat="43.782019" lon="-1.216398">
        <ele>24.509313</ele>
        <time>2026-03-24T13:24:04.328Z</time>
      </trkpt>
      <trkpt lat="43.781989" lon="-1.216415">
        <ele>24.537702</ele>
        <time>2026-03-24T13:24:04.819Z</time>
      </trkpt>
      <trkpt lat="43.781960" lon="-1.216347">
        <ele>24.587641</ele>
        <time>2026-03-24T13:24:05.673Z</time>
      </trkpt>
      <trkpt lat="43.781729" lon="-1.216501">
        <ele>24.812173</ele>
        <time>2026-03-24T13:24:09.692Z</time>
      </trkpt>
      <trkpt lat="43.781016" lon="-1.216972">
        <ele>25.747587</ele>
        <time>2026-03-24T13:24:22.685Z</time>
      </trkpt>
      <trkpt lat="43.780976" lon="-1.216995">
        <ele>25.822160</ele>
        <time>2026-03-24T13:24:23.440Z</time>
      </trkpt>
      <trkpt lat="43.780905" lon="-1.217031">
        <ele>25.952344</ele>
        <time>2026-03-24T13:24:24.756Z</time>
      </trkpt>
      <trkpt lat="43.780901" lon="-1.217091">
        <ele>26.027251</ele>
        <time>2026-03-24T13:24:25.491Z</time>
      </trkpt>
      <trkpt lat="43.780869" lon="-1.217132">
        <ele>26.102309</ele>
        <time>2026-03-24T13:24:26.227Z</time>
      </trkpt>
      <trkpt lat="43.780826" lon="-1.217135">
        <ele>26.176441</ele>
        <time>2026-03-24T13:24:26.953Z</time>
      </trkpt>
      <trkpt lat="43.780792" lon="-1.217098">
        <ele>26.250892</ele>
        <time>2026-03-24T13:24:27.669Z</time>
      </trkpt>
      <trkpt lat="43.780467" lon="-1.217227">
        <ele>26.833013</ele>
        <time>2026-03-24T13:24:33.147Z</time>
      </trkpt>
      <trkpt lat="43.779480" lon="-1.217453">
        <ele>28.507750</ele>
        <time>2026-03-24T13:24:47.295Z</time>
      </trkpt>
      <trkpt lat="43.778887" lon="-1.217594">
        <ele>29.304242</ele>
        <time>2026-03-24T13:24:55.469Z</time>
      </trkpt>
      <trkpt lat="43.778605" lon="-1.217655">
        <ele>29.682077</ele>
        <time>2026-03-24T13:24:59.460Z</time>
      </trkpt>
      <trkpt lat="43.778425" lon="-1.217699">
        <ele>29.924042</ele>
        <time>2026-03-24T13:25:02.045Z</time>
      </trkpt>
      <trkpt lat="43.778270" lon="-1.217732">
        <ele>30.131640</ele>
        <time>2026-03-24T13:25:04.298Z</time>
      </trkpt>
      <trkpt lat="43.777351" lon="-1.217945">
        <ele>31.498673</ele>
        <time>2026-03-24T13:25:18.631Z</time>
      </trkpt>
      <trkpt lat="43.777228" lon="-1.218041">
        <ele>31.724868</ele>
        <time>2026-03-24T13:25:20.921Z</time>
      </trkpt>
      <trkpt lat="43.777117" lon="-1.217988">
        <ele>31.912972</ele>
        <time>2026-03-24T13:25:22.793Z</time>
      </trkpt>
      <trkpt lat="43.776713" lon="-1.218073">
        <ele>32.567645</ele>
        <time>2026-03-24T13:25:29.336Z</time>
      </trkpt>
      <trkpt lat="43.775755" lon="-1.218286">
        <ele>33.657689</ele>
        <time>2026-03-24T13:25:42.814Z</time>
      </trkpt>
      <trkpt lat="43.774297" lon="-1.218608">
        <ele>33.871786</ele>
        <time>2026-03-24T13:25:57.286Z</time>
      </trkpt>
      <trkpt lat="43.774211" lon="-1.218628">
        <ele>33.901902</ele>
        <time>2026-03-24T13:25:58.138Z</time>
      </trkpt>
      <trkpt lat="43.773755" lon="-1.218713">
        <ele>34.064643</ele>
        <time>2026-03-24T13:26:02.834Z</time>
      </trkpt>
      <trkpt lat="43.773454" lon="-1.218707">
        <ele>34.171118</ele>
        <time>2026-03-24T13:26:06.230Z</time>
      </trkpt>
      <trkpt lat="43.773279" lon="-1.218643">
        <ele>34.235138</ele>
        <time>2026-03-24T13:26:08.397Z</time>
      </trkpt>
      <trkpt lat="43.773029" lon="-1.218455">
        <ele>34.335758</ele>
        <time>2026-03-24T13:26:11.879Z</time>
      </trkpt>
      <trkpt lat="43.772907" lon="-1.218304">
        <ele>34.393632</ele>
        <time>2026-03-24T13:26:13.909Z</time>
      </trkpt>
      <trkpt lat="43.772849" lon="-1.218233">
        <ele>34.421012</ele>
        <time>2026-03-24T13:26:14.865Z</time>
      </trkpt>
      <trkpt lat="43.772583" lon="-1.217730">
        <ele>34.546392</ele>
        <time>2026-03-24T13:26:20.319Z</time>
      </trkpt>
      <trkpt lat="43.772300" lon="-1.217153">
        <ele>34.640508</ele>
        <time>2026-03-24T13:26:25.992Z</time>
      </trkpt>
      <trkpt lat="43.771581" lon="-1.215704">
        <ele>34.893090</ele>
        <time>2026-03-24T13:26:38.871Z</time>
      </trkpt>
      <trkpt lat="43.770955" lon="-1.216289">
        <ele>35.099531</ele>
        <time>2026-03-24T13:26:46.815Z</time>
      </trkpt>
      <trkpt lat="43.770595" lon="-1.216685">
        <ele>35.225209</ele>
        <time>2026-03-24T13:26:52.036Z</time>
      </trkpt>
      <trkpt lat="43.770430" lon="-1.217026">
        <ele>35.306236</ele>
        <time>2026-03-24T13:26:55.513Z</time>
      </trkpt>
      <trkpt lat="43.770336" lon="-1.217380">
        <ele>35.430831</ele>
        <time>2026-03-24T13:26:58.782Z</time>
      </trkpt>
      <trkpt lat="43.770090" lon="-1.217409">
        <ele>35.574465</ele>
        <time>2026-03-24T13:27:02.196Z</time>
      </trkpt>
      <trkpt lat="43.769711" lon="-1.217453">
        <ele>35.795730</ele>
        <time>2026-03-24T13:27:07.406Z</time>
      </trkpt>
      <trkpt lat="43.769331" lon="-1.217453">
        <ele>36.016803</ele>
        <time>2026-03-24T13:27:12.582Z</time>
      </trkpt>
      <trkpt lat="43.767593" lon="-1.217386">
        <ele>36.857137</ele>
        <time>2026-03-24T13:27:35.627Z</time>
      </trkpt>
      <trkpt lat="43.767470" lon="-1.217380">
        <ele>36.909756</ele>
        <time>2026-03-24T13:27:37.192Z</time>
      </trkpt>
      <trkpt lat="43.766432" lon="-1.217330">
        <ele>37.387696</ele>
        <time>2026-03-24T13:27:50.340Z</time>
      </trkpt>
      <trkpt lat="43.766295" lon="-1.217325">
        <ele>37.456111</ele>
        <time>2026-03-24T13:27:52.100Z</time>
      </trkpt>
      <trkpt lat="43.763917" lon="-1.217232">
        <ele>38.508962</ele>
        <time>2026-03-24T13:28:24.385Z</time>
      </trkpt>
      <trkpt lat="43.760863" lon="-1.217075">
        <ele>38.761939</ele>
        <time>2026-03-24T13:29:00.465Z</time>
      </trkpt>
      <trkpt lat="43.760672" lon="-1.217065">
        <ele>38.796685</ele>
        <time>2026-03-24T13:29:02.854Z</time>
      </trkpt>
      <trkpt lat="43.760095" lon="-1.217180">
        <ele>38.902656</ele>
        <time>2026-03-24T13:29:10.387Z</time>
      </trkpt>
      <trkpt lat="43.759432" lon="-1.217375">
        <ele>39.060214</ele>
        <time>2026-03-24T13:29:19.155Z</time>
      </trkpt>
      <trkpt lat="43.759256" lon="-1.217494">
        <ele>39.118072</ele>
        <time>2026-03-24T13:29:21.696Z</time>
      </trkpt>
      <trkpt lat="43.758670" lon="-1.217027">
        <ele>39.317802</ele>
        <time>2026-03-24T13:29:29.237Z</time>
      </trkpt>
      <trkpt lat="43.757157" lon="-1.215715">
        <ele>39.550111</ele>
        <time>2026-03-24T13:29:48.331Z</time>
      </trkpt>
      <trkpt lat="43.756515" lon="-1.215237">
        <ele>39.556985</ele>
        <time>2026-03-24T13:29:55.687Z</time>
      </trkpt>
      <trkpt lat="43.756179" lon="-1.215121">
        <ele>39.483232</ele>
        <time>2026-03-24T13:29:59.041Z</time>
      </trkpt>
      <trkpt lat="43.754690" lon="-1.215050">
        <ele>39.276945</ele>
        <time>2026-03-24T13:30:13.499Z</time>
      </trkpt>
      <trkpt lat="43.754527" lon="-1.215082">
        <ele>39.383857</ele>
        <time>2026-03-24T13:30:15.367Z</time>
      </trkpt>
      <trkpt lat="43.754321" lon="-1.215213">
        <ele>39.531073</ele>
        <time>2026-03-24T13:30:18.097Z</time>
      </trkpt>
      <trkpt lat="43.754238" lon="-1.215231">
        <ele>39.585631</ele>
        <time>2026-03-24T13:30:19.179Z</time>
      </trkpt>
      <trkpt lat="43.754119" lon="-1.215206">
        <ele>39.663796</ele>
        <time>2026-03-24T13:30:20.715Z</time>
      </trkpt>
      <trkpt lat="43.753350" lon="-1.214754">
        <ele>40.206335</ele>
        <time>2026-03-24T13:30:31.593Z</time>
      </trkpt>
      <trkpt lat="43.753267" lon="-1.214841">
        <ele>40.273943</ele>
        <time>2026-03-24T13:30:33.141Z</time>
      </trkpt>
      <trkpt lat="43.752787" lon="-1.215013">
        <ele>40.564960</ele>
        <time>2026-03-24T13:30:40.100Z</time>
      </trkpt>
      <trkpt lat="43.752654" lon="-1.215098">
        <ele>40.647529</ele>
        <time>2026-03-24T13:30:42.084Z</time>
      </trkpt>
      <trkpt lat="43.752185" lon="-1.215399">
        <ele>40.938908</ele>
        <time>2026-03-24T13:30:48.792Z</time>
      </trkpt>
      <trkpt lat="43.751854" lon="-1.215555">
        <ele>41.135993</ele>
        <time>2026-03-24T13:30:53.190Z</time>
      </trkpt>
      <trkpt lat="43.750689" lon="-1.215421">
        <ele>41.952256</ele>
        <time>2026-03-24T13:31:09.070Z</time>
      </trkpt>
      <trkpt lat="43.749899" lon="-1.215375">
        <ele>42.565015</ele>
        <time>2026-03-24T13:31:20.297Z</time>
      </trkpt>
      <trkpt lat="43.749389" lon="-1.215389">
        <ele>43.006783</ele>
        <time>2026-03-24T13:31:27.607Z</time>
      </trkpt>
      <trkpt lat="43.749083" lon="-1.215416">
        <ele>43.302129</ele>
        <time>2026-03-24T13:31:32.061Z</time>
      </trkpt>
      <trkpt lat="43.748682" lon="-1.215368">
        <ele>43.689824</ele>
        <time>2026-03-24T13:31:37.955Z</time>
      </trkpt>
      <trkpt lat="43.747915" lon="-1.215076">
        <ele>44.456049</ele>
        <time>2026-03-24T13:31:49.632Z</time>
      </trkpt>
      <trkpt lat="43.747507" lon="-1.215022">
        <ele>44.643639</ele>
        <time>2026-03-24T13:31:55.548Z</time>
      </trkpt>
      <trkpt lat="43.747297" lon="-1.215102">
        <ele>44.728973</ele>
        <time>2026-03-24T13:31:58.608Z</time>
      </trkpt>
      <trkpt lat="43.746987" lon="-1.215349">
        <ele>44.869109</ele>
        <time>2026-03-24T13:32:03.401Z</time>
      </trkpt>
      <trkpt lat="43.746802" lon="-1.215452">
        <ele>44.947233</ele>
        <time>2026-03-24T13:32:05.941Z</time>
      </trkpt>
      <trkpt lat="43.746705" lon="-1.215774">
        <ele>45.045974</ele>
        <time>2026-03-24T13:32:09.032Z</time>
      </trkpt>
      <trkpt lat="43.746617" lon="-1.216177">
        <ele>45.165131</ele>
        <time>2026-03-24T13:32:12.615Z</time>
      </trkpt>
      <trkpt lat="43.746452" lon="-1.217516">
        <ele>45.144415</ele>
        <time>2026-03-24T13:32:23.757Z</time>
      </trkpt>
      <trkpt lat="43.746448" lon="-1.217680">
        <ele>45.136048</ele>
        <time>2026-03-24T13:32:25.083Z</time>
      </trkpt>
      <trkpt lat="43.746542" lon="-1.218573">
        <ele>45.090033</ele>
        <time>2026-03-24T13:32:32.621Z</time>
      </trkpt>
      <trkpt lat="43.746539" lon="-1.218672">
        <ele>45.084981</ele>
        <time>2026-03-24T13:32:33.529Z</time>
      </trkpt>
      <trkpt lat="43.746480" lon="-1.218886">
        <ele>45.165429</ele>
        <time>2026-03-24T13:32:35.728Z</time>
      </trkpt>
      <trkpt lat="43.746187" lon="-1.219671">
        <ele>45.810970</ele>
        <time>2026-03-24T13:32:45.379Z</time>
      </trkpt>
      <trkpt lat="43.746067" lon="-1.219804">
        <ele>45.966436</ele>
        <time>2026-03-24T13:32:47.762Z</time>
      </trkpt>
      <trkpt lat="43.745795" lon="-1.220022">
        <ele>46.284299</ele>
        <time>2026-03-24T13:32:52.687Z</time>
      </trkpt>
      <trkpt lat="43.745621" lon="-1.220347">
        <ele>46.579842</ele>
        <time>2026-03-24T13:32:57.271Z</time>
      </trkpt>
      <trkpt lat="43.745370" lon="-1.221076">
        <ele>46.877598</ele>
        <time>2026-03-24T13:33:06.026Z</time>
      </trkpt>
      <trkpt lat="43.744983" lon="-1.222797">
        <ele>46.777052</ele>
        <time>2026-03-24T13:33:21.081Z</time>
      </trkpt>
      <trkpt lat="43.744621" lon="-1.224028">
        <ele>46.122290</ele>
        <time>2026-03-24T13:33:31.142Z</time>
      </trkpt>
      <trkpt lat="43.744522" lon="-1.224337">
        <ele>45.909768</ele>
        <time>2026-03-24T13:33:33.648Z</time>
      </trkpt>
      <trkpt lat="43.744282" lon="-1.224713">
        <ele>45.594317</ele>
        <time>2026-03-24T13:33:37.422Z</time>
      </trkpt>
      <trkpt lat="43.743819" lon="-1.224816">
        <ele>45.193657</ele>
        <time>2026-03-24T13:33:41.680Z</time>
      </trkpt>
      <trkpt lat="43.742390" lon="-1.225141">
        <ele>45.119903</ele>
        <time>2026-03-24T13:33:56.459Z</time>
      </trkpt>
      <trkpt lat="43.742038" lon="-1.225209">
        <ele>45.105036</ele>
        <time>2026-03-24T13:34:00.625Z</time>
      </trkpt>
      <trkpt lat="43.741765" lon="-1.225211">
        <ele>45.154094</ele>
        <time>2026-03-24T13:34:03.751Z</time>
      </trkpt>
      <trkpt lat="43.741497" lon="-1.225120">
        <ele>45.203681</ele>
        <time>2026-03-24T13:34:06.827Z</time>
      </trkpt>
      <trkpt lat="43.741229" lon="-1.224926">
        <ele>45.258029</ele>
        <time>2026-03-24T13:34:10.112Z</time>
      </trkpt>
      <trkpt lat="43.740655" lon="-1.224340">
        <ele>45.386197</ele>
        <time>2026-03-24T13:34:17.640Z</time>
      </trkpt>
      <trkpt lat="43.740455" lon="-1.224235">
        <ele>45.424635</ele>
        <time>2026-03-24T13:34:19.816Z</time>
      </trkpt>
      <trkpt lat="43.740224" lon="-1.224186">
        <ele>45.410399</ele>
        <time>2026-03-24T13:34:22.171Z</time>
      </trkpt>
      <trkpt lat="43.739609" lon="-1.224304">
        <ele>45.368581</ele>
        <time>2026-03-24T13:34:28.579Z</time>
      </trkpt>
      <trkpt lat="43.739775" lon="-1.225801">
        <ele>45.234025</ele>
        <time>2026-03-24T13:34:41.668Z</time>
      </trkpt>
      <trkpt lat="43.739852" lon="-1.226484">
        <ele>44.989437</ele>
        <time>2026-03-24T13:34:47.156Z</time>
      </trkpt>
      <trkpt lat="43.739983" lon="-1.227604">
        <ele>44.587991</ele>
        <time>2026-03-24T13:34:56.100Z</time>
      </trkpt>
      <trkpt lat="43.740777" lon="-1.227439">
        <ele>44.393766</ele>
        <time>2026-03-24T13:35:03.632Z</time>
      </trkpt>
      <trkpt lat="43.740844" lon="-1.227883">
        <ele>44.372763</ele>
        <time>2026-03-24T13:35:07.625Z</time>
      </trkpt>
      <trkpt lat="43.740871" lon="-1.228457">
        <ele>44.346129</ele>
        <time>2026-03-24T13:35:12.915Z</time>
      </trkpt>
      <trkpt lat="43.740846" lon="-1.229154">
        <ele>44.313816</ele>
        <time>2026-03-24T13:35:19.048Z</time>
      </trkpt>
      <trkpt lat="43.740908" lon="-1.229621">
        <ele>44.274452</ele>
        <time>2026-03-24T13:35:23.283Z</time>
      </trkpt>
      <trkpt lat="43.741488" lon="-1.232158">
        <ele>44.087997</ele>
        <time>2026-03-24T13:35:45.507Z</time>
      </trkpt>
      <trkpt lat="43.741503" lon="-1.232432">
        <ele>44.095945</ele>
        <time>2026-03-24T13:35:47.792Z</time>
      </trkpt>
      <trkpt lat="43.741486" lon="-1.232716">
        <ele>44.104188</ele>
        <time>2026-03-24T13:35:50.180Z</time>
      </trkpt>
      <trkpt lat="43.741314" lon="-1.234774">
        <ele>44.403724</ele>
        <time>2026-03-24T13:36:08.968Z</time>
      </trkpt>
      <trkpt lat="43.741303" lon="-1.234846">
        <ele>44.432081</ele>
        <time>2026-03-24T13:36:09.709Z</time>
      </trkpt>
      <trkpt lat="43.741042" lon="-1.235777">
        <ele>44.816888</ele>
        <time>2026-03-24T13:36:19.862Z</time>
      </trkpt>
      <trkpt lat="43.740870" lon="-1.236581">
        <ele>45.095370</ele>
        <time>2026-03-24T13:36:28.267Z</time>
      </trkpt>
      <trkpt lat="43.740862" lon="-1.236659">
        <ele>45.088109</ele>
        <time>2026-03-24T13:36:29.013Z</time>
      </trkpt>
      <trkpt lat="43.740729" lon="-1.237913">
        <ele>44.971285</ele>
        <time>2026-03-24T13:36:39.766Z</time>
      </trkpt>
      <trkpt lat="43.740510" lon="-1.237963">
        <ele>44.942968</ele>
        <time>2026-03-24T13:36:44.486Z</time>
      </trkpt>
      <trkpt lat="43.740284" lon="-1.238017">
        <ele>44.913708</ele>
        <time>2026-03-24T13:36:49.379Z</time>
      </trkpt>
      <trkpt lat="43.739084" lon="-1.238274">
        <ele>44.809278</ele>
        <time>2026-03-24T13:37:15.488Z</time>
      </trkpt>
      <trkpt lat="43.736918" lon="-1.238641">
        <ele>45.121747</ele>
        <time>2026-03-24T13:38:05.821Z</time>
      </trkpt>
      <trkpt lat="43.735115" lon="-1.238966">
        <ele>45.464334</ele>
        <time>2026-03-24T13:38:47.781Z</time>
      </trkpt>
      <trkpt lat="43.734805" lon="-1.239049">
        <ele>45.511169</ele>
        <time>2026-03-24T13:38:54.786Z</time>
      </trkpt>
      <trkpt lat="43.734728" lon="-1.239100">
        <ele>45.523832</ele>
        <time>2026-03-24T13:38:56.658Z</time>
      </trkpt>
      <trkpt lat="43.733394" lon="-1.240441">
        <ele>44.872136</ele>
        <time>2026-03-24T13:39:31.915Z</time>
      </trkpt>
      <trkpt lat="43.732956" lon="-1.240919">
        <ele>44.745855</ele>
        <time>2026-03-24T13:39:43.944Z</time>
      </trkpt>
      <trkpt lat="43.731401" lon="-1.242452">
        <ele>44.816083</ele>
        <time>2026-03-24T13:40:26.400Z</time>
      </trkpt>
      <trkpt lat="43.730549" lon="-1.243284">
        <ele>45.268051</ele>
        <time>2026-03-24T13:40:50.911Z</time>
      </trkpt>
      <trkpt lat="43.729987" lon="-1.243885">
        <ele>45.714368</ele>
        <time>2026-03-24T13:41:08.375Z</time>
      </trkpt>
      <trkpt lat="43.729506" lon="-1.244341">
        <ele>46.176521</ele>
        <time>2026-03-24T13:41:22.843Z</time>
      </trkpt>
      <trkpt lat="43.727607" lon="-1.246267">
        <ele>48.075936</ele>
        <time>2026-03-24T13:42:19.819Z</time>
      </trkpt>
      <trkpt lat="43.727510" lon="-1.246401">
        <ele>48.187561</ele>
        <time>2026-03-24T13:42:23.261Z</time>
      </trkpt>
      <trkpt lat="43.727390" lon="-1.246673">
        <ele>48.385040</ele>
        <time>2026-03-24T13:42:29.046Z</time>
      </trkpt>
      <trkpt lat="43.727086" lon="-1.246341">
        <ele>48.741763</ele>
        <time>2026-03-24T13:42:38.852Z</time>
      </trkpt>
      <trkpt lat="43.727015" lon="-1.246251">
        <ele>48.830454</ele>
        <time>2026-03-24T13:42:41.271Z</time>
      </trkpt>
      <trkpt lat="43.726086" lon="-1.245069">
        <ele>49.968751</ele>
        <time>2026-03-24T13:43:12.659Z</time>
      </trkpt>
      <trkpt lat="43.725609" lon="-1.244463">
        <ele>50.172992</ele>
        <time>2026-03-24T13:43:27.772Z</time>
      </trkpt>
      <trkpt lat="43.725450" lon="-1.244200">
        <ele>50.251150</ele>
        <time>2026-03-24T13:43:33.403Z</time>
      </trkpt>
      <trkpt lat="43.725070" lon="-1.243782">
        <ele>50.404261</ele>
        <time>2026-03-24T13:43:44.245Z</time>
      </trkpt>
      <trkpt lat="43.724713" lon="-1.243310">
        <ele>50.604091</ele>
        <time>2026-03-24T13:43:55.423Z</time>
      </trkpt>
      <trkpt lat="43.724469" lon="-1.243106">
        <ele>50.802565</ele>
        <time>2026-03-24T13:44:02.009Z</time>
      </trkpt>
      <trkpt lat="43.724300" lon="-1.242803">
        <ele>50.995137</ele>
        <time>2026-03-24T13:44:08.523Z</time>
      </trkpt>
      <trkpt lat="43.724109" lon="-1.242559">
        <ele>51.176116</ele>
        <time>2026-03-24T13:44:14.789Z</time>
      </trkpt>
      <trkpt lat="43.723890" lon="-1.242946">
        <ele>51.423420</ele>
        <time>2026-03-24T13:44:23.542Z</time>
      </trkpt>
      <trkpt lat="43.722563" lon="-1.245292">
        <ele>53.343381</ele>
        <time>2026-03-24T13:45:17.800Z</time>
      </trkpt>
      <trkpt lat="43.721644" lon="-1.246952">
        <ele>53.790523</ele>
        <time>2026-03-24T13:45:52.240Z</time>
      </trkpt>
      <trkpt lat="43.720492" lon="-1.248853">
        <ele>53.749621</ele>
        <time>2026-03-24T13:46:32.044Z</time>
      </trkpt>
      <trkpt lat="43.718747" lon="-1.251917">
        <ele>53.053612</ele>
        <time>2026-03-24T13:47:32.992Z</time>
      </trkpt>
      <trkpt lat="43.716814" lon="-1.255254">
        <ele>53.517415</ele>
        <time>2026-03-24T13:48:43.596Z</time>
      </trkpt>
      <trkpt lat="43.714986" lon="-1.258010">
        <ele>54.055185</ele>
        <time>2026-03-24T13:49:17.909Z</time>
      </trkpt>
      <trkpt lat="43.712296" lon="-1.262066">
        <ele>53.153923</ele>
        <time>2026-03-24T13:50:03.597Z</time>
      </trkpt>
      <trkpt lat="43.711562" lon="-1.263172">
        <ele>52.679303</ele>
        <time>2026-03-24T13:50:15.518Z</time>
      </trkpt>
      <trkpt lat="43.709127" lon="-1.268794">
        <ele>50.202449</ele>
        <time>2026-03-24T13:51:08.443Z</time>
      </trkpt>
      <trkpt lat="43.709052" lon="-1.268967">
        <ele>50.085111</ele>
        <time>2026-03-24T13:51:09.927Z</time>
      </trkpt>
      <trkpt lat="43.707912" lon="-1.269611">
        <ele>49.059965</ele>
        <time>2026-03-24T13:51:22.546Z</time>
      </trkpt>
      <trkpt lat="43.705473" lon="-1.270989">
        <ele>48.472565</ele>
        <time>2026-03-24T13:51:54.233Z</time>
      </trkpt>
      <trkpt lat="43.705073" lon="-1.271236">
        <ele>48.277398</ele>
        <time>2026-03-24T13:51:59.147Z</time>
      </trkpt>
      <trkpt lat="43.704743" lon="-1.271694">
        <ele>48.069124</ele>
        <time>2026-03-24T13:52:04.253Z</time>
      </trkpt>
      <trkpt lat="43.703057" lon="-1.275789">
        <ele>45.879044</ele>
        <time>2026-03-24T13:52:41.262Z</time>
      </trkpt>
      <trkpt lat="43.701823" lon="-1.278785">
        <ele>44.405565</ele>
        <time>2026-03-24T13:53:08.936Z</time>
      </trkpt>
      <trkpt lat="43.700919" lon="-1.280980">
        <ele>42.571586</ele>
        <time>2026-03-24T13:53:28.315Z</time>
      </trkpt>
      <trkpt lat="43.700795" lon="-1.281280">
        <ele>42.087448</ele>
        <time>2026-03-24T13:53:30.800Z</time>
      </trkpt>
      <trkpt lat="43.700786" lon="-1.281302">
        <ele>42.052034</ele>
        <time>2026-03-24T13:53:30.952Z</time>
      </trkpt>
      <trkpt lat="43.700724" lon="-1.281454">
        <ele>41.807528</ele>
        <time>2026-03-24T13:53:32.004Z</time>
      </trkpt>
      <trkpt lat="43.699370" lon="-1.284752">
        <ele>36.723396</ele>
        <time>2026-03-24T13:53:54.080Z</time>
      </trkpt>
      <trkpt lat="43.699314" lon="-1.284887">
        <ele>36.524118</ele>
        <time>2026-03-24T13:53:55.072Z</time>
      </trkpt>
      <trkpt lat="43.698764" lon="-1.286226">
        <ele>35.467605</ele>
        <time>2026-03-24T13:54:05.340Z</time>
      </trkpt>
      <trkpt lat="43.698276" lon="-1.287411">
        <ele>34.846987</ele>
        <time>2026-03-24T13:54:14.781Z</time>
      </trkpt>
      <trkpt lat="43.698265" lon="-1.287439">
        <ele>34.838684</ele>
        <time>2026-03-24T13:54:15.001Z</time>
      </trkpt>
      <trkpt lat="43.697797" lon="-1.288539">
        <ele>34.727729</ele>
        <time>2026-03-24T13:54:23.981Z</time>
      </trkpt>
      <trkpt lat="43.697557" lon="-1.289102">
        <ele>34.670912</ele>
        <time>2026-03-24T13:54:28.766Z</time>
      </trkpt>
      <trkpt lat="43.696795" lon="-1.290883">
        <ele>35.130780</ele>
        <time>2026-03-24T13:54:45.344Z</time>
      </trkpt>
      <trkpt lat="43.696422" lon="-1.291736">
        <ele>35.459741</ele>
        <time>2026-03-24T13:54:54.359Z</time>
      </trkpt>
      <trkpt lat="43.696350" lon="-1.291906">
        <ele>35.516431</ele>
        <time>2026-03-24T13:54:56.167Z</time>
      </trkpt>
      <trkpt lat="43.695485" lon="-1.293950">
        <ele>36.128069</ele>
        <time>2026-03-24T13:55:15.502Z</time>
      </trkpt>
      <trkpt lat="43.695195" lon="-1.294635">
        <ele>35.875614</ele>
        <time>2026-03-24T13:55:21.140Z</time>
      </trkpt>
      <trkpt lat="43.693748" lon="-1.297889">
        <ele>34.290421</ele>
        <time>2026-03-24T13:55:46.698Z</time>
      </trkpt>
      <trkpt lat="43.693418" lon="-1.298598">
        <ele>34.094797</ele>
        <time>2026-03-24T13:55:52.476Z</time>
      </trkpt>
      <trkpt lat="43.692654" lon="-1.300191">
        <ele>33.846009</ele>
        <time>2026-03-24T13:56:06.518Z</time>
      </trkpt>
      <trkpt lat="43.692452" lon="-1.300612">
        <ele>33.706547</ele>
        <time>2026-03-24T13:56:10.400Z</time>
      </trkpt>
      <trkpt lat="43.692301" lon="-1.300926">
        <ele>33.602458</ele>
        <time>2026-03-24T13:56:13.168Z</time>
      </trkpt>
      <trkpt lat="43.692125" lon="-1.301460">
        <ele>33.440473</ele>
        <time>2026-03-24T13:56:17.347Z</time>
      </trkpt>
      <trkpt lat="43.692107" lon="-1.301514">
        <ele>33.424060</ele>
        <time>2026-03-24T13:56:17.760Z</time>
      </trkpt>
      <trkpt lat="43.691556" lon="-1.303836">
        <ele>32.414058</ele>
        <time>2026-03-24T13:56:33.894Z</time>
      </trkpt>
      <trkpt lat="43.691518" lon="-1.304012">
        <ele>32.322450</ele>
        <time>2026-03-24T13:56:35.111Z</time>
      </trkpt>
      <trkpt lat="43.691175" lon="-1.304705">
        <ele>31.912550</ele>
        <time>2026-03-24T13:56:40.791Z</time>
      </trkpt>
      <trkpt lat="43.691031" lon="-1.305539">
        <ele>31.666942</ele>
        <time>2026-03-24T13:56:46.852Z</time>
      </trkpt>
      <trkpt lat="43.690869" lon="-1.307185">
        <ele>31.154105</ele>
        <time>2026-03-24T13:56:58.562Z</time>
      </trkpt>
      <trkpt lat="43.690856" lon="-1.307323">
        <ele>31.043955</ele>
        <time>2026-03-24T13:56:59.516Z</time>
      </trkpt>
      <trkpt lat="43.690819" lon="-1.307601">
        <ele>30.820222</ele>
        <time>2026-03-24T13:57:01.425Z</time>
      </trkpt>
      <trkpt lat="43.690716" lon="-1.308696">
        <ele>29.946227</ele>
        <time>2026-03-24T13:57:08.462Z</time>
      </trkpt>
      <trkpt lat="43.690739" lon="-1.309318">
        <ele>29.453270</ele>
        <time>2026-03-24T13:57:12.221Z</time>
      </trkpt>
      <trkpt lat="43.690987" lon="-1.310526">
        <ele>29.067731</ele>
        <time>2026-03-24T13:57:20.115Z</time>
      </trkpt>
      <trkpt lat="43.691134" lon="-1.311051">
        <ele>28.967954</ele>
        <time>2026-03-24T13:57:24.081Z</time>
      </trkpt>
      <trkpt lat="43.691164" lon="-1.311183">
        <ele>28.943432</ele>
        <time>2026-03-24T13:57:25.326Z</time>
      </trkpt>
      <trkpt lat="43.691328" lon="-1.311901">
        <ele>28.809986</ele>
        <time>2026-03-24T13:57:31.978Z</time>
      </trkpt>
      <trkpt lat="43.691352" lon="-1.312322">
        <ele>29.056502</ele>
        <time>2026-03-24T13:57:36.249Z</time>
      </trkpt>
      <trkpt lat="43.691259" lon="-1.312666">
        <ele>29.302364</ele>
        <time>2026-03-24T13:57:40.064Z</time>
      </trkpt>
      <trkpt lat="43.690997" lon="-1.313272">
        <ele>29.775043</ele>
        <time>2026-03-24T13:57:47.135Z</time>
      </trkpt>
      <trkpt lat="43.690545" lon="-1.314080">
        <ele>30.458947</ele>
        <time>2026-03-24T13:57:56.208Z</time>
      </trkpt>
      <trkpt lat="43.689564" lon="-1.314731">
        <ele>30.510838</ele>
        <time>2026-03-24T13:58:07.695Z</time>
      </trkpt>
      <trkpt lat="43.689044" lon="-1.315187">
        <ele>30.535476</ele>
        <time>2026-03-24T13:58:13.729Z</time>
      </trkpt>
      <trkpt lat="43.688885" lon="-1.315477">
        <ele>30.550572</ele>
        <time>2026-03-24T13:58:16.297Z</time>
      </trkpt>
      <trkpt lat="43.688451" lon="-1.316405">
        <ele>30.605513</ele>
        <time>2026-03-24T13:58:24.141Z</time>
      </trkpt>
      <trkpt lat="43.688366" lon="-1.317056">
        <ele>30.638399</ele>
        <time>2026-03-24T13:58:29.133Z</time>
      </trkpt>
      <trkpt lat="43.688311" lon="-1.317483">
        <ele>30.659961</ele>
        <time>2026-03-24T13:58:32.764Z</time>
      </trkpt>
      <trkpt lat="43.688287" lon="-1.318373">
        <ele>31.151859</ele>
        <time>2026-03-24T13:58:41.126Z</time>
      </trkpt>
      <trkpt lat="43.688289" lon="-1.318459">
        <ele>31.202911</ele>
        <time>2026-03-24T13:58:41.967Z</time>
      </trkpt>
      <trkpt lat="43.688324" lon="-1.318472">
        <ele>31.232647</ele>
        <time>2026-03-24T13:58:42.517Z</time>
      </trkpt>
      <trkpt lat="43.688352" lon="-1.318536">
        <ele>31.277029</ele>
        <time>2026-03-24T13:58:43.342Z</time>
      </trkpt>
      <trkpt lat="43.688340" lon="-1.318594">
        <ele>31.312823</ele>
        <time>2026-03-24T13:58:44.017Z</time>
      </trkpt>
      <trkpt lat="43.688303" lon="-1.318626">
        <ele>31.348630</ele>
        <time>2026-03-24T13:58:44.660Z</time>
      </trkpt>
      <trkpt lat="43.688316" lon="-1.318725">
        <ele>31.408330</ele>
        <time>2026-03-24T13:58:45.648Z</time>
      </trkpt>
      <trkpt lat="43.688325" lon="-1.318844">
        <ele>31.479321</ele>
        <time>2026-03-24T13:58:46.808Z</time>
      </trkpt>
      <trkpt lat="43.688349" lon="-1.319189">
        <ele>31.684962</ele>
        <time>2026-03-24T13:58:50.163Z</time>
      </trkpt>
      <trkpt lat="43.688353" lon="-1.319228">
        <ele>31.708334</ele>
        <time>2026-03-24T13:58:50.530Z</time>
      </trkpt>
      <trkpt lat="43.688389" lon="-1.319564">
        <ele>31.909867</ele>
        <time>2026-03-24T13:58:53.653Z</time>
      </trkpt>
      <trkpt lat="43.688381" lon="-1.319779">
        <ele>32.037600</ele>
        <time>2026-03-24T13:58:55.554Z</time>
      </trkpt>
      <trkpt lat="43.688335" lon="-1.319948">
        <ele>32.138480</ele>
        <time>2026-03-24T13:58:57.100Z</time>
      </trkpt>
      <trkpt lat="43.688325" lon="-1.320408">
        <ele>32.107209</ele>
        <time>2026-03-24T13:59:00.745Z</time>
      </trkpt>
      <trkpt lat="43.688412" lon="-1.320993">
        <ele>32.066626</ele>
        <time>2026-03-24T13:59:05.077Z</time>
      </trkpt>
      <trkpt lat="43.688718" lon="-1.322078">
        <ele>31.987491</ele>
        <time>2026-03-24T13:59:13.241Z</time>
      </trkpt>
      <trkpt lat="43.688745" lon="-1.322190">
        <ele>31.979469</ele>
        <time>2026-03-24T13:59:14.070Z</time>
      </trkpt>
      <trkpt lat="43.688878" lon="-1.322739">
        <ele>31.823659</ele>
        <time>2026-03-24T13:59:18.139Z</time>
      </trkpt>
      <trkpt lat="43.688954" lon="-1.322915">
        <ele>31.755614</ele>
        <time>2026-03-24T13:59:19.578Z</time>
      </trkpt>
      <trkpt lat="43.689021" lon="-1.322914">
        <ele>31.724856</ele>
        <time>2026-03-24T13:59:20.337Z</time>
      </trkpt>
      <trkpt lat="43.689064" lon="-1.322985">
        <ele>31.694114</ele>
        <time>2026-03-24T13:59:21.094Z</time>
      </trkpt>
      <trkpt lat="43.689347" lon="-1.322871">
        <ele>31.558805</ele>
        <time>2026-03-24T13:59:24.447Z</time>
      </trkpt>
      <trkpt lat="43.689358" lon="-1.322927">
        <ele>31.539543</ele>
        <time>2026-03-24T13:59:24.854Z</time>
      </trkpt>
      <trkpt lat="43.689431" lon="-1.323293">
        <ele>31.413519</ele>
        <time>2026-03-24T13:59:27.516Z</time>
      </trkpt>
      <trkpt lat="43.689491" lon="-1.323356">
        <ele>31.378937</ele>
        <time>2026-03-24T13:59:28.238Z</time>
      </trkpt>
      <trkpt lat="43.689979" lon="-1.323194">
        <ele>31.148559</ele>
        <time>2026-03-24T13:59:32.969Z</time>
      </trkpt>
      <trkpt lat="43.690075" lon="-1.323179">
        <ele>31.038402</ele>
        <time>2026-03-24T13:59:33.851Z</time>
      </trkpt>
      <trkpt lat="43.690211" lon="-1.323207">
        <ele>30.872049</ele>
        <time>2026-03-24T13:59:35.105Z</time>
      </trkpt>
      <trkpt lat="43.690340" lon="-1.323352">
        <ele>30.670930</ele>
        <time>2026-03-24T13:59:36.593Z</time>
      </trkpt>
      <trkpt lat="43.690379" lon="-1.323449">
        <ele>30.573836</ele>
        <time>2026-03-24T13:59:37.304Z</time>
      </trkpt>
      <trkpt lat="43.690447" lon="-1.323816">
        <ele>30.242404</ele>
        <time>2026-03-24T13:59:39.697Z</time>
      </trkpt>
      <trkpt lat="43.690594" lon="-1.324611">
        <ele>29.524543</ele>
        <time>2026-03-24T13:59:44.785Z</time>
      </trkpt>
      <trkpt lat="43.690802" lon="-1.324968">
        <ele>29.123464</ele>
        <time>2026-03-24T13:59:47.600Z</time>
      </trkpt>
      <trkpt lat="43.691091" lon="-1.324667">
        <ele>28.704402</ele>
        <time>2026-03-24T13:59:52.630Z</time>
      </trkpt>
      <trkpt lat="43.691257" lon="-1.324650">
        <ele>28.516305</ele>
        <time>2026-03-24T13:59:55.464Z</time>
      </trkpt>
      <trkpt lat="43.691314" lon="-1.324857">
        <ele>28.335319</ele>
        <time>2026-03-24T13:59:58.191Z</time>
      </trkpt>
      <trkpt lat="43.691805" lon="-1.326645">
        <ele>26.935857</ele>
        <time>2026-03-24T14:00:22.389Z</time>
      </trkpt>
      <trkpt lat="43.691948" lon="-1.327337">
        <ele>26.935857</ele>
        <time>2026-03-24T14:00:31.776Z</time>
      </trkpt>
      <trkpt lat="43.692005" lon="-1.327745">
        <ele>26.935857</ele>
        <time>2026-03-24T14:00:37.265Z</time>
      </trkpt>
    </trkseg>
  </trk>
</gpx>